ECMWFNIL_925_spd_000.txt.gz
Wind_Speed
18 18 19 19 18 18 19 21 22 23 24 24 23 23 22 22 23 22 21 21 22 24 25 26 27 26 25 24 26 29 33 37 40 41 42 42 43 41 37 36 36 36
18 18 19 19 19 19 20 21 23 25 28 28 27 27 25 24 23 21 21 21 22 24 25 27 28 28 28 26 25 27 31 34 37 39 41 42 42 42 41 39 39 38
17 18 19 20 21 22 22 22 23 24 27 28 27 27 25 24 23 22 21 20 21 23 25 26 28 30 29 28 27 27 29 32 34 37 40 42 43 42 41 40 40 40
17 18 20 21 23 24 24 23 23 23 24 25 26 25 25 25 24 23 21 20 21 23 25 26 28 30 30 29 28 28 29 31 33 36 37 39 41 42 41 40 39 39
18 19 20 22 24 25 26 25 24 24 24 25 26 24 24 24 24 24 23 21 22 23 25 26 28 30 30 29 28 28 29 29 31 35 37 37 39 41 40 39 38 38
19 20 21 23 24 26 27 26 25 24 24 25 25 24 23 23 23 24 24 23 22 23 25 27 28 30 31 30 28 28 29 29 29 32 36 39 40 41 41 39 37 36
21 22 23 24 25 26 27 27 27 25 24 25 24 24 24 24 24 24 24 25 24 24 26 28 29 30 31 31 30 29 29 29 29 31 34 38 39 41 42 40 39 38
22 23 24 25 26 26 27 27 27 26 25 25 25 25 25 25 26 25 25 27 28 28 29 30 31 31 31 32 32 31 30 30 30 31 34 37 37 39 40 40 40 41
23 24 25 26 26 26 27 27 27 27 26 25 26 25 25 25 26 26 27 27 29 30 31 31 32 32 32 32 32 32 31 31 31 31 32 35 38 39 40 39 39 41
23 24 26 27 27 27 27 27 27 28 27 26 26 27 26 25 26 27 27 28 29 31 31 32 33 34 33 32 33 33 32 32 32 32 33 35 38 41 41 40 39 40
24 25 26 26 26 27 28 28 28 28 27 27 27 28 28 27 27 28 28 30 31 32 32 33 34 35 34 33 33 34 33 33 33 33 34 36 38 41 42 42 41 42
25 25 25 26 27 27 28 29 28 28 28 28 28 29 29 29 28 29 29 30 32 32 33 34 35 36 37 35 34 34 35 35 35 34 35 36 39 41 43 44 45 45
25 25 25 26 27 28 29 29 29 29 30 30 30 30 30 30 30 30 30 31 32 33 34 35 36 37 38 37 35 35 35 36 36 35 35 37 39 41 43 44 45 46
26 26 26 27 28 29 30 31 31 31 31 31 32 31 31 31 31 32 33 33 33 34 34 35 36 37 38 38 35 35 36 37 37 37 36 37 39 41 43 45 45 45
26 27 27 27 28 30 32 33 32 32 32 32 33 33 32 32 32 34 34 34 35 36 36 36 37 39 40 38 36 35 36 37 38 38 38 37 39 41 42 45 44 43
26 28 27 27 29 31 33 33 32 32 33 33 33 34 33 33 33 34 34 35 37 37 37 39 40 41 41 39 37 35 35 36 37 38 39 39 39 40 41 42 43 42
26 27 27 27 30 32 32 33 33 33 33 33 34 34 34 34 34 34 34 35 38 38 38 39 41 42 41 40 39 37 36 37 36 37 39 39 40 41 41 41 41 41
26 26 27 28 31 32 32 33 33 33 33 34 33 33 33 33 33 33 34 35 36 37 38 39 41 42 41 40 39 38 38 38 37 37 38 38 40 41 42 42 42 41
25 26 28 30 31 32 32 33 33 33 33 33 33 32 31 32 32 33 34 34 35 37 38 38 40 40 40 40 40 39 40 40 39 37 36 37 40 41 42 44 44 42
25 27 30 31 31 32 32 32 33 33 33 33 32 31 30 30 32 32 33 33 34 36 38 39 40 40 40 40 41 40 41 41 40 36 34 37 42 43 44 45 46 44
26 28 30 31 31 31 31 31 32 33 33 32 31 30 29 29 30 30 31 32 33 34 37 38 39 39 39 40 41 41 42 43 40 35 34 38 42 46 48 48 48 46
26 29 30 31 31 30 30 30 31 32 32 32 30 30 29 28 28 29 30 31 32 34 36 37 37 38 39 39 41 41 42 43 40 36 35 36 38 43 47 48 48 47
26 29 31 31 30 29 30 31 32 33 32 31 29 29 30 29 30 30 30 30 32 34 35 34 34 36 36 36 40 43 43 41 38 35 35 36 36 38 43 46 46 47
26 29 30 31 29 29 30 32 33 33 31 30 29 30 32 32 31 30 31 31 30 32 33 32 31 30 28 29 37 43 42 39 37 35 35 37 35 32 37 42 42 43
26 29 30 29 29 29 30 32 33 32 30 29 30 30 31 33 32 30 30 29 27 29 31 30 28 26 23 25 34 43 42 37 37 36 35 35 35 32 32 36 37 37
26 29 30 28 28 29 30 32 33 32 30 29 28 27 26 28 28 22 16 13 15 20 24 24 24 24 23 24 32 40 41 39 39 39 37 37 37 36 35 34 33 35

ECMWFNIL_925_spd_003.txt.gz
Wind_Speed
6 6 7 8 9 10 11 12 13 15 16 16 17 18 18 18 17 16 17 17 17 17 17 16 17 19 21 21 21 23 27 29 29 31 37 41 42 41 41 41 41 38
5 7 7 8 9 10 11 12 14 15 16 17 18 19 19 19 18 17 17 17 17 17 17 17 17 18 18 20 21 21 23 26 27 28 32 38 41 41 41 41 41 40
6 7 7 9 10 11 12 13 14 15 17 17 18 19 19 19 19 18 17 18 18 18 18 18 18 18 18 19 21 21 21 23 25 27 29 34 40 42 42 42 41 39
7 7 8 9 10 12 13 14 15 16 17 18 18 18 19 20 20 19 19 18 19 19 19 19 19 19 19 19 19 21 22 22 24 26 29 32 36 41 44 43 40 39
9 8 8 10 11 12 13 14 16 16 17 18 19 19 19 20 20 20 20 19 19 19 19 20 20 20 20 19 20 21 21 22 23 24 28 31 32 37 42 43 41 40
11 10 9 11 12 13 14 15 16 16 17 18 19 19 19 20 20 21 21 20 20 20 20 20 20 21 20 20 21 21 22 23 23 23 26 28 30 33 38 43 44 43
12 10 11 12 13 14 15 17 17 16 17 17 18 20 20 20 21 22 22 22 21 21 22 22 22 22 21 21 22 22 22 23 24 24 25 26 27 29 33 39 44 45
11 11 13 14 14 16 17 17 17 17 17 17 19 20 21 21 21 22 22 22 23 23 23 23 24 24 23 23 23 24 23 24 25 25 26 25 25 27 30 33 39 43
11 12 14 15 16 18 18 18 18 18 18 19 20 20 21 22 22 22 23 23 23 24 24 25 25 25 25 25 25 25 25 25 25 26 27 27 26 27 28 30 34 38
11 13 15 16 18 20 21 21 22 21 20 21 22 22 22 23 23 23 24 25 26 26 26 26 26 25 26 27 27 28 28 27 26 27 29 29 28 27 28 30 33 35
12 14 16 17 20 22 22 23 24 24 23 23 24 24 24 24 24 24 25 26 27 27 27 27 27 27 27 27 27 28 29 29 28 28 29 30 30 29 28 30 33 34
13 15 17 18 20 22 23 25 26 26 25 26 27 26 26 25 25 25 26 27 27 27 28 28 28 28 28 28 28 28 29 30 30 29 29 31 31 31 30 30 33 35
15 16 18 19 20 22 23 25 26 26 27 27 27 28 28 27 26 27 27 28 28 28 28 29 29 29 30 29 29 29 29 29 30 30 30 31 32 32 31 31 32 35
16 18 18 20 22 24 24 24 26 29 30 28 27 28 30 29 28 28 29 29 29 30 29 29 30 30 31 31 30 31 31 30 31 32 32 31 32 33 33 32 33 34
17 18 19 21 23 25 24 25 27 29 29 28 27 28 30 30 29 29 30 31 31 31 31 30 30 31 31 32 31 31 31 31 31 33 33 31 32 33 33 33 33 34
16 18 20 22 23 24 24 25 27 27 27 27 28 29 29 29 29 30 31 31 32 33 33 32 32 32 33 34 35 33 31 31 31 32 33 31 31 33 33 34 34 34
16 18 20 22 23 24 25 26 27 28 28 29 30 30 30 30 30 31 31 31 32 33 34 35 34 33 34 36 38 38 36 34 31 31 32 31 32 33 33 33 32 33
16 19 21 23 24 26 27 27 28 29 29 30 31 31 32 32 31 32 32 31 31 32 34 36 36 36 36 37 38 39 40 40 36 32 31 31 33 33 33 32 31 33
16 19 22 24 26 27 28 27 28 29 29 30 31 32 33 33 33 33 33 32 32 33 34 35 36 36 37 38 40 40 41 43 41 36 33 32 32 33 33 32 31 33
17 19 22 25 28 28 27 27 28 28 29 29 30 31 31 32 32 33 33 33 33 33 34 35 36 36 37 39 41 42 43 44 43 39 35 33 33 33 33 33 33 33
16 19 22 27 28 27 26 27 28 28 29 30 29 29 29 30 31 32 33 33 33 33 34 34 35 36 37 39 40 42 43 44 43 39 37 36 34 33 33 34 36 35
15 18 23 27 28 26 26 27 28 29 30 29 29 28 28 29 30 31 32 33 33 33 33 34 35 36 38 39 41 41 43 44 43 40 38 37 35 34 35 36 37 36
15 18 23 27 27 26 26 27 28 29 29 27 27 26 27 28 30 31 31 32 33 33 32 33 34 36 39 40 41 42 43 44 42 39 38 39 36 33 34 34 33 36
15 18 21 26 26 25 26 27 28 29 28 26 25 27 28 30 30 31 31 32 32 33 33 32 32 34 36 39 40 42 43 43 39 36 37 38 35 31 30 29 29 34
16 17 20 24 25 24 25 28 29 28 27 26 27 29 31 31 30 29 31 32 32 32 32 32 33 33 34 36 37 40 43 41 37 35 36 34 31 29 29 29 29 33
15 16 19 22 23 23 25 27 28 28 29 30 30 31 31 30 27 25 26 27 27 28 28 29 31 31 32 34 36 39 43 41 37 36 36 30 26 28 28 28 29 31

ECMWFNIL_925_spd_006.txt.gz
Wind_Speed
4 4 4 4 4 5 5 6 6 7 8 9 10 10 10 11 11 12 14 15 16 17 17 18 18 19 19 19 19 20 21 21 21 22 24 27 32 37 41 42 43 42
5 4 4 5 5 6 6 7 8 9 9 10 11 11 11 12 12 13 14 16 16 17 18 18 18 19 19 20 20 20 21 22 22 22 22 25 30 34 38 39 41 44
6 5 6 6 6 7 8 9 9 10 11 11 12 12 12 13 13 13 14 16 17 17 18 18 19 19 20 21 21 21 22 22 23 23 23 24 26 29 33 35 38 42
7 6 6 6 7 7 8 9 10 10 11 12 12 13 13 13 14 14 16 17 18 18 19 19 19 20 21 21 21 22 23 23 24 24 24 25 25 26 30 33 37 40
7 6 6 7 7 8 8 9 10 11 12 13 13 14 15 15 15 16 17 18 18 19 19 19 20 20 21 21 22 23 24 24 24 25 26 27 26 25 27 29 34 36
7 6 7 7 8 8 9 10 11 12 12 14 15 16 16 16 17 18 19 19 20 20 20 20 20 21 21 21 22 24 25 24 24 25 27 28 28 27 27 28 31 33
6 6 7 8 9 9 10 11 11 12 13 15 16 17 18 18 18 19 19 20 21 21 21 21 21 22 22 22 22 23 25 26 25 25 27 29 29 29 29 29 30 31
6 7 7 8 9 10 11 12 12 13 15 17 18 19 19 20 20 20 20 21 21 22 22 22 23 23 23 23 23 24 25 26 27 26 26 28 30 31 31 30 29 30
6 7 8 9 10 11 12 13 13 14 16 18 19 20 20 21 21 21 21 22 22 23 23 23 24 24 25 25 25 25 25 26 27 28 28 27 29 31 32 32 29 30
7 7 8 9 11 12 12 13 15 15 17 19 20 21 22 22 23 23 23 23 24 24 24 25 25 25 26 26 26 26 27 27 27 29 29 29 29 30 32 33 32 30
7 7 8 9 11 12 13 14 15 16 18 20 21 22 23 24 24 24 24 25 25 25 25 26 26 27 27 27 28 28 28 28 28 29 30 31 31 30 31 33 34 32
7 8 9 10 11 12 14 15 16 17 19 21 22 24 24 25 25 25 26 26 26 26 26 27 27 28 29 29 29 29 29 29 29 29 30 31 32 32 31 31 33 34
7 8 9 10 11 12 14 16 18 19 21 22 23 25 26 26 26 27 27 27 27 27 27 28 28 29 30 30 30 30 30 30 29 30 30 30 32 34 34 32 32 34
7 8 9 10 11 13 15 17 19 20 21 22 23 25 26 26 26 27 27 27 28 29 29 29 29 30 30 31 31 31 31 31 30 30 30 31 32 34 35 34 33 34
7 8 9 10 11 14 16 18 20 21 22 23 24 25 26 26 26 27 27 28 29 29 30 30 31 32 31 31 31 30 30 31 32 31 30 31 31 33 36 37 35 33
7 8 9 10 12 15 17 19 20 22 23 24 25 25 26 27 27 27 28 29 30 30 31 32 32 33 33 34 34 33 30 30 30 31 30 30 31 32 35 38 37 34
8 9 9 11 13 16 18 20 21 23 24 24 25 26 26 27 27 28 29 30 31 31 32 33 34 34 35 36 37 37 36 33 30 29 29 30 31 32 34 35 36 35
8 9 10 12 15 17 18 19 21 22 24 24 25 25 26 27 28 29 30 30 31 33 33 34 36 36 37 37 38 38 39 37 34 31 30 30 31 32 33 34 34 33
8 9 11 13 15 16 18 20 21 23 24 24 25 26 27 28 29 30 30 31 32 33 35 36 37 37 38 39 39 39 39 39 38 35 34 33 31 31 32 33 33 32
8 9 11 13 14 16 18 20 22 23 24 25 25 26 27 28 29 30 31 31 32 33 36 37 38 38 39 40 40 40 40 40 39 37 37 36 34 33 32 32 33 33
9 10 11 13 15 17 19 21 22 24 25 26 26 26 27 28 29 30 30 31 32 33 35 37 37 38 39 40 41 40 40 41 40 38 38 38 37 36 35 33 33 33
9 10 11 14 16 18 20 21 23 25 26 26 27 27 27 28 29 30 30 32 32 33 35 37 38 38 39 40 40 40 40 40 39 38 38 38 37 36 36 35 34 34
9 10 12 15 17 19 21 22 24 26 28 28 28 28 28 28 29 30 31 32 33 34 35 37 38 38 40 40 41 41 41 39 37 36 36 38 38 37 35 35 36 36
10 11 13 15 17 19 21 23 24 27 29 28 28 28 28 29 29 30 31 32 33 35 36 37 38 38 38 40 41 42 42 39 36 34 35 36 36 37 35 34 36 38
10 12 13 16 18 21 22 22 23 26 29 29 27 27 29 29 29 30 31 32 32 34 34 35 37 38 39 41 42 43 42 40 35 33 34 34 34 34 34 33 35 37
11 12 14 17 19 22 23 23 24 27 30 28 27 27 28 29 29 30 31 31 31 31 32 32 34 37 39 41 42 42 42 40 37 33 33 33 32 31 31 31 33 34

ECMWFNIL_925_spd_009.txt.gz
Wind_Speed
11 10 9 8 7 6 6 6 6 6 7 7 8 8 9 9 9 10 11 12 12 13 14 15 16 17 18 19 20 20 20 20 20 21 21 21 21 22 25 29 32 33
12 11 9 8 7 7 6 6 6 7 8 8 9 9 10 10 11 12 13 13 14 14 15 15 16 17 18 19 19 20 21 21 21 21 21 22 22 22 23 25 29 31
13 11 10 9 8 7 7 7 8 8 9 9 10 10 11 11 12 13 14 14 15 15 15 16 16 17 18 19 20 21 21 22 22 22 22 22 23 24 24 25 27 31
13 12 11 9 8 8 8 8 9 9 9 10 10 11 11 12 13 14 15 15 16 16 16 16 17 17 18 19 20 21 22 22 23 23 23 23 23 24 24 25 27 29
14 12 11 10 9 9 9 9 10 10 11 11 12 12 13 13 14 15 16 16 16 17 17 17 17 18 18 18 20 21 21 22 23 24 25 24 23 23 24 24 26 27
14 12 11 10 10 10 10 10 11 11 12 13 13 13 14 14 15 16 17 17 17 18 18 18 18 18 18 18 19 21 22 22 22 24 25 26 25 25 24 24 25 27
14 12 11 11 11 11 11 11 12 12 13 13 14 14 14 15 16 17 17 18 19 19 19 19 19 19 19 19 20 20 21 22 22 23 25 26 26 27 26 26 26 27
13 12 12 11 11 12 12 12 12 13 14 14 14 15 15 16 17 17 18 18 19 20 20 20 20 20 20 20 21 21 21 22 22 23 25 25 26 27 28 28 28 28
13 12 12 11 12 12 12 13 13 13 14 14 15 16 16 17 17 18 18 19 20 21 21 21 21 21 21 22 23 23 23 23 22 23 24 25 26 27 27 28 29 29
13 12 12 12 12 12 12 13 13 14 14 15 16 16 17 17 18 18 19 20 22 22 22 23 23 23 23 24 24 24 24 24 24 24 25 25 27 27 27 28 29 29
13 12 12 12 12 12 12 13 13 14 14 15 16 17 17 18 18 19 21 22 23 23 24 24 24 24 24 25 26 25 26 25 25 25 25 26 27 28 29 29 29 30
12 12 11 11 11 11 12 12 13 14 15 15 16 17 18 19 20 21 22 24 24 25 25 26 26 26 25 26 26 27 27 27 27 27 26 27 27 28 30 30 30 30
12 11 10 10 10 11 12 12 13 14 15 16 17 18 19 20 21 23 24 25 26 27 27 27 27 27 27 27 27 27 28 28 28 29 28 28 28 28 29 30 31 31
11 10 10 10 11 11 12 13 14 15 15 16 17 18 20 21 22 23 24 25 26 27 27 27 28 28 28 27 27 27 28 29 29 30 29 29 29 29 30 30 32 32
10 10 10 11 11 12 13 13 14 15 16 17 18 19 21 22 23 24 25 26 27 27 28 28 28 29 28 28 28 28 27 28 29 29 30 31 30 30 30 31 32 33
10 10 10 11 12 12 12 13 14 15 16 17 18 20 22 23 24 25 26 27 28 28 29 29 29 30 30 31 31 30 29 28 28 28 28 30 31 32 31 31 31 32
10 10 11 11 12 12 13 14 15 15 16 17 19 21 22 23 24 25 26 27 28 29 29 30 31 32 32 33 34 33 32 31 30 30 30 29 30 31 32 31 31 32
10 10 11 11 12 12 13 14 14 15 16 18 20 21 23 23 24 25 26 27 28 29 30 31 33 34 34 35 36 36 35 34 32 32 33 32 31 31 31 30 30 31
9 10 11 12 12 12 13 13 14 15 16 18 20 22 23 24 24 25 26 27 28 30 31 32 33 34 35 35 36 37 37 37 35 33 34 35 34 33 32 31 30 30
9 10 11 12 12 12 13 14 15 15 16 18 21 23 24 25 26 26 26 27 28 29 30 32 32 33 34 35 35 35 35 36 37 36 37 39 38 37 35 34 32 31
9 10 11 12 12 13 14 15 15 15 17 19 21 23 24 25 27 27 28 28 28 29 31 32 33 33 34 35 35 35 35 35 35 34 37 41 42 40 39 37 36 34
9 10 11 12 13 14 15 16 15 16 18 19 21 24 25 26 28 28 29 30 29 30 32 34 35 35 35 36 36 36 38 38 35 34 36 41 42 41 40 39 37 36
9 11 12 12 13 14 16 16 15 17 19 19 21 25 27 27 29 29 29 30 31 32 33 35 36 35 35 36 36 36 37 36 35 36 37 39 39 40 40 39 39 38
10 11 12 13 14 15 16 16 16 18 20 18 19 25 27 28 29 29 29 30 31 32 34 35 36 36 36 37 37 37 38 36 34 35 37 37 37 37 37 38 39 39
10 11 12 13 14 15 16 16 17 19 20 19 21 25 28 29 29 29 30 31 32 33 34 35 36 36 36 38 39 39 40 39 36 34 35 36 35 34 35 36 37 38
10 11 12 13 14 15 16 16 17 19 19 19 22 26 27 28 28 28 31 32 33 34 34 34 36 36 36 37 38 38 39 39 37 34 33 32 33 34 33 34 35 36

ECMWFNIL_925_spd_012.txt.gz
Wind_Speed
16 15 14 13 12 10 9 9 8 7 7 7 8 8 9 9 9 10 11 12 13 15 16 16 17 17 18 19 18 19 20 21 21 20 20 21 22 22 21 21 22 24
17 16 15 13 13 11 11 11 10 9 9 9 9 9 10 10 11 12 13 14 15 16 16 16 17 17 17 18 18 18 19 20 21 21 21 22 23 23 22 21 21 22
18 17 16 15 14 12 12 11 11 11 10 10 10 11 11 11 12 12 13 14 16 17 17 17 17 17 18 18 18 19 19 19 21 22 22 22 22 23 23 22 22 22
19 18 17 16 14 13 12 12 12 11 11 11 11 11 11 11 12 13 14 15 16 17 17 18 18 18 18 18 18 19 19 20 20 20 22 23 22 23 23 23 23 22
19 18 17 16 15 14 13 13 13 12 11 11 11 11 12 12 13 15 16 16 16 17 17 18 18 18 18 18 19 19 19 20 20 20 21 22 22 23 23 23 23 23
19 18 17 16 16 15 14 14 13 12 12 12 12 13 13 14 15 15 16 16 16 17 17 18 19 19 19 19 19 20 20 20 20 20 21 21 22 23 23 23 23 23
19 19 17 16 15 15 15 14 13 12 12 12 13 13 14 15 16 16 16 17 17 17 18 18 19 19 19 19 19 20 20 21 20 21 22 22 21 22 23 24 24 24
19 18 18 16 16 15 15 14 13 12 13 13 14 14 15 15 16 16 17 17 18 18 19 19 19 20 20 19 20 21 21 22 21 21 22 22 22 22 22 23 25 25
18 18 17 16 16 15 14 14 13 13 13 13 14 15 15 16 16 17 17 18 18 19 19 20 19 19 20 20 21 22 22 23 22 22 23 23 23 23 23 24 25 26
19 18 17 16 16 15 14 13 13 13 13 14 15 15 15 16 16 17 18 18 20 20 20 20 20 20 21 21 21 23 24 24 24 24 24 24 24 24 24 25 26 27
19 18 17 16 15 14 13 13 13 13 13 14 15 15 16 17 17 17 18 19 20 20 20 20 20 21 21 22 22 23 24 25 25 25 25 25 26 25 25 25 26 28
18 18 16 15 15 14 13 13 13 13 14 14 15 15 16 17 17 17 18 19 20 20 21 21 21 22 23 23 23 23 24 26 26 26 26 26 27 27 27 27 27 28
18 17 16 14 14 13 13 13 12 13 13 14 14 15 16 16 17 18 19 20 20 21 22 22 22 23 24 24 24 24 25 26 26 27 27 27 27 28 28 29 29 28
17 16 15 14 13 12 12 12 12 13 13 14 14 14 15 17 17 19 20 20 21 22 23 23 23 24 24 24 24 24 24 25 25 26 27 27 28 29 29 29 29 30
15 15 14 13 12 11 11 12 13 13 13 13 14 15 15 17 18 19 20 20 22 23 23 24 24 24 23 24 24 24 24 25 25 25 26 26 27 28 29 29 29 30
13 13 12 11 11 11 12 12 13 13 13 13 14 15 16 17 17 18 18 20 21 23 24 25 25 24 24 24 26 27 27 28 29 30 30 29 29 28 28 28 29 29
13 12 11 11 11 12 12 12 12 13 13 14 14 15 16 16 16 16 17 19 21 23 24 25 26 26 26 27 28 29 30 31 32 32 32 31 31 30 30 29 30 30
13 11 11 11 11 12 12 12 13 13 13 14 15 15 15 16 16 16 17 19 21 23 24 26 27 26 27 28 29 30 31 32 33 33 32 32 31 31 31 31 31 31
11 11 10 10 10 11 11 12 12 12 13 14 15 15 15 15 15 16 18 20 22 24 25 26 27 27 28 29 30 32 31 32 33 33 32 32 32 32 32 33 33 33
10 9 8 9 10 11 12 12 12 13 14 14 15 15 15 14 15 16 19 21 23 25 26 27 27 28 29 30 31 33 34 35 36 35 33 32 33 33 34 34 35 34
7 7 7 8 10 11 11 12 12 14 15 14 15 16 13 12 15 17 19 21 24 26 27 28 28 28 30 31 33 34 35 36 38 37 36 35 34 34 34 35 36 36
5 6 7 9 10 11 11 11 12 14 14 14 15 15 13 14 16 18 19 22 25 27 28 29 29 29 30 31 32 33 34 35 36 35 36 36 35 34 34 35 36 38
5 6 8 10 10 10 11 11 12 13 14 14 15 14 13 15 17 19 20 23 26 27 28 29 29 28 29 31 32 33 34 35 35 34 35 35 36 35 35 35 36 37
4 6 8 9 9 9 10 10 12 13 15 16 15 13 13 15 18 20 22 24 26 27 28 29 30 30 30 32 33 34 35 36 36 36 35 35 35 35 35 36 36 36
4 6 6 7 8 8 9 10 12 14 16 16 14 12 13 16 19 21 23 25 27 28 29 30 31 31 30 30 32 32 33 34 36 36 36 35 35 35 35 36 36 36
4 5 4 5 7 8 9 11 13 14 14 13 12 13 15 17 19 22 24 26 27 28 28 29 29 29 29 29 31 33 35 35 35 35 35 35 35 34 34 34 35 35

ECMWFNIL_925_spd_015.txt.gz
Wind_Speed
23 23 21 20 19 18 17 17 15 14 13 13 13 11 10 10 10 10 10 11 12 13 14 15 16 16 16 17 17 18 19 20 20 21 21 22 24 25 24 23 22 23
23 23 22 20 19 18 17 16 15 15 14 13 12 12 11 11 10 11 11 12 13 14 15 16 16 16 16 16 16 17 19 20 20 20 21 22 22 24 25 25 24 24
24 23 23 22 20 19 17 15 15 16 15 13 13 12 11 11 11 11 12 12 13 14 14 15 16 16 16 16 16 17 18 19 20 20 21 22 22 23 24 24 24 24
26 24 23 22 20 19 18 17 17 17 16 15 13 12 11 10 10 10 11 12 13 14 14 15 16 16 17 16 16 17 18 19 19 19 19 21 22 23 24 24 24 24
26 25 23 22 20 19 19 19 18 18 16 15 12 10 10 10 10 11 12 13 14 14 14 14 15 16 16 17 17 18 19 20 20 19 20 22 23 24 24 24 24 25
26 25 24 23 22 20 20 19 18 18 16 13 11 10 11 11 12 12 13 13 14 14 15 15 16 16 16 17 18 19 20 20 21 20 20 22 23 23 23 24 24 24
27 26 25 24 23 22 21 19 18 16 14 12 11 11 12 12 12 13 13 14 14 15 16 16 16 16 17 17 18 19 20 20 21 21 22 22 23 23 23 24 24 24
27 26 25 24 23 23 21 20 17 15 13 12 12 12 12 12 13 13 14 14 15 16 16 16 17 17 18 18 18 18 20 21 22 22 23 23 24 24 23 24 25 26
26 25 24 24 23 22 20 19 17 15 13 12 12 12 12 13 13 14 14 14 15 16 16 17 18 19 19 18 18 18 19 21 22 23 24 25 25 25 25 24 25 26
26 25 24 23 22 21 19 18 16 14 13 12 12 12 12 13 14 14 14 15 16 17 18 19 20 20 19 18 18 18 20 22 23 23 24 24 25 25 25 25 25 25
26 25 24 24 22 20 18 16 15 13 12 12 12 13 13 14 14 15 15 16 16 17 18 18 19 19 19 19 19 19 21 23 24 25 25 25 25 25 25 25 25 25
26 25 24 23 22 20 18 16 14 12 12 12 13 13 14 14 15 15 15 15 15 16 18 19 20 20 21 22 22 22 23 24 24 25 26 26 27 27 27 26 25 25
27 25 24 22 21 19 17 15 14 13 13 13 13 14 14 14 14 14 14 14 16 18 19 18 18 18 20 21 23 24 24 25 25 25 25 25 25 26 25 25 25 24
27 25 23 21 19 18 16 15 14 13 13 13 13 13 14 13 13 14 15 16 17 16 14 15 16 17 18 19 20 22 23 23 24 24 24 24 24 25 26 27 27 27
26 24 22 21 18 17 15 15 14 13 13 13 14 14 13 13 14 14 15 14 13 13 14 16 18 20 21 21 22 23 24 26 26 25 25 25 25 28 29 31 31 31
25 23 22 20 18 16 15 14 13 13 14 14 14 13 12 13 13 12 12 12 12 14 16 18 20 22 23 25 26 26 27 28 28 28 27 26 26 27 28 30 31 32
24 23 21 19 18 16 14 13 13 14 14 13 12 11 10 10 10 10 11 12 14 16 18 20 22 23 25 27 28 28 29 31 31 31 29 28 28 27 28 29 30 31
23 22 20 18 16 14 13 13 13 13 13 12 10 8 9 10 10 11 13 14 15 17 19 21 22 24 26 27 27 27 28 29 31 32 32 31 30 30 30 30 30 31
20 19 18 16 14 13 12 12 12 12 11 10 8 9 11 11 12 13 13 14 15 18 20 21 23 25 27 27 27 27 27 28 30 32 33 33 32 31 31 31 31 31
18 16 15 13 11 11 10 9 9 9 8 8 9 11 12 11 11 11 12 14 16 18 20 22 24 26 26 26 26 27 27 28 29 31 32 32 32 32 31 31 31 31
17 15 13 11 9 8 7 7 7 6 6 7 9 9 9 8 9 11 13 15 18 19 22 24 25 25 24 24 25 25 26 27 29 30 31 32 32 32 32 33 33 32
16 13 10 8 7 7 6 5 3 3 4 6 6 6 6 8 10 12 15 17 19 20 22 23 24 24 23 24 26 27 29 30 31 31 31 31 32 32 33 34 34 34
13 9 7 6 4 3 1 1 2 3 5 7 7 6 7 9 12 14 16 18 20 21 22 23 24 25 26 27 28 29 29 30 30 29 29 29 31 31 32 34 34 34
11 8 6 4 3 4 4 4 5 6 9 10 9 7 8 11 13 16 18 19 21 22 23 24 26 27 27 28 27 27 27 27 28 27 27 28 30 31 32 33 34 35
10 7 5 5 5 5 4 4 7 9 9 8 6 7 9 12 15 18 21 23 24 25 26 27 28 28 28 28 28 27 27 27 28 28 28 30 31 32 33 33 33 34
9 8 7 5 4 3 4 6 7 7 5 4 5 7 11 14 17 21 24 25 26 27 27 28 28 29 29 28 28 28 29 30 31 30 30 31 31 32 32 32 32 32

ECMWFNIL_925_spd_018.txt.gz
Wind_Speed
27 26 24 24 24 22 20 21 20 17 15 14 13 12 11 9 9 8 7 7 8 8 9 9 10 11 12 12 14 15 16 16 16 16 17 18 18 17 18 18 19 19
28 27 25 25 25 23 22 22 21 19 17 16 15 14 13 12 11 11 10 10 10 10 9 10 10 10 10 11 12 13 15 16 16 17 17 18 18 18 18 19 19 20
28 27 27 26 26 24 23 22 21 21 19 17 17 17 16 14 13 12 11 11 10 10 10 10 10 9 9 10 12 13 14 16 17 17 19 19 19 19 19 20 20 21
29 29 28 27 26 25 23 22 22 21 20 18 18 18 17 15 13 12 11 10 10 9 9 9 9 9 9 10 12 13 14 15 16 17 19 20 20 21 21 21 22 22
30 30 29 28 27 25 24 23 23 22 21 20 19 17 16 14 12 11 10 9 9 9 9 9 9 9 10 11 12 13 14 15 16 16 18 19 19 20 21 22 23 23
31 30 29 28 27 25 24 24 23 22 21 21 19 17 14 12 11 10 9 9 9 9 9 9 10 10 11 11 11 13 14 14 15 15 17 19 20 21 21 22 24 24
31 30 29 28 27 25 25 24 23 22 21 20 18 15 13 11 10 10 10 9 9 9 9 10 10 10 10 11 12 14 14 14 14 14 16 18 20 21 21 22 23 24
32 30 29 28 27 26 24 23 22 21 20 19 17 14 12 11 10 10 9 9 9 9 9 9 10 11 11 13 14 15 15 14 13 14 15 17 19 21 21 21 22 23
32 31 29 28 27 26 25 23 21 20 19 17 15 12 11 11 10 10 9 9 9 9 9 10 11 12 13 14 14 15 15 15 15 16 17 19 20 20 21 21 21 22
33 31 30 29 28 27 25 23 21 19 18 16 14 12 11 11 10 9 9 9 10 10 10 10 10 11 11 12 12 13 15 16 17 19 20 20 21 21 21 21 21 22
34 32 31 30 30 28 26 24 21 19 17 15 13 12 11 10 10 10 10 10 9 9 9 9 10 10 10 10 10 10 12 14 15 17 18 19 20 20 21 21 21 21
35 33 32 31 30 28 26 23 21 19 17 15 13 12 11 10 10 10 10 10 9 9 10 10 11 11 10 10 10 10 12 13 14 16 17 18 18 18 18 19 19 19
35 34 33 31 29 27 24 22 20 19 17 14 13 11 10 10 10 10 10 9 10 11 12 13 13 12 12 12 13 15 17 18 20 21 22 22 22 20 19 19 19 20
34 33 31 29 27 24 22 21 19 18 16 13 12 11 11 11 11 10 10 10 12 14 14 14 14 13 14 15 17 20 21 23 24 25 26 26 25 25 24 23 23 22
32 30 29 27 25 23 22 21 19 17 15 13 12 12 12 11 11 10 11 13 14 15 15 14 14 15 16 18 20 22 23 24 25 26 26 26 25 25 25 25 25 25
29 28 27 25 24 23 22 20 18 16 14 13 13 12 12 11 11 11 12 14 14 14 14 14 15 17 19 21 22 23 24 24 25 24 24 24 25 25 25 26 25 25
27 26 25 25 24 22 21 18 16 14 14 13 13 12 12 11 11 11 12 13 13 13 13 14 16 18 21 23 24 24 24 24 24 24 24 24 25 26 26 26 26 25
27 26 25 24 23 21 19 16 15 14 13 13 13 12 11 10 10 11 11 11 11 11 12 15 17 20 22 23 23 23 23 23 23 23 24 25 25 25 26 26 26 26
27 27 25 24 22 19 17 15 14 13 12 13 12 11 9 9 9 9 9 8 8 11 13 16 18 20 21 22 22 22 21 21 22 23 25 26 26 26 26 27 27 27
29 28 26 23 20 17 15 13 12 12 12 11 10 8 8 8 7 6 5 7 9 12 15 17 18 20 21 21 22 22 22 23 24 25 27 28 28 28 28 28 28 28
29 28 25 22 19 16 13 12 11 11 9 8 6 5 5 5 4 4 5 8 11 13 15 17 19 21 23 23 24 24 24 25 26 27 27 28 28 27 27 27 27 27
26 25 23 20 17 14 12 10 9 8 8 6 4 3 3 3 3 4 6 9 12 15 17 20 22 24 24 25 26 26 26 27 27 27 27 27 27 26 26 26 26 26
25 23 21 19 16 13 12 12 11 8 6 4 3 3 3 3 4 5 8 12 16 19 21 23 25 27 27 26 27 27 28 29 28 28 27 27 27 27 27 27 27 27
25 23 20 18 16 15 14 11 8 5 4 2 1 2 3 4 6 9 11 15 18 21 22 24 27 29 28 28 28 27 28 29 29 29 28 28 28 28 29 29 29 29
23 21 20 18 15 13 10 7 4 3 1 1 3 4 5 6 10 13 14 16 18 20 22 25 28 30 29 29 28 28 27 28 29 29 28 28 28 29 30 29 29 29
24 21 19 17 13 10 6 4 2 0 2 4 6 7 6 7 12 15 15 16 17 19 22 25 28 30 29 28 28 27 27 27 27 27 27 28 29 29 30 30 30 30

ECMWFNIL_925_spd_021.txt.gz
Wind_Speed
25 24 23 22 21 21 20 18 16 14 13 12 11 9 8 7 7 8 7 5 4 5 6 8 9 9 9 8 9 10 11 12 12 12 12 12 12 12 12 12 12 12
27 26 25 23 23 23 22 20 18 16 15 14 12 10 9 9 9 8 7 6 6 7 8 9 9 9 8 8 9 10 11 12 13 13 13 12 12 12 12 12 12 13
28 27 27 25 25 25 23 22 21 18 17 15 13 11 11 11 10 8 8 7 8 9 9 9 9 9 8 8 9 11 12 12 13 13 13 13 13 13 13 13 13 13
31 29 28 27 27 26 24 24 23 21 19 18 15 13 13 12 11 10 10 9 10 9 9 10 10 10 9 9 11 12 12 13 13 13 13 13 13 14 14 14 14 14
33 30 29 29 29 28 26 25 25 23 21 20 17 16 15 15 14 13 12 10 9 8 9 9 9 9 10 11 12 13 14 15 15 14 14 13 13 14 15 16 16 15
35 32 31 30 30 29 28 27 26 25 23 21 20 19 18 17 16 14 12 10 8 8 8 8 8 8 10 11 12 13 15 16 16 15 15 15 15 16 16 17 18 17
36 34 32 31 31 30 29 28 27 26 24 22 21 21 19 18 16 13 11 9 7 7 7 7 7 8 10 11 12 14 15 15 15 15 16 17 18 19 19 19 19 18
37 36 34 33 32 32 31 29 28 26 24 23 22 21 20 18 15 12 10 8 7 7 6 6 7 9 9 10 11 13 13 13 13 14 16 17 18 19 20 20 20 21
37 36 36 35 35 34 33 31 29 26 24 23 23 22 20 18 14 11 9 8 7 6 6 7 8 8 8 9 10 12 13 12 12 13 14 15 16 17 18 18 19 21
37 37 37 37 37 36 35 32 30 27 25 23 23 22 20 16 13 11 10 8 7 7 7 8 8 8 8 10 11 13 14 13 13 13 14 15 16 18 19 19 20 20
37 38 38 39 39 37 35 33 29 26 24 24 23 22 19 15 13 12 10 9 8 8 8 9 9 9 10 11 12 13 13 13 13 14 15 17 19 20 22 23 23 23
38 38 39 40 39 37 34 31 28 25 24 24 23 21 17 15 13 11 10 9 9 9 9 10 10 10 11 12 13 13 13 14 15 16 18 19 21 23 24 25 25 25
39 39 39 39 37 35 32 29 27 25 24 23 22 19 16 15 13 11 10 10 10 10 10 10 10 10 11 12 13 13 14 15 17 18 20 21 23 24 24 24 24 23
40 39 38 37 35 32 30 28 26 25 24 22 20 18 16 14 12 11 11 10 10 10 10 9 10 10 11 12 12 14 15 17 19 20 22 23 24 24 23 23 22 22
40 39 37 34 33 31 29 28 26 24 23 21 19 17 15 13 12 12 11 11 10 10 9 9 9 9 10 11 12 14 17 18 20 22 23 24 24 24 24 23 23 23
27 29 33 33 32 31 29 28 26 23 22 20 19 17 15 14 13 12 11 11 10 9 8 7 7 8 8 11 13 15 18 19 21 22 23 24 25 25 25 24 24 24
21 21 27 30 31 31 29 27 25 23 22 20 18 16 15 14 13 12 11 10 8 7 6 5 6 8 10 13 16 18 19 21 22 23 24 24 24 25 25 25 25 26
23 22 25 27 29 30 29 27 26 24 22 20 18 17 15 14 13 12 10 9 7 6 5 5 7 10 13 16 18 19 20 21 22 24 24 25 25 26 27 27 27 27
25 25 27 28 29 30 29 28 27 25 22 19 18 16 15 14 13 11 10 8 6 4 4 6 9 12 14 17 19 20 20 20 22 24 25 26 27 27 28 28 28 28
26 27 29 30 29 29 29 28 26 23 21 19 17 16 15 14 13 11 9 6 4 3 5 8 10 12 16 19 22 23 23 22 23 25 26 28 28 28 28 28 28 28
28 29 29 25 22 22 24 24 22 20 18 16 15 15 14 13 11 9 7 3 2 4 7 9 11 14 18 22 25 25 25 24 25 26 27 28 29 29 29 29 28 28
30 30 28 25 23 23 23 22 20 18 16 16 15 14 12 10 8 6 3 1 3 6 9 10 12 15 19 24 27 27 26 26 27 27 28 28 29 29 29 30 29 29
30 30 29 29 30 28 24 21 20 19 17 15 14 12 10 8 5 3 1 3 5 7 9 11 13 16 20 25 28 28 26 26 27 28 28 28 29 29 29 30 30 29
30 32 32 32 30 27 24 21 20 19 16 13 11 10 8 6 4 2 4 6 8 8 9 11 14 17 22 26 29 29 27 26 27 28 28 28 29 29 29 29 29 28
31 32 31 29 27 26 25 22 19 17 14 11 9 8 7 5 3 3 5 7 9 10 10 12 15 19 24 28 30 30 27 27 28 28 28 28 29 28 28 27 27 27
35 33 30 28 27 26 23 19 17 15 13 10 8 6 5 4 1 3 6 8 10 11 11 13 16 21 26 29 31 30 28 27 27 28 28 28 28 28 28 29 29 29

ECMWFNIL_925_spd_024.txt.gz
Wind_Speed
27 25 23 22 21 20 19 17 16 15 14 13 11 9 9 10 9 7 6 5 4 2 0 2 4 4 4 5 6 8 10 10 11 11 10 10 10 10 11 10 10 10
29 27 25 24 23 22 21 19 18 17 15 14 12 10 10 10 10 9 8 7 6 4 1 1 2 3 3 3 5 7 8 9 9 9 9 10 10 10 11 12 12 12
30 29 27 26 25 24 22 21 20 19 17 15 14 13 12 12 11 10 10 9 7 5 3 2 2 1 1 2 4 5 6 8 8 8 8 8 9 10 11 12 12 12
32 31 30 29 27 25 24 22 22 21 20 19 17 15 14 14 13 12 12 11 9 7 5 3 2 1 1 1 3 4 5 6 7 7 7 7 8 9 10 11 12 12
33 32 31 30 29 27 26 25 24 23 22 21 19 18 17 16 15 15 14 12 10 8 6 4 2 2 2 2 2 3 4 5 5 5 5 6 7 8 9 10 11 11
34 33 32 32 30 29 28 28 27 25 24 23 21 20 19 18 17 16 15 13 11 9 7 5 3 3 2 1 1 2 3 4 4 4 4 4 5 7 9 10 11 12
35 35 34 33 32 31 31 30 29 28 27 25 23 22 21 20 19 17 16 14 12 10 8 6 4 3 2 1 1 2 4 5 5 6 6 6 7 8 9 11 12 13
36 36 36 35 34 33 33 32 31 30 29 27 25 24 22 21 20 18 16 15 13 11 8 6 5 3 2 2 3 4 6 7 7 7 7 7 8 9 10 11 13 15
36 36 36 35 36 36 36 35 34 32 31 29 26 24 23 21 20 19 17 15 13 11 8 6 5 4 3 4 5 6 7 8 8 8 7 7 8 9 11 13 15 17
36 37 36 36 36 38 38 37 35 34 32 30 27 24 23 22 20 18 17 15 13 11 9 7 6 5 5 6 6 7 8 8 8 7 7 8 9 11 12 14 16 18
35 36 36 37 38 39 39 39 37 35 32 29 26 24 23 22 20 19 17 15 13 11 9 8 6 6 6 7 7 8 9 8 7 8 9 10 11 13 14 15 17 18
34 35 36 38 39 39 39 39 37 35 32 29 27 25 23 22 21 19 17 15 13 11 9 8 7 7 7 7 7 7 7 7 8 9 11 12 14 15 16 17 18 19
31 32 33 34 35 36 37 38 38 37 33 30 28 25 24 23 22 19 17 15 13 11 10 9 8 8 7 6 5 6 6 8 9 11 13 15 16 17 18 19 20 20
26 27 28 29 30 31 32 34 35 34 33 31 29 26 25 24 22 19 17 15 13 11 10 9 9 8 6 5 4 5 7 9 11 14 16 18 19 20 20 21 21 21
25 26 25 26 27 29 30 30 29 28 29 28 27 25 24 23 21 19 17 15 13 11 11 10 9 7 5 4 4 6 8 11 13 15 18 20 21 22 23 23 23 22
24 24 24 25 27 29 31 30 28 28 27 26 25 25 24 22 19 17 16 14 14 13 12 11 9 7 5 4 5 7 10 12 15 17 18 20 22 23 24 24 24 23
23 23 23 25 26 28 29 28 27 28 29 29 28 26 24 21 18 17 16 15 14 14 13 11 9 6 4 4 6 8 11 14 16 18 19 20 21 22 24 25 24 24
22 23 24 25 25 26 27 27 26 28 30 31 30 27 25 22 19 17 17 16 16 15 13 10 7 5 4 5 7 10 13 16 18 19 21 21 22 23 23 24 25 26
21 23 24 25 24 24 25 25 26 29 31 31 30 28 26 23 20 18 18 17 16 14 12 8 5 4 5 6 9 11 14 18 21 22 22 23 23 23 24 24 25 26
20 22 24 24 23 23 23 25 28 31 32 30 29 27 25 23 21 19 18 17 15 12 9 6 4 4 5 7 10 13 17 20 23 24 24 24 24 24 25 25 26 26
20 22 23 23 22 22 24 27 29 31 31 30 28 26 23 21 21 20 18 15 12 9 6 4 3 4 6 9 12 16 20 23 26 26 26 25 25 25 25 26 25 25
21 22 22 22 22 23 26 28 31 32 31 30 27 23 21 20 20 20 17 13 9 6 3 2 3 5 7 10 14 18 22 26 28 28 27 26 27 27 26 26 25 25
22 22 23 23 24 25 28 31 33 33 31 29 27 24 23 22 20 18 14 9 6 3 2 2 4 5 8 11 14 19 24 27 28 28 27 28 28 27 27 26 25 24
22 23 24 24 25 26 29 32 34 34 32 29 27 26 24 22 18 14 10 6 3 2 1 3 4 6 9 12 15 20 25 27 28 27 27 28 29 28 27 25 24 24
22 23 25 25 25 25 25 24 25 28 30 28 27 26 23 19 15 11 8 5 3 1 2 3 6 8 10 12 15 21 25 27 27 27 27 28 28 27 26 24 23 24
21 23 25 26 27 28 26 23 21 23 24 24 23 22 19 16 12 8 6 4 2 1 3 5 8 10 11 13 16 21 25 27 26 27 28 28 26 26 26 25 24 24

ECMWFNIL_925_spd_027.txt.gz
Wind_Speed
25 24 23 23 21 20 19 17 17 16 16 15 15 15 15 14 13 11 9 8 7 6 5 5 6 6 6 7 7 8 9 9 9 9 9 9 9 9 9 9 8 6
26 25 24 24 23 21 20 19 17 17 17 15 14 14 14 15 13 12 11 9 8 7 5 4 5 5 5 6 6 7 8 8 8 8 7 8 8 8 8 8 7 6
27 26 26 25 25 22 20 19 19 18 17 17 15 14 15 15 15 13 12 10 9 7 5 4 3 3 4 5 5 6 7 7 7 7 6 6 6 6 7 7 7 7
27 27 27 26 25 24 22 21 21 20 19 19 17 16 16 16 15 14 13 11 10 8 6 5 3 3 3 3 4 5 6 5 5 5 5 5 5 5 5 6 6 6
28 28 28 27 26 25 23 23 23 22 21 21 20 18 18 17 16 15 14 13 12 10 8 6 4 4 3 3 3 4 4 4 4 3 4 4 3 3 4 5 5 6
29 29 29 29 28 27 26 25 25 24 23 23 22 21 20 19 18 17 16 15 14 12 10 8 6 5 5 4 3 3 3 3 3 2 2 2 2 3 3 4 4 5
29 30 30 30 30 29 29 28 27 27 26 24 23 22 22 21 20 18 17 16 15 13 11 9 8 7 6 5 4 2 2 2 2 2 1 1 2 2 3 4 5 6
31 31 31 31 30 30 31 31 30 29 28 26 24 23 23 22 21 20 18 17 16 15 13 11 9 8 7 6 4 3 2 0 1 1 1 1 1 1 3 4 5 6
31 32 32 32 31 32 32 32 32 31 30 29 27 25 23 23 22 21 20 19 18 16 14 12 11 9 8 6 5 4 2 1 0 1 1 1 0 1 3 5 6 7
29 30 31 31 32 33 34 33 33 32 32 30 28 26 24 23 23 22 21 21 20 18 16 14 12 10 8 6 5 4 3 1 1 1 1 1 2 3 4 6 6 7
26 27 27 28 30 32 33 33 32 32 32 32 31 29 26 24 23 24 23 23 21 20 17 14 12 10 7 6 5 5 3 2 2 2 2 3 4 5 7 8 8 9
23 24 24 26 28 30 31 31 30 30 30 29 26 23 23 24 24 25 25 24 23 20 17 14 11 9 7 7 7 5 4 3 3 3 4 5 7 7 8 10 11 12
22 23 24 25 26 27 29 29 29 29 27 26 22 20 21 23 24 26 26 25 24 20 16 14 11 10 9 9 7 6 5 5 5 5 6 8 9 10 12 13 15 15
19 20 23 26 27 26 26 27 29 29 27 25 25 26 25 25 26 28 28 27 24 20 16 14 12 11 11 10 9 7 6 5 5 6 7 9 11 13 14 16 17 18
12 14 17 20 23 24 24 25 26 27 27 25 24 25 26 26 29 31 31 29 26 22 19 17 15 14 13 12 10 8 6 5 5 7 8 10 11 13 15 17 18 18
10 11 12 14 17 20 22 23 24 25 25 24 24 24 26 28 31 32 32 31 28 25 22 20 19 17 14 12 9 7 4 3 5 7 9 11 13 14 15 16 17 17
12 12 11 12 14 16 19 21 21 22 23 23 24 25 27 30 32 33 31 29 26 25 23 22 20 17 14 11 8 5 3 2 5 8 10 12 13 14 15 16 16 16
14 13 12 13 13 14 17 20 20 20 21 23 24 26 28 31 32 32 30 26 24 23 22 21 19 16 13 10 6 4 2 3 6 9 11 12 13 14 15 15 15 15
15 15 14 14 14 13 15 18 20 19 20 22 24 26 29 31 31 31 28 25 24 22 21 19 17 14 11 8 5 2 2 4 7 10 12 13 14 15 14 14 15 15
15 15 15 15 14 12 12 16 19 20 20 23 25 26 29 30 30 29 26 25 23 22 20 17 15 12 9 6 3 1 4 6 9 13 15 15 16 16 15 15 15 15
16 16 16 15 14 12 12 14 18 20 21 23 25 27 29 31 30 28 26 24 23 21 18 15 12 9 6 3 1 3 6 9 12 16 16 15 16 16 15 15 16 15
16 16 17 15 13 13 13 14 17 20 22 23 25 26 28 29 28 27 27 25 23 19 16 13 9 5 3 1 2 5 8 10 13 14 13 13 15 15 16 16 15 15
17 17 18 17 14 14 14 15 18 21 22 24 26 27 29 29 28 28 26 24 20 16 13 10 7 4 2 1 4 7 9 11 12 12 12 13 14 15 16 15 14 14
18 17 18 17 15 15 15 16 18 21 22 24 28 30 30 29 28 25 21 18 15 12 10 7 6 3 0 3 5 8 11 12 12 12 13 14 15 15 15 15 15 16
19 19 19 17 16 16 17 18 19 20 21 22 24 27 29 27 25 22 18 14 12 10 8 6 4 2 2 5 7 9 12 13 12 13 15 16 16 17 17 16 17 18
20 21 20 17 16 18 19 20 20 21 22 23 25 26 27 25 22 20 17 13 10 8 6 4 3 2 4 6 8 10 12 14 14 14 16 18 17 18 19 20 20 21

ECMWFNIL_925_spd_030.txt.gz
Wind_Speed
14 13 13 13 12 11 11 11 10 10 10 9 9 10 10 10 11 11 9 9 8 7 7 6 5 5 5 5 4 5 5 5 5 5 5 5 5 5 5 5 4 4
14 13 13 13 13 12 12 12 11 11 11 10 10 9 10 11 11 11 10 10 9 8 8 7 6 6 5 5 4 4 4 5 5 5 5 5 5 5 5 4 4 4
17 16 15 14 13 14 14 14 13 12 11 11 11 10 10 11 12 11 10 10 9 9 9 8 7 7 6 6 5 5 5 5 5 5 5 4 4 4 4 4 4 3
19 19 17 16 15 14 14 14 14 13 12 12 12 11 11 11 12 12 11 11 10 9 9 8 8 7 7 6 6 5 5 5 5 5 5 4 4 3 3 3 3 3
19 19 18 17 16 14 14 14 15 15 14 14 14 14 13 13 13 13 12 12 11 10 10 9 9 8 8 7 6 5 5 5 5 5 4 4 4 3 2 2 2 2
16 17 18 17 16 15 15 15 15 15 15 15 15 15 15 15 15 15 14 14 13 12 11 11 10 9 8 8 7 6 6 5 5 5 5 4 4 3 3 2 2 1
16 16 15 15 14 15 15 15 15 15 15 15 15 16 16 17 17 16 16 16 15 14 13 12 11 10 9 8 8 7 7 6 6 6 5 5 4 4 4 2 1 1
16 16 15 15 15 15 16 16 15 15 15 15 16 16 17 18 18 18 18 17 16 16 15 13 12 12 11 10 9 9 8 8 7 7 6 6 5 4 4 2 2 2
14 14 15 15 16 17 17 17 16 15 15 15 16 16 16 18 19 19 20 19 18 17 16 15 14 13 12 11 11 11 10 9 8 8 7 7 6 4 3 2 2 3
12 12 13 14 16 17 17 16 16 16 15 16 16 15 16 18 19 20 21 21 20 18 17 17 16 15 14 13 12 12 11 10 9 8 8 7 6 5 3 3 3 4
11 10 11 13 15 16 16 15 15 15 15 15 15 16 17 18 18 19 19 19 20 19 19 19 18 17 16 15 14 13 12 11 10 9 8 7 6 5 4 4 4 4
9 9 10 11 13 14 14 15 16 16 15 15 15 17 18 16 15 16 17 19 20 21 21 21 20 19 18 16 15 14 13 12 11 10 8 7 6 5 5 4 4 5
5 7 8 10 13 13 13 14 15 15 16 16 16 18 18 18 19 21 22 23 23 23 23 23 21 20 19 18 17 15 14 13 11 10 9 7 6 5 5 5 6 7
4 5 6 8 11 13 14 15 14 15 17 17 18 19 19 20 22 25 25 25 24 23 22 22 21 20 19 18 17 16 14 12 11 9 8 6 5 5 5 6 7 8
5 5 6 6 8 10 11 12 13 15 16 16 18 19 19 20 22 23 25 26 24 23 21 20 19 18 18 18 17 15 14 12 10 8 7 5 4 4 5 7 8 9
6 6 7 7 8 8 8 9 11 12 13 15 17 17 18 19 19 20 22 22 21 21 20 18 16 17 18 19 17 14 12 10 9 7 6 4 4 5 6 7 9 10
7 7 8 8 8 9 8 8 9 10 12 15 15 15 17 17 17 18 19 19 19 20 19 17 17 19 21 21 19 15 12 9 8 7 5 4 4 5 6 8 9 10
8 8 8 9 9 9 9 9 9 10 12 13 14 15 16 16 17 18 19 20 20 20 20 21 21 21 21 20 18 15 12 8 6 5 4 4 4 5 7 8 9 10
10 9 9 9 9 9 9 10 10 11 12 12 14 15 16 16 17 18 20 22 21 19 20 22 22 21 20 18 15 13 11 7 4 3 3 4 4 5 7 8 9 11
10 10 10 10 10 10 10 10 11 12 12 12 13 14 15 16 17 18 20 20 20 20 21 23 22 20 18 16 13 10 7 5 4 3 3 4 5 6 8 9 10 11
10 10 11 11 11 11 11 11 11 11 12 12 13 14 16 16 17 19 19 19 21 23 24 24 22 18 15 12 10 6 3 3 4 3 4 5 6 7 8 9 10 11
11 11 11 11 12 11 12 12 11 12 12 12 13 14 15 15 16 17 19 22 24 26 26 25 20 16 12 9 6 3 1 2 3 4 5 5 6 8 8 9 10 10
12 12 12 12 12 13 13 13 11 11 11 11 13 15 14 14 15 18 21 25 27 27 27 25 19 14 10 7 4 3 2 1 4 5 5 6 8 8 9 10 10 11
13 13 13 13 14 14 13 12 12 12 11 11 13 14 13 14 17 21 24 26 27 26 23 20 17 12 9 6 4 3 3 2 5 6 6 8 9 9 10 11 11 14
14 14 14 15 15 14 14 13 12 10 8 8 10 13 15 17 22 26 27 25 23 21 18 16 15 12 8 6 4 3 3 3 5 7 8 9 10 11 12 12 13 15
15 15 16 16 15 15 14 11 7 8 9 10 12 15 19 24 28 29 27 23 20 18 16 14 13 10 7 5 3 2 4 5 6 8 9 10 11 13 14 15 15 15

ECMWFNIL_925_spd_036.txt.gz
Wind_Speed
19 18 17 16 16 16 15 14 13 12 10 10 10 10 9 9 8 8 7 6 6 5 5 5 5 6 6 7 8 6 6 7 7 7 7 8 9 9 8 8 8 8
19 18 17 16 14 15 15 13 13 13 12 9 10 10 10 10 10 9 9 8 7 7 6 6 5 5 5 5 6 5 5 6 6 6 7 7 7 7 8 8 8 8
19 18 17 16 14 14 16 14 12 12 12 11 10 10 11 12 11 11 11 10 9 9 8 8 7 6 6 5 6 5 5 5 6 5 5 5 5 5 6 5 6 7
18 17 16 16 14 13 14 14 12 11 12 12 11 10 11 13 12 12 12 12 11 11 11 10 9 8 8 6 6 6 6 5 6 6 5 5 5 5 5 4 5 6
16 15 13 13 13 11 12 13 13 11 11 12 12 11 11 12 13 13 13 13 13 13 12 12 11 10 10 9 7 7 7 6 7 7 6 6 6 5 4 4 4 4
15 14 13 12 11 10 10 11 11 11 10 11 12 12 12 12 14 14 14 15 15 15 14 13 13 12 12 11 10 10 9 8 9 8 7 8 7 5 5 4 3 3
13 12 11 11 11 10 10 10 10 10 11 10 11 12 12 13 13 14 15 16 16 16 15 14 14 13 13 12 11 11 10 10 10 9 8 8 8 7 6 5 4 3
12 10 9 8 9 9 9 10 11 11 11 11 12 13 13 13 14 15 16 17 17 16 16 15 15 14 14 14 13 12 11 11 11 11 10 9 10 9 7 7 7 4
12 12 10 8 9 10 8 8 10 12 12 12 13 14 15 15 16 17 18 19 19 18 17 16 15 15 15 14 13 13 12 12 11 11 10 10 11 10 8 9 9 6
10 12 12 11 12 13 11 9 11 14 14 13 13 15 17 16 16 17 20 20 20 19 18 17 16 15 15 15 14 13 12 12 12 11 10 11 11 10 9 10 10 8
9 9 11 12 12 12 13 13 17 20 20 18 18 20 22 21 20 20 22 23 23 21 19 18 17 16 15 15 14 13 12 12 11 10 10 11 11 10 10 10 9 9
9 9 11 14 12 11 12 15 19 22 20 18 21 26 29 29 28 26 24 21 19 18 19 19 19 19 19 18 17 15 14 13 12 11 10 10 10 10 10 9 8 8
9 8 10 12 13 13 13 15 18 18 15 14 19 25 30 31 28 26 21 16 14 16 21 20 18 18 18 15 16 17 16 15 14 13 11 10 10 10 9 8 8 7
6 5 4 5 8 10 13 15 16 15 14 15 18 23 28 28 24 21 19 18 19 22 24 22 18 15 14 14 14 16 17 18 18 16 14 12 11 9 8 8 8 8
3 3 2 2 4 7 10 11 12 13 14 16 20 23 25 24 22 20 19 20 23 24 25 24 21 17 17 19 18 15 15 17 19 18 17 15 12 10 9 9 9 8
2 3 3 4 5 7 9 9 10 12 13 15 18 20 20 20 19 20 21 21 21 22 24 24 23 21 21 23 23 19 16 15 17 18 17 15 13 12 11 10 10 9
3 3 4 5 6 7 8 9 10 12 13 15 16 15 16 17 15 15 19 20 19 19 22 21 20 21 21 22 23 21 18 17 17 17 17 14 12 12 12 10 10 9
4 4 5 5 6 7 7 8 10 11 12 13 14 14 14 14 14 13 15 17 17 17 19 20 20 21 21 20 22 21 18 16 16 16 17 15 12 11 11 9 8 8
5 5 6 6 7 7 7 8 9 10 12 12 13 13 14 14 13 13 13 14 14 14 15 16 19 22 21 19 20 20 17 16 16 16 16 15 11 10 9 9 7 6
5 6 7 8 7 8 8 8 9 10 11 12 13 13 13 12 13 13 13 13 13 12 11 13 17 18 16 15 16 16 16 17 17 16 16 14 11 10 9 8 7 7
6 7 7 8 8 9 9 9 10 11 11 11 12 13 13 12 12 13 14 13 12 11 11 13 13 12 11 13 15 16 17 17 16 15 14 12 9 8 7 7 8 9
7 7 7 8 9 9 10 10 11 12 11 11 12 13 13 13 12 12 12 11 10 11 12 12 11 12 13 15 17 18 17 14 13 13 11 8 6 5 6 7 8 9
7 8 8 8 9 9 10 11 11 11 12 11 12 12 13 13 13 10 9 9 9 11 13 13 14 14 14 15 16 16 15 11 9 8 6 4 4 4 4 6 8 10
8 9 9 9 9 10 10 11 10 11 11 11 12 12 11 10 8 7 7 8 10 12 13 15 15 14 13 14 13 13 12 8 5 3 2 1 2 3 5 7 9 10
9 9 10 10 10 11 11 11 12 12 12 12 12 10 6 4 6 9 10 10 10 11 13 15 17 15 14 13 12 10 9 8 6 3 1 1 3 4 5 7 8 9
9 9 10 10 10 11 11 11 12 12 13 13 9 4 5 8 9 10 11 11 11 13 15 17 18 17 14 13 11 9 7 6 5 4 2 1 2 3 5 7 8 10

ECMWFNIL_925_spd_039.txt.gz
Wind_Speed
25 25 25 22 20 21 20 20 20 20 18 17 16 15 14 12 12 12 12 10 8 8 9 9 10 11 10 9 7 6 7 8 9 9 9 10 10 11 12 11 8 7
24 23 23 22 20 19 19 18 18 18 17 17 15 14 14 12 11 12 11 10 8 7 7 7 9 11 11 8 6 4 5 8 9 9 8 9 10 11 11 10 7 6
23 22 21 21 20 19 18 16 17 16 15 15 15 14 14 12 11 11 11 10 8 7 7 6 8 10 9 7 6 4 5 7 8 7 6 6 7 9 10 9 7 5
21 21 19 19 19 19 16 14 16 17 14 13 14 14 14 13 12 11 11 10 9 8 7 6 7 8 7 6 6 6 5 6 7 6 6 5 5 6 7 7 7 5
18 18 17 16 15 17 17 14 14 16 15 13 13 13 14 13 12 11 11 11 10 9 9 8 7 7 7 7 7 7 6 6 7 6 5 6 6 4 4 7 8 4
16 16 17 17 14 15 18 17 14 14 14 13 12 12 12 13 12 11 11 11 11 11 10 10 9 8 9 8 8 8 8 8 8 7 6 7 7 4 3 4 6 5
16 15 15 16 14 13 17 19 16 14 12 12 12 13 12 12 12 12 11 11 12 12 12 11 11 10 10 10 10 9 9 9 9 8 8 9 8 6 5 4 4 5
14 14 13 13 12 11 13 16 15 14 12 10 11 12 13 13 13 12 12 12 12 13 13 13 14 13 12 12 12 11 10 10 11 10 10 11 11 9 8 7 5 5
11 11 9 10 12 9 8 12 14 15 15 13 11 9 10 11 12 12 12 13 13 14 14 15 16 15 14 14 14 13 13 12 12 12 12 12 13 13 11 10 9 7
13 14 10 10 13 13 12 12 14 16 17 17 15 12 11 10 9 9 10 13 14 15 16 17 18 18 17 16 16 16 16 15 15 14 13 12 12 13 13 12 13 11
14 17 16 14 15 18 17 15 14 15 15 15 16 15 14 12 10 8 7 8 11 14 16 17 17 17 19 20 19 19 19 18 18 17 16 14 13 13 13 13 14 14
11 15 16 15 15 17 18 17 16 15 14 13 13 14 14 13 13 14 13 10 10 12 14 15 13 12 16 20 21 21 19 19 20 20 20 18 15 14 14 12 13 13
11 12 13 14 14 15 16 16 16 16 16 16 15 15 15 15 16 18 19 19 18 17 17 17 15 14 15 16 18 19 19 20 22 23 22 20 18 17 15 13 12 13
8 8 7 9 11 13 14 15 15 15 16 16 16 16 16 16 18 19 20 20 20 20 20 19 18 19 18 16 15 17 20 20 22 24 24 21 19 19 17 15 15 14
7 6 4 3 5 7 9 10 11 11 12 13 14 15 15 16 17 18 18 19 19 19 20 20 19 20 21 19 17 18 20 19 18 21 25 24 21 20 18 17 16 14
5 6 5 4 4 4 5 8 10 10 10 10 10 11 12 13 14 15 16 17 18 19 20 21 20 21 21 22 22 20 21 20 17 18 24 27 24 22 20 17 15 14
2 3 3 3 4 4 5 6 8 9 10 11 11 12 12 12 11 12 13 14 15 17 19 20 21 20 20 21 22 20 18 20 19 19 22 26 24 22 21 18 16 14
3 2 1 3 3 3 4 4 5 6 7 8 10 12 14 15 15 13 11 12 12 13 15 16 18 19 19 20 20 17 15 16 17 17 21 24 23 22 21 18 16 14
5 4 4 5 5 5 5 6 6 7 7 8 7 7 8 11 15 15 12 11 11 11 11 12 14 17 19 20 18 15 15 14 12 14 21 23 21 20 19 17 16 15
3 4 4 5 6 6 7 8 8 9 9 10 10 10 9 8 8 12 14 12 11 10 10 11 14 16 17 18 17 15 15 14 11 15 19 19 18 18 17 15 15 14
3 3 4 4 5 7 8 8 9 10 10 11 11 11 11 11 9 8 11 12 12 12 12 13 15 14 14 14 12 11 12 11 13 16 17 15 15 14 13 11 10 8
5 5 4 4 4 6 7 7 8 9 11 12 12 11 11 11 10 9 8 12 13 14 14 14 12 10 9 8 8 10 12 13 14 16 15 13 12 11 9 6 4 4
5 5 5 4 5 6 7 7 8 8 9 9 10 11 11 10 9 8 6 10 13 14 14 12 9 8 7 8 9 11 13 13 14 14 13 11 8 6 4 1 3 4
6 7 7 7 7 7 7 6 7 7 7 7 8 10 9 8 7 6 6 8 10 11 11 10 10 11 11 11 12 12 13 13 13 12 10 8 5 4 3 1 3 4
8 8 8 9 9 10 10 10 9 9 9 10 11 9 7 6 7 7 7 7 8 9 10 10 11 14 14 14 14 13 13 13 13 11 10 9 8 7 6 4 3 3
10 9 9 9 8 9 8 8 8 7 7 9 9 7 6 6 7 7 8 9 9 10 11 11 12 15 15 14 13 12 11 11 11 10 10 9 9 8 7 4 0 2

ECMWFNIL_925_spd_042.txt.gz
Wind_Speed
28 27 25 25 27 26 25 23 22 22 20 19 18 16 16 16 15 14 12 11 11 11 11 9 7 6 5 5 5 6 8 8 9 8 8 9 8 8 9 8 7 7
28 26 25 25 26 25 23 23 21 20 18 17 16 15 16 16 16 14 12 11 10 11 11 10 8 6 5 4 3 4 6 7 8 8 7 9 8 7 7 7 6 6
28 26 24 24 24 23 22 23 21 18 17 16 15 15 14 15 15 14 11 10 9 9 10 11 10 8 6 4 1 2 4 5 6 6 7 7 7 6 6 5 6 6
28 26 24 22 22 21 21 23 22 20 19 17 17 15 14 14 14 13 11 9 8 8 9 10 12 10 7 4 3 2 2 2 3 4 3 4 6 6 5 4 5 6
25 25 24 21 20 20 21 22 23 22 21 20 18 17 16 16 15 14 13 11 10 8 8 9 10 11 9 6 5 4 4 3 3 3 2 2 4 3 3 4 3 5
23 23 24 21 19 21 23 22 22 23 22 21 20 19 18 17 16 15 14 12 11 10 9 9 9 10 10 9 8 7 7 6 5 5 5 4 3 2 2 4 3 4
21 20 22 21 20 23 24 22 22 23 21 20 21 21 20 19 17 16 14 13 12 11 10 11 10 10 10 10 10 10 9 9 8 8 7 6 5 4 3 3 3 3
22 21 20 20 22 25 25 22 22 23 22 19 18 19 20 21 19 17 16 14 13 13 12 12 11 11 11 12 12 12 12 12 11 11 10 9 9 8 6 4 4 4
22 21 19 19 19 20 20 19 17 19 20 17 17 21 23 23 21 19 18 17 16 15 14 14 13 13 13 14 14 14 14 14 13 13 12 12 12 12 10 8 7 6
21 21 21 20 18 17 17 16 13 13 16 15 16 22 24 24 23 21 20 19 18 17 17 17 16 16 16 17 16 16 15 15 15 15 15 15 14 14 13 12 10 9
20 19 19 20 19 18 17 18 16 15 17 16 14 15 19 20 19 19 20 21 21 21 20 20 19 19 19 19 19 18 18 17 17 17 17 16 16 15 15 15 14 12
16 16 16 16 16 15 14 17 19 19 18 17 14 13 14 15 14 14 16 18 19 20 21 22 22 23 23 22 22 22 21 19 19 19 18 18 18 17 16 16 16 14
14 15 15 15 14 15 14 15 19 19 17 16 16 16 15 14 15 15 15 16 16 15 16 17 19 21 21 21 23 24 24 23 22 21 21 20 20 19 18 17 17 16
11 10 10 11 12 13 14 15 17 18 18 16 16 17 16 15 16 16 17 17 17 16 16 16 16 17 17 18 19 20 23 25 25 24 23 22 22 22 21 19 18 18
7 7 6 7 8 9 11 12 13 14 14 14 14 15 15 15 15 16 17 17 16 17 17 17 18 18 18 18 18 18 20 23 25 24 24 23 23 24 23 21 20 19
7 7 7 7 6 6 6 7 7 8 8 9 10 11 12 13 14 14 15 14 14 14 15 16 17 17 18 18 18 17 18 19 21 22 22 21 22 25 26 23 22 22
6 8 9 9 8 7 6 6 7 7 9 9 10 11 12 13 14 14 14 13 11 11 12 13 14 14 15 15 15 15 16 16 18 19 19 18 19 22 26 25 23 23
4 4 4 3 3 2 1 1 1 2 3 4 5 6 7 9 10 12 13 14 14 13 11 9 9 10 10 11 11 12 12 13 15 17 19 19 17 19 24 26 25 24
2 2 2 3 3 3 3 4 4 4 4 4 4 4 5 5 5 6 9 12 15 15 11 8 8 8 8 9 9 8 8 9 11 13 16 18 17 17 22 26 25 23
0 1 1 2 2 2 3 3 4 4 5 5 6 6 6 6 6 6 6 7 11 13 12 9 8 8 8 9 8 6 6 8 10 11 13 15 15 16 20 23 22 20
2 2 2 3 4 4 4 4 4 4 4 5 7 7 7 7 7 7 6 6 9 12 12 11 10 9 9 9 7 6 5 6 8 10 12 13 13 15 17 18 17 15
2 2 2 3 4 4 4 4 4 5 5 6 6 6 6 7 8 8 8 8 8 11 12 12 11 10 8 8 6 4 3 4 6 8 10 12 13 14 15 15 13 10
5 5 4 3 3 3 3 3 4 4 4 4 4 4 5 6 7 7 8 8 8 10 12 12 10 7 5 5 4 2 3 7 9 11 13 13 13 12 12 12 11 9
7 7 7 6 6 5 5 5 4 4 5 5 5 6 6 6 7 7 7 6 7 8 10 10 8 5 3 2 2 3 6 9 12 13 14 13 12 11 10 10 10 9
9 10 10 9 9 8 6 5 3 3 4 5 5 6 6 6 6 6 5 5 5 7 8 8 7 5 4 5 6 7 8 10 11 12 13 13 12 11 10 8 8 7
10 10 11 10 9 7 4 2 1 2 4 5 5 5 6 6 6 5 5 5 6 7 8 8 7 7 7 7 8 9 9 9 10 11 12 13 11 10 10 9 7 6

ECMWFNIL_925_spd_045.txt.gz
Wind_Speed
26 25 24 22 20 20 19 18 17 16 15 14 13 12 13 13 11 10 8 7 6 5 5 4 5 6 7 7 6 7 7 7 6 6 6 7 8 8 9 9 8 9
27 26 24 22 21 21 20 19 17 16 15 13 12 11 11 12 11 10 9 7 7 6 5 3 3 3 4 6 5 5 7 8 8 6 6 7 7 8 9 9 8 8
28 27 25 24 23 22 21 19 17 16 15 13 12 11 11 11 11 9 8 7 7 7 7 6 4 3 3 3 3 3 5 7 8 7 6 7 7 7 9 9 8 9
30 29 27 25 23 23 21 19 17 16 15 14 12 11 11 10 10 9 7 6 6 7 8 8 7 6 5 3 1 2 3 4 6 6 5 5 5 6 7 8 9 10
31 31 29 26 23 23 22 20 18 16 16 14 12 11 11 9 9 8 7 7 6 7 8 9 9 8 6 5 3 2 2 2 3 4 4 4 4 4 4 5 7 9
31 32 30 25 23 22 22 21 20 18 16 15 13 12 11 10 9 8 8 8 7 7 8 10 11 10 9 7 5 5 4 3 3 3 2 3 4 3 3 3 5 7
28 32 29 25 22 22 22 23 22 20 18 16 15 14 13 11 10 9 10 10 10 9 9 9 10 10 10 9 8 7 7 6 5 4 3 3 3 3 3 3 4 5
23 27 26 24 23 22 23 23 23 22 21 20 19 18 16 15 12 12 12 12 12 13 12 11 11 11 10 10 10 9 9 9 9 8 7 6 5 4 3 4 4 4
19 21 22 23 23 23 21 20 20 20 19 19 20 19 19 17 15 15 15 16 16 16 16 15 13 12 12 12 12 11 11 11 11 11 11 10 9 8 7 6 6 5
18 20 23 25 23 22 20 18 17 16 14 15 16 16 16 16 16 18 20 20 19 19 20 20 17 15 15 15 14 13 13 13 13 13 13 13 12 11 10 10 9 8
18 19 21 23 22 20 18 16 15 14 14 15 17 16 15 15 17 19 21 22 21 22 25 26 22 19 19 19 17 17 16 15 15 15 15 15 14 14 13 13 13 11
16 15 16 18 18 16 13 12 12 12 12 15 17 17 17 17 18 19 21 22 22 24 27 29 28 25 23 22 21 20 20 19 18 18 18 18 17 16 16 15 15 15
11 11 10 11 12 12 11 11 12 13 12 13 14 15 15 16 16 16 17 18 19 21 24 28 28 26 24 24 24 24 24 23 22 22 21 21 20 19 18 18 17 17
10 11 8 8 10 10 10 11 12 13 14 14 14 14 15 15 16 16 15 17 20 21 22 23 23 21 21 21 22 23 24 24 24 24 25 25 23 22 21 20 19 18
6 8 8 10 12 12 14 15 15 16 19 20 18 18 18 17 17 18 19 21 22 23 24 24 22 20 19 20 21 22 22 22 23 24 25 27 26 25 23 23 22 21
5 7 9 11 11 11 14 16 17 18 19 18 16 14 14 14 15 16 19 22 22 22 23 21 18 18 18 18 19 19 20 20 21 22 23 25 26 26 25 25 24 23
8 10 11 11 10 9 9 9 9 9 8 8 7 7 8 9 12 15 18 21 21 19 17 14 12 14 15 15 15 16 17 17 18 19 20 21 23 23 24 24 24 24
5 6 5 5 4 3 2 2 3 3 2 2 1 1 1 2 5 7 9 11 11 11 11 11 11 11 11 10 10 11 13 14 15 16 17 18 19 20 20 20 21 22
6 6 5 5 5 5 5 5 5 6 6 6 5 5 3 2 1 2 3 4 5 6 8 9 9 10 9 7 6 6 7 9 10 11 14 16 17 18 18 17 18 19
5 5 5 4 4 4 4 4 4 5 5 5 4 4 3 2 2 3 4 5 6 6 7 8 8 9 8 6 5 5 5 6 7 8 10 13 15 16 16 16 16 16
3 3 2 1 1 1 2 2 3 3 3 2 2 2 2 3 3 5 6 7 7 7 8 8 8 8 8 6 4 4 4 5 6 8 10 11 11 11 10 10 12 14
5 4 3 2 1 1 1 1 1 1 1 2 2 2 2 3 4 5 6 7 7 8 9 8 8 8 7 6 4 3 4 4 5 6 6 5 4 3 4 6 9 13
6 6 5 5 4 3 2 2 1 1 1 1 2 3 3 4 5 6 6 7 7 7 8 8 8 7 6 5 3 2 2 3 3 4 4 5 7 9 10 11 11 11
4 4 4 4 4 4 3 3 2 2 2 3 3 4 5 6 6 7 7 8 8 8 7 7 7 6 5 4 2 1 1 3 4 5 7 9 11 12 11 10 8 7
2 2 3 3 4 4 3 2 2 2 3 3 4 4 5 5 5 6 6 7 8 9 8 7 6 5 4 3 2 3 4 5 7 8 10 11 11 11 10 9 8 6
1 0 1 3 4 4 2 1 1 2 3 4 4 5 5 5 5 5 6 7 7 7 7 6 5 4 4 3 4 5 7 8 9 9 9 10 10 10 10 9 8 7

ECMWFNIL_925_spd_048.txt.gz
Wind_Speed
19 18 16 15 15 15 14 14 13 11 11 11 11 10 9 8 7 6 5 5 5 5 6 7 8 8 8 6 6 6 7 8 9 8 8 9 10 10 10 9 9 10
20 19 17 15 15 15 13 13 12 10 9 10 10 10 9 8 6 5 3 3 2 2 3 4 4 5 7 6 6 6 7 8 8 8 8 9 10 10 10 10 9 10
19 19 17 15 15 14 13 12 11 9 9 9 9 9 8 8 7 5 4 2 1 0 0 1 2 2 4 5 5 6 6 7 8 7 7 9 9 10 11 10 11 12
19 19 17 16 15 14 13 13 12 10 9 9 8 8 7 7 7 7 5 3 1 2 3 2 2 1 1 3 4 4 5 6 6 6 6 7 8 9 10 10 11 12
19 19 18 16 15 15 14 13 12 10 9 9 8 7 7 7 7 7 6 4 3 2 3 4 4 3 2 2 2 2 3 3 4 4 4 6 6 7 8 9 10 10
18 19 19 18 17 16 15 14 12 10 9 9 8 7 7 6 6 6 5 4 3 3 3 4 5 5 5 4 3 3 2 1 1 2 3 3 4 5 6 6 8 8
17 19 21 20 19 18 17 16 14 11 10 9 9 9 8 7 7 7 6 5 5 4 4 5 6 7 7 7 6 5 4 3 2 1 1 1 2 3 4 4 5 6
15 19 21 20 19 18 17 17 16 14 12 11 10 9 8 8 8 8 8 8 8 8 7 7 7 8 9 10 9 8 8 7 6 5 4 4 3 2 3 4 4 4
13 16 20 20 19 18 17 17 17 16 14 13 13 12 10 10 9 9 10 11 11 11 11 10 10 11 11 12 12 12 11 10 9 9 8 8 7 6 5 5 5 4
11 13 16 18 19 19 17 17 18 17 16 16 16 14 11 9 10 10 10 11 14 14 14 13 13 14 14 14 14 15 14 14 14 13 12 11 10 9 8 7 7 7
12 13 15 17 19 19 18 17 17 17 16 16 15 13 11 10 12 14 14 13 14 15 16 17 17 18 17 17 17 18 17 17 18 18 16 14 13 12 12 11 10 9
12 14 15 18 19 18 17 17 16 15 15 14 13 12 12 12 13 14 15 14 14 14 16 18 19 20 20 20 20 21 20 20 21 22 21 17 15 15 14 14 13 12
12 13 15 17 16 16 16 14 11 11 11 11 11 11 11 11 11 11 11 11 12 13 15 17 18 19 19 20 20 20 21 20 21 24 24 21 18 17 16 16 16 15
14 14 15 15 15 14 12 10 7 7 8 8 8 9 9 9 9 9 10 11 12 13 15 16 17 18 18 19 18 17 18 19 19 22 23 20 18 19 19 19 18 17
14 14 14 14 13 10 8 7 7 9 10 10 9 9 10 9 10 11 12 14 15 15 16 17 18 19 19 19 18 17 18 18 18 18 19 17 18 19 20 20 20 19
11 12 12 11 10 8 5 4 6 8 9 9 9 9 9 8 9 10 11 12 13 13 13 14 15 15 16 16 17 17 17 18 17 17 17 17 17 18 19 19 19 19
9 10 11 10 9 7 5 4 4 4 4 4 5 4 4 4 4 5 7 8 10 10 10 10 10 10 9 10 11 12 14 16 16 15 15 15 16 16 16 16 16 16
10 10 10 10 8 7 6 5 5 5 6 6 5 4 3 2 1 1 3 4 5 6 7 8 9 8 6 5 6 7 8 10 11 12 12 13 14 14 14 14 14 13
10 11 11 12 11 11 10 10 9 9 9 9 8 7 6 5 4 3 3 4 4 5 5 5 5 5 3 3 4 5 4 4 6 7 9 10 11 12 12 13 13 13
12 13 14 14 13 13 12 12 12 11 11 10 8 7 5 4 3 3 4 5 6 7 8 7 6 5 3 2 4 4 3 3 4 6 8 9 10 10 11 11 11 11
9 10 11 11 11 10 11 11 11 10 9 8 6 5 4 2 1 2 4 5 7 8 8 8 8 6 5 3 3 3 3 3 4 6 8 9 9 9 9 9 8 7
8 8 9 9 9 9 10 11 11 10 9 8 7 6 5 4 3 2 3 4 5 5 6 6 7 7 6 4 3 3 3 3 4 5 6 7 7 6 6 5 4 3
9 9 9 9 10 10 11 11 10 10 9 9 8 7 6 5 4 3 4 4 4 4 4 5 5 6 5 4 3 3 2 3 4 5 4 4 3 3 2 2 2 3
7 7 7 8 8 9 9 9 9 8 8 8 7 6 5 5 4 4 4 3 3 3 3 4 4 4 4 3 2 2 2 2 3 3 2 2 1 1 3 5 7 7
2 2 3 4 4 5 6 6 7 7 7 6 6 5 5 5 4 3 2 2 2 3 3 3 2 3 3 3 2 2 2 3 3 4 4 4 5 5 6 7 8 8
7 5 3 2 1 2 4 5 5 6 5 5 5 5 4 4 3 2 3 3 3 3 3 2 2 1 2 2 2 2 3 4 5 5 4 5 7 7 8 8 8 7

ECMWFNIL_925_spd_054.txt.gz
Wind_Speed
9 11 11 11 11 11 12 11 11 12 12 12 11 10 10 9 8 8 9 9 10 11 11 10 10 10 9 9 9 9 9 8 8 8 7 7 7 7 8 8 8 7
9 10 10 10 11 12 12 12 12 13 13 12 12 11 11 10 9 8 8 8 9 9 10 10 10 9 9 9 9 9 9 9 8 8 8 7 7 7 8 8 8 8
11 11 12 11 11 13 13 13 13 13 13 13 12 12 11 10 9 9 8 8 8 8 8 9 9 9 9 9 9 9 8 8 8 7 7 7 7 7 7 7 8 8
14 13 12 12 12 13 13 14 13 13 14 13 13 12 11 11 10 9 9 9 8 8 8 8 8 8 8 8 9 9 8 8 7 7 7 6 6 6 6 7 7 7
14 13 13 13 13 13 13 14 14 14 14 14 13 13 12 11 11 10 10 9 9 9 8 8 8 7 7 7 7 8 8 7 7 6 6 6 5 5 5 5 6 6
14 13 13 13 14 14 13 13 14 15 15 14 14 13 12 12 11 11 10 10 10 10 10 9 9 8 7 7 7 6 6 6 6 5 5 5 5 4 4 4 4 5
14 13 13 13 15 15 13 12 13 14 14 14 13 13 12 12 11 11 11 10 10 10 10 10 10 9 8 7 7 6 6 6 5 4 4 5 4 4 3 3 2 3
13 12 12 13 15 15 13 12 13 13 13 13 13 13 12 12 11 11 10 10 10 10 10 10 10 10 9 8 7 7 6 5 5 4 4 4 3 3 3 2 2 2
11 10 11 12 14 15 14 13 13 13 14 14 14 13 13 12 12 11 10 10 9 9 9 9 9 9 9 8 8 8 7 6 5 5 4 4 3 2 2 2 2 2
10 9 10 11 12 13 14 14 13 14 14 14 13 13 13 13 12 12 11 10 9 9 9 8 8 8 7 7 7 7 6 6 5 5 5 5 4 4 4 3 3 4
10 9 10 11 11 12 14 15 14 14 15 14 13 13 13 13 13 12 11 10 9 9 9 8 7 7 6 7 7 6 5 5 5 5 5 6 6 7 7 6 6 6
9 9 10 11 11 11 13 15 14 14 14 14 14 13 13 13 12 11 11 10 10 9 8 7 6 6 6 6 6 6 6 5 5 6 6 6 7 8 8 8 8 9
9 10 10 11 11 12 13 14 14 14 15 15 14 13 13 12 11 10 10 10 10 9 8 7 6 5 5 6 6 6 6 6 6 6 6 6 6 7 8 8 9 10
9 11 11 11 11 11 12 13 13 13 13 14 14 12 11 11 10 10 10 9 9 8 7 6 5 5 5 5 5 6 6 7 6 6 7 7 6 7 7 8 9 9
8 9 9 9 9 10 10 11 11 11 11 12 12 10 8 8 9 9 9 8 7 6 6 5 4 4 5 6 6 6 6 6 6 6 6 6 5 6 6 6 7 7
6 7 7 7 8 9 9 9 8 8 7 7 7 7 6 6 7 7 7 7 6 5 5 4 3 4 6 7 6 6 6 5 4 4 4 4 4 4 4 5 6 6
6 6 7 7 7 8 8 8 8 8 7 4 3 3 3 3 4 4 5 5 5 5 4 4 4 6 5 4 4 6 6 4 3 3 3 3 2 2 3 3 4 5
6 6 7 7 7 7 8 7 8 9 9 6 4 3 4 3 3 3 3 4 4 5 5 4 5 6 5 5 6 6 6 5 3 2 3 2 1 0 2 2 3 3
4 5 6 7 7 7 7 7 7 7 7 5 5 5 5 5 3 3 4 5 5 6 6 4 4 5 5 6 6 6 6 5 3 2 2 2 2 1 2 2 3 4
4 4 5 6 6 6 6 7 7 6 6 5 5 6 5 5 6 6 7 7 7 6 6 6 5 5 5 6 6 5 5 4 3 2 2 3 3 2 2 2 2 3
5 6 6 5 5 5 5 6 7 7 8 7 7 8 9 9 8 8 9 8 7 6 6 6 5 4 4 5 4 5 5 4 2 2 2 3 4 4 4 3 3 3
7 7 7 6 6 6 6 7 7 9 9 9 9 10 10 9 8 9 9 8 7 6 6 6 5 4 4 4 4 5 5 3 2 2 3 4 5 5 5 5 5 5
8 8 8 7 6 6 7 8 8 8 9 9 9 9 8 8 8 7 7 7 6 6 5 5 4 3 4 4 5 6 5 3 3 3 4 5 5 5 5 6 6 7
7 7 7 7 7 6 6 7 6 6 6 6 6 7 7 7 7 7 6 6 6 5 5 5 3 3 4 5 5 6 5 4 3 4 5 5 6 6 6 7 7 8
5 6 7 7 8 8 7 7 6 5 5 5 5 5 6 6 6 6 6 5 5 5 6 5 4 4 5 5 5 6 6 4 3 4 4 3 4 5 6 7 7 7
4 5 6 7 7 8 8 7 6 6 6 6 6 5 6 6 5 5 5 5 5 5 5 5 5 5 5 5 5 5 6 5 4 4 3 2 2 3 5 7 7 7

ECMWFNIL_925_spd_057.txt.gz
Wind_Speed
14 13 12 11 11 11 11 12 13 14 13 13 13 13 12 11 11 10 10 10 10 10 10 10 10 10 10 10 10 10 10 10 10 10 10 10 10 11 11 11 10 10
14 14 12 11 10 11 11 12 13 14 14 14 14 13 13 12 12 11 11 10 10 10 10 10 10 10 10 10 10 10 10 10 10 10 10 10 10 10 10 10 10 10
14 14 13 11 10 11 12 13 13 14 14 14 14 14 14 13 12 11 10 10 10 9 9 9 9 10 10 10 9 10 9 10 10 9 10 10 9 9 9 9 10 10
14 13 13 11 11 11 12 13 14 14 15 15 14 14 14 13 12 11 10 9 9 9 8 8 8 8 9 9 8 8 8 8 8 8 8 8 8 9 9 9 9 9
13 12 13 12 12 12 12 14 14 15 16 15 15 15 14 14 13 12 11 9 8 8 8 7 7 7 7 7 7 7 7 7 6 6 7 7 7 7 7 7 8 8
13 12 12 13 13 12 13 14 15 16 16 16 16 15 14 14 13 12 11 10 9 9 8 7 7 7 7 6 6 6 6 6 5 5 6 6 5 5 5 5 5 6
13 12 13 13 14 14 14 14 15 16 17 17 16 15 15 15 14 13 12 11 10 10 9 8 7 7 6 6 6 5 5 6 5 4 5 5 4 4 4 3 3 4
13 13 13 14 15 15 15 15 15 16 17 17 16 16 15 14 14 13 13 12 11 11 10 9 8 8 7 6 6 6 5 5 4 4 4 4 4 3 3 3 2 2
11 12 14 15 16 16 15 15 15 15 16 17 17 16 15 14 14 13 13 12 12 11 11 10 9 8 7 6 6 6 6 5 5 4 4 4 4 3 4 4 3 2
11 12 14 15 15 15 15 15 16 15 16 17 16 16 16 14 14 14 13 13 12 12 11 10 9 9 7 7 7 7 6 6 5 5 5 5 5 4 4 5 4 3
12 12 13 14 14 14 14 16 16 15 15 15 16 16 16 14 14 14 13 12 12 12 11 10 9 9 8 7 7 7 7 6 6 6 6 7 6 6 5 5 6 5
13 14 14 15 15 15 15 16 16 16 15 14 14 15 15 14 14 14 13 13 12 11 11 11 10 9 8 8 8 8 8 8 8 8 9 9 8 8 8 7 7 7
14 14 15 17 17 17 17 17 16 15 15 14 13 14 14 14 14 14 13 12 12 12 11 10 9 9 8 8 8 8 9 10 10 11 11 11 10 9 8 8 8 8
14 15 16 16 17 16 16 17 16 15 15 14 14 13 14 14 14 14 14 13 13 13 12 10 10 9 8 7 7 8 9 11 12 13 12 12 11 9 8 7 7 7
16 17 16 15 14 14 14 14 15 15 14 14 14 14 13 14 13 11 12 15 16 13 11 9 8 6 6 7 9 9 9 11 12 12 12 11 9 8 7 6 6 6
15 15 14 13 11 11 12 12 12 11 11 11 12 12 11 13 14 9 6 9 12 11 10 8 5 5 8 11 12 10 9 10 11 9 8 7 5 4 4 4 4 4
10 10 10 11 10 9 10 10 10 9 10 9 9 8 8 9 12 10 6 8 8 6 8 7 5 7 9 9 8 7 7 5 5 4 2 1 1 1 1 2 2 2
9 9 9 9 8 7 7 7 7 8 9 8 6 7 7 7 7 8 10 10 9 5 6 6 7 7 6 6 5 5 6 3 1 1 2 3 3 3 2 1 0 1
9 9 10 10 8 7 6 6 6 8 10 9 7 6 6 6 6 7 8 9 7 3 6 6 7 7 7 7 7 6 6 4 2 2 2 4 4 3 3 2 1 1
8 8 9 9 9 10 9 9 9 9 10 10 8 8 7 6 6 5 4 5 6 6 8 7 7 7 8 8 7 7 6 4 2 2 2 4 3 3 3 3 2 2
8 9 8 8 9 10 10 10 9 9 9 9 8 9 10 8 8 8 6 7 9 10 10 8 7 7 7 7 7 6 6 4 2 1 2 3 4 3 3 3 3 3
9 9 10 10 9 9 9 9 9 10 10 10 10 11 11 10 9 9 8 8 8 9 10 9 8 7 6 6 6 6 6 4 2 2 3 3 4 4 4 4 3 3
9 8 9 9 9 9 10 9 10 11 11 11 12 11 11 10 9 8 8 8 8 8 9 8 7 6 5 5 6 6 5 3 2 3 4 4 4 5 6 4 3 3
6 7 7 7 7 9 10 10 10 10 10 10 10 10 9 9 8 8 7 7 7 7 8 7 6 6 5 5 5 5 6 4 3 3 5 4 4 5 6 5 5 7
4 5 5 4 5 7 8 9 9 9 8 8 8 9 9 8 8 8 8 7 6 6 7 7 6 6 6 6 6 6 7 5 4 3 6 4 3 5 6 5 5 6
2 4 5 4 4 6 6 6 7 7 7 7 7 8 9 8 8 8 7 7 6 7 8 7 6 6 7 7 7 7 8 6 5 2 6 5 4 5 6 7 8 6

ECMWFNIL_925_spd_060.txt.gz
Wind_Speed
17 17 17 17 16 16 15 14 14 14 14 14 14 13 12 12 12 12 13 12 12 12 12 12 12 12 13 14 14 14 14 15 15 14 15 16 16 16 15 15 14 13
18 17 17 16 16 15 15 15 15 15 14 14 14 13 13 13 13 13 13 12 12 11 11 11 11 12 12 13 13 13 14 14 14 13 14 15 15 15 15 15 15 15
17 18 17 16 16 15 15 16 16 15 15 16 15 15 15 14 13 13 13 12 11 10 10 11 11 11 11 12 12 13 13 13 13 13 13 14 14 14 14 15 15 15
16 17 15 16 16 15 16 17 16 16 16 17 17 16 16 15 14 14 12 12 11 11 10 10 9 9 10 10 11 11 11 11 11 11 12 12 13 13 14 14 14 14
17 16 13 16 17 16 17 17 17 17 17 17 18 17 16 16 15 14 13 12 11 10 9 9 8 8 8 8 9 9 9 9 9 9 10 11 10 11 12 12 12 12
17 16 13 15 17 16 17 17 17 18 18 18 18 17 17 17 15 14 14 12 11 10 9 9 8 7 7 7 7 7 7 8 7 7 8 8 8 8 9 9 9 9
17 17 14 14 16 16 17 17 18 18 18 18 18 17 17 17 15 14 13 12 11 10 9 8 7 6 6 6 5 6 6 6 5 6 7 6 6 7 6 6 7 8
19 18 17 14 14 16 17 17 18 18 18 19 17 17 17 16 15 15 13 12 11 10 9 8 7 6 6 5 4 5 5 5 4 5 6 5 4 4 5 5 5 7
20 19 19 15 12 16 18 17 18 19 19 19 18 17 17 16 15 15 14 12 11 10 9 8 7 7 5 5 5 4 4 4 3 4 4 4 2 2 3 4 4 5
17 18 19 17 16 19 19 19 19 19 20 19 18 18 17 15 15 15 13 13 12 11 11 10 9 8 6 6 5 5 4 3 2 2 2 1 0 0 1 4 3 2
17 17 16 16 19 21 20 20 20 20 20 20 18 17 18 15 15 15 14 13 13 12 12 11 10 9 8 6 6 5 4 3 2 0 0 1 3 4 4 3 0 1
19 18 16 16 20 22 21 20 21 20 19 19 18 17 17 16 15 15 14 13 13 12 12 12 11 9 9 7 5 5 3 2 3 5 5 4 4 5 6 7 8 6
17 18 20 21 20 21 18 14 16 19 17 16 17 17 16 16 14 14 14 12 11 9 7 7 8 6 6 8 5 2 2 2 3 4 4 5 5 6 7 7 9 12
17 19 22 22 18 16 13 5 1 7 12 11 12 14 15 15 14 14 14 10 7 5 3 3 4 2 3 7 5 2 2 3 4 5 7 8 7 7 7 6 5 8
16 18 20 18 14 11 12 7 3 3 10 9 10 13 13 14 15 13 13 9 4 5 4 3 4 2 3 3 3 3 4 4 5 6 7 8 6 5 5 4 4 4
11 12 13 13 11 9 13 14 10 11 14 10 11 15 14 13 14 12 11 8 3 3 3 3 4 3 4 4 4 4 5 5 4 3 2 4 3 3 4 4 4 6
8 9 8 7 8 9 11 14 16 17 17 10 9 12 12 10 10 9 8 6 4 3 3 4 7 5 5 6 6 6 5 2 1 3 3 2 2 3 4 5 4 3
5 4 5 5 5 6 7 11 14 16 16 11 8 8 9 11 11 10 8 6 7 8 7 7 9 7 6 6 4 4 4 4 4 3 4 4 4 4 5 5 4 4
1 3 5 5 5 5 6 10 14 16 15 11 9 8 10 13 13 12 9 7 8 8 8 8 9 8 6 4 5 8 8 6 4 4 6 6 5 5 6 6 5 6
5 8 8 8 9 11 12 13 15 16 15 12 9 9 9 10 10 10 9 8 8 8 10 9 7 8 8 7 8 11 9 7 6 7 7 8 8 8 8 7 6 6
10 11 11 12 14 15 15 14 14 15 14 12 10 9 9 8 10 11 10 10 11 11 11 9 8 9 10 9 10 11 9 8 7 8 9 10 10 10 9 9 8 8
13 13 12 13 14 14 13 11 11 12 11 11 10 10 11 12 14 14 13 14 15 14 13 11 10 10 10 11 11 10 9 8 7 8 11 11 9 8 8 8 9 10
11 14 14 13 13 13 12 11 11 11 11 10 11 13 14 15 15 15 15 17 16 13 13 13 12 11 11 11 11 11 10 8 6 9 13 12 8 7 6 7 9 9
7 8 12 14 14 12 11 12 12 13 13 12 12 14 15 14 14 15 17 18 16 13 13 14 13 12 11 11 10 11 12 8 6 11 14 12 9 7 6 7 8 7
10 10 8 9 13 13 11 11 13 14 14 14 13 13 13 13 13 15 17 16 16 15 13 12 13 12 11 11 10 11 12 9 7 11 13 13 14 12 8 8 9 7
8 7 7 5 6 10 9 8 10 12 12 12 13 13 13 12 12 15 17 15 15 15 12 11 12 12 11 11 10 11 13 11 6 8 11 12 15 15 12 11 11 9

ECMWFNIL_925_spd_063.txt.gz
Wind_Speed
26 27 26 26 25 23 24 25 25 23 23 22 21 20 19 19 18 18 18 19 19 19 19 18 18 17 16 16 17 17 17 17 18 18 18 18 17 16 14 14 15 17
24 24 23 24 24 23 23 23 22 22 23 22 21 20 19 18 18 19 19 20 20 19 18 18 18 17 17 17 17 17 17 18 18 17 18 18 17 16 15 14 14 15
21 21 21 22 22 22 22 21 21 23 23 22 21 19 18 19 19 20 21 21 21 20 19 18 18 17 17 17 17 17 17 17 16 16 17 17 17 16 16 16 15 14
19 19 20 20 20 21 21 21 22 23 23 22 20 19 19 20 20 20 19 19 20 20 20 19 18 17 17 17 17 18 17 16 16 16 17 17 16 16 15 15 15 15
20 19 19 18 18 20 20 20 22 23 23 22 20 19 20 21 20 19 19 19 19 18 18 18 17 17 16 16 17 16 15 14 14 15 16 16 15 14 13 12 13 14
19 18 19 19 18 19 20 20 22 22 22 22 21 20 20 20 19 19 19 19 17 17 18 18 16 15 15 15 15 14 13 14 13 12 13 13 11 11 11 11 13 14
17 16 18 19 18 18 18 19 20 21 21 21 20 20 19 19 19 18 18 17 16 17 18 17 15 14 13 13 14 13 10 11 12 11 11 10 10 11 10 10 11 12
15 15 18 18 18 18 16 17 19 19 19 20 20 20 19 18 18 16 15 15 15 16 16 15 14 14 12 12 13 12 9 9 11 12 11 9 9 10 10 9 9 9
12 13 15 16 17 16 14 14 17 18 17 18 18 18 18 17 16 15 15 14 13 14 14 13 13 13 11 10 11 10 8 10 12 12 10 7 8 9 9 9 9 8
8 9 11 14 15 13 10 11 15 17 16 16 17 17 17 16 15 15 14 13 13 12 12 12 12 11 10 10 11 10 9 9 10 10 8 7 8 10 11 10 10 10
7 9 9 11 11 10 8 8 13 15 14 15 16 16 17 15 15 15 14 13 13 12 11 11 11 10 9 11 11 10 9 8 7 8 7 4 5 8 9 9 9 10
9 12 11 8 7 7 6 7 10 12 12 13 14 16 17 15 15 15 13 12 13 12 12 13 13 13 11 12 10 7 7 6 4 5 5 4 4 4 5 6 6 8
11 12 11 8 6 6 6 6 8 9 11 13 13 16 17 14 14 15 13 12 13 13 14 15 15 14 12 11 10 6 4 3 3 4 5 4 5 5 5 5 6 7
12 13 12 10 8 8 9 9 9 11 13 13 14 15 16 14 14 15 13 12 12 13 13 14 14 13 10 9 9 6 3 2 4 4 4 5 6 7 6 6 7 7
10 11 13 13 10 9 11 11 12 12 11 12 13 15 17 16 15 16 14 13 12 12 12 13 13 12 10 9 8 7 4 3 3 3 3 5 6 6 6 7 7 6
9 10 13 15 14 13 12 11 12 14 12 11 12 12 16 18 17 16 16 14 12 11 11 12 12 11 10 9 8 7 5 3 2 1 0 3 4 5 6 7 7 7
8 10 12 15 17 18 17 15 17 20 20 18 14 12 14 18 18 17 17 15 13 11 11 11 11 11 11 10 8 7 5 4 3 3 5 5 5 6 8 8 8 8
11 12 11 12 16 18 18 18 19 24 27 22 16 13 14 17 18 17 17 15 13 11 10 11 12 13 12 10 8 7 6 7 8 9 10 9 8 8 8 9 10 10
13 15 14 12 13 16 18 18 18 23 24 18 14 15 16 15 16 15 15 13 13 12 11 11 13 14 11 8 8 9 10 11 11 10 10 10 9 8 8 10 12 12
15 17 16 14 13 15 19 19 17 20 19 15 14 16 15 14 13 12 12 12 11 11 11 11 12 11 10 9 11 13 13 11 11 11 11 11 11 11 11 11 13 14
17 18 17 16 16 16 18 19 18 19 18 15 15 15 15 15 12 9 11 12 12 12 12 12 12 11 11 13 15 15 13 13 14 14 14 13 12 11 11 12 14 14
14 15 15 17 18 16 17 18 19 20 18 16 14 13 13 13 13 13 13 12 13 13 13 14 14 14 15 17 17 16 14 15 16 15 14 13 11 10 10 12 13 12
8 9 9 12 15 14 13 14 15 16 15 14 13 13 11 13 16 17 16 15 15 16 15 15 16 16 17 17 17 16 15 14 15 15 14 13 13 11 10 11 12 11
4 4 4 6 9 10 9 8 9 11 13 13 14 14 15 16 18 17 16 16 16 16 15 16 16 16 17 17 17 17 14 12 14 18 18 15 14 13 11 11 11 10
9 6 6 6 7 9 10 9 10 11 12 13 13 14 16 17 17 16 16 16 15 13 14 15 15 16 17 17 18 17 14 13 16 19 18 16 15 14 14 12 11 9
18 13 9 6 7 10 10 11 12 12 12 14 15 15 16 17 17 17 16 14 12 11 12 13 13 15 17 17 17 18 15 13 17 19 18 16 16 15 15 14 12 11

ECMWFNIL_925_spd_066.txt.gz
Wind_Speed
27 29 29 27 25 24 24 24 22 21 21 21 20 19 17 17 16 17 18 19 18 17 15 14 12 11 11 12 13 15 16 16 15 14 14 15 16 18 18 17 15 12
29 29 27 25 25 25 25 23 21 20 20 19 19 19 18 17 16 16 17 18 17 16 15 13 13 14 14 15 17 18 18 16 15 14 13 13 15 17 18 18 18 17
28 26 25 25 25 25 24 22 20 19 19 19 19 19 18 17 17 17 17 17 17 17 16 15 16 17 17 18 19 19 18 17 16 14 13 13 14 15 16 17 19 19
27 25 24 24 23 23 23 23 21 21 20 20 20 19 18 17 18 18 18 18 18 17 16 16 17 16 16 17 18 18 18 17 16 15 15 15 14 15 15 15 17 19
25 24 23 23 22 23 25 24 23 22 22 21 19 18 17 18 20 20 19 18 17 17 16 16 16 16 16 15 16 17 17 16 16 15 15 15 14 14 14 14 16 17
24 24 24 23 23 25 26 25 24 23 22 21 19 18 18 20 21 20 20 19 18 17 17 17 17 16 16 16 16 16 16 16 15 14 14 13 12 12 12 13 15 15
26 26 25 24 24 26 26 26 26 24 23 21 18 18 20 20 19 19 19 20 19 18 17 17 17 17 16 15 16 16 15 15 13 11 11 11 11 11 10 11 12 13
26 26 25 24 25 26 26 27 27 25 23 21 20 21 20 19 18 18 18 18 18 17 16 16 16 16 15 14 14 15 14 13 11 9 9 10 10 9 9 8 8 9
23 23 23 24 25 25 25 27 27 25 22 21 22 22 19 18 18 17 16 16 17 17 16 15 15 14 15 14 13 14 14 13 12 11 10 10 10 9 8 6 5 6
21 21 21 22 24 25 25 27 26 24 21 21 23 22 19 18 17 15 15 16 17 16 14 14 14 15 16 15 13 14 17 16 14 13 11 10 10 9 8 7 6 7
21 21 22 21 21 23 25 25 25 23 21 21 22 21 19 17 16 15 15 15 16 15 15 15 14 15 17 15 13 15 18 17 15 13 11 10 10 10 10 9 7 9
17 18 21 20 19 22 24 25 25 23 21 22 22 21 19 17 16 16 15 15 16 16 16 16 15 15 16 15 14 14 15 14 13 12 10 10 11 11 11 10 8 9
16 16 18 18 18 21 23 25 25 24 23 22 21 20 19 17 16 17 16 17 17 18 18 18 16 16 16 16 15 14 13 12 11 10 9 9 10 11 11 10 9 9
17 19 20 19 18 19 20 23 23 22 22 21 18 17 17 17 17 18 18 18 19 20 20 20 19 17 18 17 15 13 12 10 8 8 9 9 9 11 12 11 10 11
17 20 20 19 19 19 19 20 20 19 19 19 17 14 15 18 18 20 21 19 20 21 21 21 21 20 19 17 15 12 11 10 8 8 9 10 11 12 13 13 13 13
17 20 21 20 20 21 21 19 17 17 19 19 18 16 18 21 22 23 23 21 21 22 22 22 22 21 19 17 15 14 12 11 10 8 9 11 13 14 14 14 13 14
16 19 20 20 20 21 22 20 18 19 20 20 20 20 22 25 26 24 24 23 22 23 23 22 21 20 18 16 15 14 13 11 9 8 8 10 11 13 14 14 14 14
13 16 18 20 20 19 20 20 19 21 23 21 20 19 20 24 26 27 27 26 24 24 23 21 20 19 17 16 15 15 12 9 8 8 8 9 9 11 14 15 16 16
12 14 16 17 18 18 19 20 20 22 24 24 21 18 16 18 24 27 28 27 25 23 22 20 19 18 18 17 17 15 12 10 9 10 10 10 12 13 14 16 18 17
10 12 13 13 15 17 18 19 19 21 23 24 23 20 17 17 21 26 27 26 25 23 21 20 19 18 18 18 18 15 13 12 14 14 13 13 14 15 16 17 19 18
9 10 10 9 10 13 16 17 17 17 18 20 20 20 18 18 21 25 25 24 23 22 21 20 20 19 19 19 17 15 15 17 18 17 16 15 15 16 17 18 19 18
6 7 7 7 6 7 10 13 15 14 13 14 17 18 19 21 24 25 24 22 21 20 21 21 20 20 20 19 18 17 19 20 20 19 17 16 16 17 18 18 18 17
2 2 2 4 5 5 6 10 14 14 12 12 13 15 17 20 23 22 21 19 18 19 20 20 20 20 19 19 19 20 21 22 21 21 19 18 16 16 17 19 18 16
1 2 2 2 3 3 4 7 11 14 15 14 14 12 13 16 16 15 17 17 16 18 19 18 19 19 19 20 20 20 21 23 23 22 20 19 17 16 17 18 17 16
12 7 4 2 2 3 4 5 8 11 14 15 14 13 13 15 15 15 16 17 17 17 16 16 17 18 19 21 21 20 22 24 24 22 21 20 19 18 18 18 18 17
23 20 16 11 8 5 3 3 5 8 10 12 12 13 14 15 15 15 15 16 16 15 14 14 16 19 20 21 20 19 21 23 23 22 21 21 20 20 20 20 18 17

ECMWFNIL_925_spd_069.txt.gz
Wind_Speed
23 23 23 22 21 21 20 20 19 18 17 15 14 13 12 14 16 17 16 14 13 11 10 10 9 8 8 9 10 11 12 13 13 13 12 12 11 9 8 7 7 9
22 23 23 22 21 20 19 18 17 16 15 15 15 14 13 14 17 17 16 15 13 10 9 8 8 8 8 10 11 11 12 13 14 15 15 15 13 10 9 7 7 7
22 23 23 23 21 20 19 18 16 15 16 16 16 15 14 14 16 17 16 15 13 10 8 7 7 8 10 12 12 12 12 12 13 14 16 17 15 13 11 9 9 8
22 23 23 23 22 20 19 18 17 16 17 17 16 16 15 14 15 16 16 15 12 9 8 8 8 10 12 13 13 13 12 12 12 13 15 17 16 15 14 12 11 11
23 24 24 23 22 21 20 19 18 17 18 17 16 16 15 14 15 15 15 14 11 9 9 10 11 12 12 12 13 13 12 12 12 13 15 16 15 15 14 13 13 12
24 25 24 23 22 22 21 20 19 18 17 17 17 16 15 15 15 15 14 13 11 10 10 10 11 11 12 12 13 12 12 12 13 13 15 15 14 14 14 14 14 13
25 24 23 22 22 22 21 20 18 17 17 17 18 17 16 16 16 15 14 12 10 9 9 9 10 10 11 12 13 12 12 12 11 11 13 13 13 13 13 13 14 13
23 23 22 22 22 21 21 21 19 18 18 18 18 17 16 17 18 17 14 12 11 10 10 10 11 11 11 12 13 13 12 11 9 10 11 11 11 12 11 10 11 12
22 23 22 22 22 22 22 22 21 19 19 19 18 17 16 18 18 17 15 13 12 12 11 11 11 11 11 11 12 12 11 9 8 8 9 10 10 10 9 8 8 9
23 21 22 21 21 22 23 23 22 21 20 19 18 18 19 19 18 17 16 15 14 13 12 11 11 11 10 10 10 10 9 9 8 7 7 7 8 7 6 5 6 8
21 20 21 21 20 21 22 22 22 21 20 20 19 20 22 20 18 18 17 16 15 14 13 12 11 11 10 10 10 9 10 9 8 7 6 5 5 6 5 5 6 8
19 20 21 21 21 21 21 23 23 21 20 20 20 21 21 20 19 19 17 17 16 15 14 13 12 12 13 12 10 11 12 11 9 8 6 5 5 5 5 5 5 7
19 20 21 21 22 21 19 21 23 22 21 21 22 22 21 20 20 19 18 17 18 17 16 15 14 14 15 14 11 11 13 12 10 9 8 6 6 6 6 5 5 5
22 22 21 20 20 19 18 21 24 24 22 22 23 22 21 21 21 19 18 18 18 18 17 16 16 16 16 16 14 13 14 13 11 10 9 8 7 7 8 7 6 6
24 24 23 21 21 22 23 25 26 25 24 23 23 22 21 22 21 20 18 18 18 19 19 18 18 18 18 18 17 16 16 15 13 12 11 11 10 10 10 10 9 8
23 24 23 22 22 23 25 26 26 24 23 23 22 23 23 23 23 20 18 18 19 19 20 20 21 21 20 20 19 18 18 16 15 14 13 12 12 11 11 12 12 11
20 22 23 21 20 21 22 24 24 22 23 23 22 23 24 23 22 20 18 19 20 20 21 22 23 24 23 22 22 21 19 18 17 16 14 13 13 13 13 14 15 14
18 21 23 22 21 21 21 22 22 20 21 23 22 23 23 22 20 19 19 20 21 22 23 24 24 25 24 24 23 22 20 18 18 17 15 14 14 14 15 16 16 15
15 17 19 20 21 22 22 21 21 20 19 20 22 23 22 23 22 21 20 22 23 24 25 25 25 25 25 25 24 22 20 19 18 16 15 14 14 14 15 16 16 15
8 10 12 13 15 18 20 20 21 21 20 20 22 23 22 24 25 25 24 25 25 26 27 27 26 26 26 25 24 22 21 19 18 16 14 14 14 14 14 15 15 16
2 4 6 7 9 11 14 15 17 19 20 21 22 22 21 22 23 24 25 26 26 27 28 28 27 26 26 26 25 24 22 20 17 16 15 14 14 15 15 15 15 17
3 1 1 2 4 6 8 11 13 14 16 18 20 21 20 19 16 15 18 21 24 26 28 29 28 28 27 26 25 24 22 19 17 16 16 16 15 16 16 15 16 18
7 5 4 3 2 1 3 7 10 11 12 14 16 18 20 20 16 14 16 19 21 24 27 27 26 27 27 26 25 24 21 20 19 18 18 17 16 17 16 16 17 18
15 11 8 6 4 3 3 3 6 9 11 11 12 14 17 19 18 18 19 20 21 23 25 23 21 22 24 25 24 23 21 20 20 20 20 19 18 18 17 17 18 18
24 21 18 14 11 8 5 4 3 6 8 9 10 11 12 13 15 16 16 17 18 21 21 21 20 21 23 24 24 23 22 22 23 23 22 20 19 19 19 19 18 19
25 24 23 21 19 16 14 10 5 2 6 8 9 10 10 11 12 14 14 15 17 18 19 20 21 22 23 24 24 24 24 24 25 25 25 23 20 19 20 20 20 20

ECMWFNIL_925_spd_072.txt.gz
Wind_Speed
20 20 20 19 17 15 15 17 18 19 18 17 16 14 13 12 12 13 13 10 8 7 7 7 7 7 7 6 6 6 6 5 4 5 5 6 6 5 6 7 7 10
21 21 20 19 16 15 16 17 18 19 18 17 15 13 12 12 13 14 13 11 8 8 7 7 7 6 6 6 6 7 7 6 5 6 6 6 5 5 5 7 7 8
20 21 20 18 17 18 18 18 18 18 17 16 13 11 11 12 14 15 13 11 9 8 8 7 6 5 6 7 7 7 7 7 7 7 6 6 5 4 5 7 8 8
20 21 20 19 19 19 20 19 18 17 16 15 13 11 11 12 15 15 13 11 10 8 8 7 6 6 7 8 8 8 8 8 8 8 7 6 4 4 6 8 10 10
21 22 21 20 20 20 20 19 18 17 16 15 14 12 11 12 14 14 13 12 10 9 7 7 7 8 9 10 10 9 9 9 9 9 8 8 6 4 6 9 10 11
22 23 22 21 21 20 19 18 17 16 16 15 15 13 12 12 13 13 13 12 11 9 7 9 11 11 11 11 11 10 9 10 10 9 9 9 7 5 5 8 10 10
23 23 23 22 21 20 19 17 16 15 15 15 15 14 13 12 12 13 14 13 11 9 9 11 13 13 13 12 11 10 11 11 11 10 10 9 8 6 5 7 8 9
24 24 23 22 21 20 19 18 17 16 15 15 15 14 13 13 13 13 14 13 11 10 10 11 12 13 13 12 10 11 11 11 10 10 10 9 9 8 7 6 7 8
24 23 23 22 22 21 20 19 18 16 15 15 16 15 14 13 13 14 14 13 11 11 11 11 12 12 12 12 10 10 10 9 8 9 9 8 7 7 7 6 6 7
21 22 23 23 22 21 20 19 18 16 15 15 16 16 14 14 15 15 14 13 12 12 12 12 12 12 12 12 11 10 8 7 7 7 7 7 6 5 5 4 4 5
20 21 22 22 21 20 19 19 18 16 15 15 16 15 15 15 16 16 14 13 13 13 12 12 12 12 12 11 10 9 7 5 5 6 6 5 5 4 3 2 2 3
18 20 21 21 20 19 18 18 18 16 15 15 15 15 15 16 17 16 15 14 14 13 12 12 12 11 11 10 9 8 6 5 5 6 6 5 4 3 3 2 2 3
16 17 19 20 20 19 18 18 17 16 15 15 15 15 15 16 16 15 15 15 14 13 13 12 11 11 10 9 8 6 6 7 7 6 6 6 5 5 4 3 2 3
16 15 15 18 19 19 18 18 18 18 17 17 16 15 16 18 16 14 15 15 14 14 13 12 11 11 10 10 9 7 7 8 8 7 6 6 5 5 6 4 3 4
18 15 12 13 15 16 16 15 15 17 18 18 16 16 17 18 16 15 15 15 15 15 14 13 12 11 10 9 9 8 8 8 9 8 7 6 6 6 6 6 5 5
18 17 14 12 12 13 12 10 11 15 18 19 17 17 17 17 16 16 16 16 16 17 17 16 14 13 11 10 9 8 8 9 10 11 10 9 8 8 8 8 8 8
15 16 16 17 16 16 15 15 14 14 15 17 18 18 18 17 17 18 18 18 18 18 18 17 16 14 12 11 11 10 11 12 13 13 13 12 11 11 10 10 10 11
10 12 14 14 15 17 18 17 15 13 13 14 16 18 20 19 18 19 19 19 18 19 19 18 16 15 14 13 13 13 14 15 15 16 15 15 14 13 12 12 13 13
7 10 10 9 9 11 13 13 13 13 12 12 12 15 18 18 18 17 16 16 17 18 18 16 16 16 15 15 15 15 17 18 18 18 17 16 16 15 15 15 15 15
4 7 7 4 5 8 10 11 12 12 11 11 11 12 14 15 16 16 16 16 16 16 16 16 16 17 16 16 16 17 19 20 21 20 19 18 17 16 16 16 16 15
7 4 3 2 4 8 8 8 10 11 11 12 12 12 12 13 14 16 17 18 17 17 16 17 18 19 18 18 18 18 20 22 23 22 21 19 18 17 17 16 15 15
12 11 9 6 1 3 4 5 7 9 10 11 12 12 13 13 14 15 16 17 18 19 19 19 20 21 21 20 19 19 21 23 25 24 23 21 20 19 18 16 14 14
15 14 13 10 7 5 4 3 3 5 7 9 10 11 12 13 15 15 15 15 16 17 17 17 18 19 21 20 20 21 23 25 26 25 24 23 21 20 19 17 15 14
21 19 17 15 12 9 7 5 4 3 3 5 6 7 9 11 13 14 15 15 15 16 16 16 17 17 18 18 19 21 23 25 25 25 24 23 22 20 19 17 15 15
25 24 23 21 19 16 12 9 6 4 2 2 3 5 6 7 9 11 11 12 13 13 13 14 15 15 16 17 18 20 22 23 24 24 24 23 22 21 20 18 17 17
25 24 24 23 22 20 18 15 12 8 6 3 2 3 4 5 7 8 9 9 10 10 11 12 12 12 14 18 20 22 23 23 24 24 23 23 23 23 22 21 20 19

ECMWFNIL_925_spd_075.txt.gz
Wind_Speed
18 19 21 21 22 22 23 22 20 18 17 14 12 12 12 11 10 10 9 8 7 6 5 5 6 6 7 7 7 7 6 6 5 5 5 5 4 3 4 6 7 9
20 19 21 22 22 22 22 20 18 17 16 13 12 13 12 10 10 11 10 9 8 7 7 7 7 7 6 6 6 6 6 6 6 6 7 6 6 5 5 6 7 9
21 21 22 23 22 21 20 19 17 16 15 14 13 13 11 10 11 12 12 11 10 9 8 8 7 6 6 5 6 6 6 6 7 8 9 8 7 6 6 7 8 9
22 22 22 22 20 19 19 18 17 16 15 14 14 12 10 10 12 13 13 11 10 10 9 8 7 6 6 6 6 6 6 7 8 9 9 8 7 7 7 9 9 9
23 23 22 21 19 18 18 18 17 16 15 14 13 11 10 12 14 15 13 11 10 9 9 8 7 8 8 7 6 6 6 7 8 8 7 6 6 7 9 10 10 10
22 22 22 20 19 18 18 19 18 17 16 15 13 12 11 13 15 15 13 11 10 9 8 9 9 10 10 8 7 6 6 7 7 7 7 6 6 8 10 11 12 12
22 22 22 21 20 19 19 19 19 18 17 15 14 12 12 13 15 15 13 11 9 8 9 10 11 12 11 9 8 7 7 7 7 7 7 6 7 7 9 10 11 12
22 22 23 22 21 20 20 20 19 18 17 15 14 13 12 12 14 14 13 11 9 9 10 12 13 12 11 9 8 8 8 8 7 7 7 7 7 8 8 7 9 11
23 23 23 22 22 21 20 19 18 17 16 15 14 14 12 12 12 12 13 11 10 10 12 13 13 12 11 9 8 9 9 8 7 7 7 7 7 8 8 7 7 8
23 23 23 23 23 21 20 19 17 17 16 15 15 14 13 12 11 12 12 12 11 11 12 13 13 12 11 10 9 9 9 8 7 7 7 7 6 6 7 6 6 6
22 22 22 23 22 21 20 18 17 16 16 15 15 14 14 13 12 12 13 12 11 11 12 13 13 13 12 11 11 9 8 7 7 7 6 6 5 5 5 4 3 4
20 21 21 21 21 21 20 18 17 16 15 15 15 14 14 13 12 13 13 12 11 12 13 14 14 14 13 12 12 10 8 6 6 6 6 5 5 4 4 4 3 3
18 18 18 18 19 20 19 18 16 15 14 14 14 14 13 12 12 14 13 12 12 13 14 14 14 14 13 12 11 10 8 7 7 6 5 5 4 4 4 4 4 4
14 14 14 14 15 17 18 17 16 15 14 13 13 13 12 12 13 14 14 12 12 13 13 13 13 13 12 12 11 9 8 8 8 7 6 6 5 4 4 4 3 4
11 12 12 12 12 12 13 14 15 15 14 13 12 11 11 11 13 14 14 13 13 12 11 12 12 12 12 11 11 10 9 9 9 8 7 7 6 5 5 5 4 4
10 13 14 12 11 9 9 10 9 10 11 11 11 10 10 11 13 13 12 12 12 11 11 12 12 11 10 10 11 10 9 10 11 10 9 8 7 6 6 6 6 7
10 12 13 12 10 9 8 7 3 2 4 7 10 10 10 12 14 14 12 12 12 11 11 12 12 11 10 10 10 10 10 10 11 11 11 10 9 8 7 8 9 9
8 8 9 9 9 7 6 4 3 5 4 4 7 9 11 12 14 14 13 12 12 11 11 11 12 12 11 11 11 11 12 12 12 11 11 12 11 10 10 10 11 12
9 9 8 7 7 8 8 8 9 9 8 6 7 9 11 12 12 12 11 11 11 11 11 11 11 12 11 12 12 12 13 14 14 13 13 13 14 13 13 13 13 14
9 9 9 9 8 7 7 8 8 7 5 5 6 7 8 9 9 8 8 9 9 9 10 10 10 11 11 11 12 12 14 15 16 16 16 16 16 16 15 15 15 15
12 11 10 9 8 7 7 6 5 4 3 4 4 4 5 5 4 4 5 5 6 7 8 9 10 11 12 12 11 11 13 16 18 19 19 19 19 18 17 17 17 16
16 15 13 11 9 8 7 6 5 4 3 2 2 2 2 1 2 2 3 4 5 6 7 9 10 11 12 12 11 11 12 15 18 20 20 21 21 20 19 18 18 16
18 17 16 13 12 10 9 8 6 5 3 2 1 1 1 2 3 3 4 5 6 7 8 9 10 10 10 10 10 10 10 13 16 18 20 21 21 20 20 19 18 17
22 21 19 16 14 12 10 8 6 6 5 4 2 1 0 1 2 3 3 5 6 6 7 9 10 11 11 11 11 10 10 11 12 14 16 19 20 19 19 18 18 18
25 24 23 22 19 16 14 11 9 8 7 6 5 5 4 4 3 2 2 3 4 5 6 7 7 9 9 10 10 11 12 12 11 10 12 16 17 16 16 17 18 17
24 24 23 23 22 20 19 17 15 13 11 10 9 8 7 7 6 5 5 4 4 5 5 5 6 8 9 9 10 11 12 13 12 10 11 15 15 14 15 17 18 17

ECMWFNIL_925_spd_078.txt.gz
Wind_Speed
16 14 14 12 12 14 15 15 14 14 11 10 10 10 10 10 10 10 8 7 6 5 5 6 6 6 6 6 5 4 5 5 4 5 5 5 4 5 5 6 6 6
15 13 15 13 13 17 18 16 15 13 10 10 10 10 11 11 10 9 8 7 6 5 6 7 7 7 7 7 6 5 5 5 4 5 6 5 5 5 5 6 6 6
16 15 15 14 15 19 19 16 13 12 11 10 10 10 10 10 10 9 8 7 6 6 7 7 8 7 7 7 7 6 6 6 6 6 6 6 5 5 5 6 6 6
15 15 15 15 16 19 20 17 12 11 11 10 10 10 10 10 10 10 9 8 7 6 7 7 7 7 8 8 7 7 7 7 7 6 6 5 4 5 6 6 6 6
15 15 15 15 16 17 18 16 12 11 11 11 11 10 10 11 11 11 10 9 7 7 7 7 7 7 8 8 7 7 7 7 7 6 5 5 4 5 6 6 7 7
16 15 15 15 16 16 16 15 13 12 11 11 11 10 10 12 12 12 11 9 8 7 7 7 7 8 8 8 7 7 7 7 7 6 6 6 5 6 6 7 8 8
16 17 16 15 17 18 17 15 14 13 12 11 11 10 11 12 13 13 11 10 8 7 7 7 8 9 9 8 8 7 7 8 7 7 7 7 7 7 8 7 8 8
17 17 17 17 18 18 16 15 14 13 12 12 11 11 12 13 13 13 11 10 8 8 8 9 9 10 9 8 8 8 8 8 7 7 8 7 7 8 8 7 7 7
16 16 17 18 18 17 16 15 14 13 12 12 11 11 12 13 13 12 11 10 9 9 10 10 11 11 10 9 9 9 9 8 7 8 8 8 8 8 8 7 7 7
15 14 15 17 16 15 15 15 14 13 12 12 12 11 12 12 12 12 12 11 10 11 11 11 11 11 10 10 10 10 10 9 8 8 8 8 8 7 7 7 7 7
12 12 13 15 15 14 15 15 14 13 12 12 12 11 12 12 12 13 12 11 11 12 13 12 12 12 11 11 11 10 10 9 8 8 7 7 7 6 6 6 6 6
8 9 10 11 11 11 14 15 13 13 12 11 12 11 12 12 12 12 12 11 11 12 13 13 12 12 11 12 11 10 10 9 8 8 7 6 6 5 5 5 5 5
9 9 10 13 12 10 12 14 13 12 12 11 12 12 12 12 12 12 11 11 11 12 13 13 12 11 11 11 11 10 9 9 9 8 7 7 6 5 5 4 4 4
10 9 11 14 14 12 12 13 12 12 11 10 11 12 11 12 12 13 11 10 11 11 11 11 11 11 10 10 10 9 9 9 9 9 8 8 7 6 5 4 4 3
11 10 10 12 11 10 11 11 10 10 10 10 11 10 10 11 12 13 12 10 11 11 10 10 10 9 10 10 9 8 8 8 8 8 8 8 8 7 6 5 4 3
10 9 10 11 10 9 8 7 7 9 10 9 10 9 8 9 11 12 11 10 11 11 10 9 8 8 10 10 8 7 7 6 7 7 7 7 7 7 6 6 5 4
13 11 11 11 12 12 12 10 8 8 9 8 8 8 7 8 9 10 10 10 10 10 10 8 8 9 10 9 8 8 7 6 6 7 6 6 6 6 6 6 6 6
14 13 13 12 13 13 13 11 9 7 6 5 4 5 6 7 8 9 9 9 9 9 9 8 8 9 8 7 7 8 7 7 6 7 7 7 7 7 7 6 6 7
13 12 12 11 11 10 11 11 7 5 5 4 3 4 4 5 6 7 7 7 8 8 8 8 7 8 7 7 7 7 8 8 7 7 7 8 8 8 9 8 8 8
13 12 12 11 10 10 12 12 8 4 3 4 4 4 4 4 5 5 5 5 6 6 6 6 6 6 6 6 6 7 9 10 9 9 8 9 10 11 11 11 10 9
13 13 12 11 11 11 10 8 6 5 5 5 5 5 4 4 4 4 4 4 4 4 4 4 5 5 5 5 5 6 7 9 11 11 10 11 12 14 16 14 11 10
12 12 11 11 11 11 9 8 6 6 6 6 6 6 5 5 4 4 4 4 4 3 3 3 3 4 4 4 5 5 6 8 10 12 12 12 13 15 16 14 12 11
13 12 12 11 11 11 10 9 8 7 6 6 6 6 5 5 4 3 3 3 3 2 2 3 2 3 4 4 5 5 6 7 8 9 10 12 13 13 13 12 12 12
14 14 14 13 13 12 11 10 9 8 7 6 6 6 6 4 3 3 2 2 2 1 2 3 2 3 4 4 5 6 7 7 6 7 9 10 11 12 12 11 11 15
16 16 15 15 14 13 13 11 10 9 8 7 7 7 6 5 4 3 3 3 2 1 2 3 1 3 4 4 6 6 7 6 5 6 8 9 9 9 10 9 10 13
16 16 15 15 14 13 13 11 10 10 9 8 7 6 6 6 5 4 4 4 3 2 1 2 1 3 3 3 4 5 6 4 4 6 8 8 9 9 9 9 9 8

ECMWFNIL_925_spd_081.txt.gz
Wind_Speed
18 19 17 16 13 13 15 15 14 14 12 11 11 11 10 10 10 9 9 7 6 5 4 3 3 4 4 4 3 4 5 5 5 5 5 5 6 6 7 7 6 5
20 19 18 18 16 16 16 14 14 13 12 11 11 11 11 11 10 9 9 7 6 5 4 4 5 5 5 5 4 4 6 5 6 5 4 4 5 5 5 6 5 5
20 18 19 17 17 18 16 14 13 12 11 11 12 13 12 11 10 9 8 7 7 6 5 5 6 5 5 6 5 5 6 5 6 6 5 4 3 4 5 6 5 5
18 19 19 18 17 16 15 14 12 11 11 11 12 13 13 12 11 10 9 8 7 7 7 7 6 6 6 6 5 5 5 5 6 6 5 4 3 3 4 6 6 6
17 17 17 16 16 15 15 14 12 12 11 11 11 12 12 12 11 10 10 8 8 8 8 7 7 6 6 6 5 5 5 5 5 5 4 4 4 4 4 5 7 6
15 15 15 14 15 16 15 13 12 12 11 11 11 11 11 11 11 11 10 9 8 8 8 7 7 6 6 6 5 6 5 5 4 4 4 4 4 4 4 4 6 6
16 15 14 14 15 16 15 13 12 12 11 11 10 10 11 11 11 11 10 9 8 8 8 8 7 7 7 6 6 6 6 6 6 5 4 5 5 5 5 5 6 6
17 15 15 14 15 15 14 13 12 12 11 11 10 10 11 11 11 11 9 8 8 8 8 8 8 9 8 7 7 7 7 6 6 6 6 6 6 6 7 6 6 6
17 15 15 15 15 14 14 13 12 12 11 10 10 10 11 11 11 10 9 8 8 8 8 9 9 9 8 8 8 8 8 7 6 7 7 7 7 7 7 6 7 7
15 14 13 16 16 14 14 14 13 12 11 10 11 11 11 11 10 10 9 8 8 9 9 9 10 10 8 8 9 9 9 8 8 8 8 8 7 7 7 7 7 8
13 12 10 14 15 14 15 15 13 13 11 11 11 11 12 11 10 10 9 8 9 9 10 10 10 10 9 9 9 9 9 9 9 9 8 7 7 7 7 7 6 7
15 13 9 11 13 13 14 14 14 13 12 11 11 11 11 10 10 10 9 9 10 10 11 11 11 10 10 10 10 10 9 9 9 8 8 8 7 7 7 7 6 6
14 11 8 10 11 11 12 12 13 13 12 11 11 11 11 11 10 10 9 9 10 11 12 12 12 11 11 11 11 10 10 9 9 8 8 8 7 7 7 6 6 6
14 12 12 12 11 11 12 12 12 12 11 11 10 10 11 11 11 10 10 9 10 11 12 12 11 11 11 10 10 10 10 9 9 8 8 8 7 7 7 7 7 7
17 15 15 14 11 9 11 11 11 11 10 10 10 10 10 10 11 11 10 10 10 11 11 11 11 10 10 9 9 10 10 9 9 8 8 8 7 7 7 7 7 7
14 15 15 12 10 10 9 10 11 10 9 10 9 9 10 10 11 12 11 10 11 11 10 11 9 8 9 8 7 9 9 8 8 8 7 7 7 7 7 6 7 7
12 14 14 13 13 13 12 10 10 10 9 9 9 9 9 8 9 12 11 10 11 11 9 9 5 4 8 8 5 7 7 5 7 7 6 7 7 7 7 7 8 8
14 14 14 14 14 14 14 13 11 10 9 9 8 7 7 8 9 10 10 9 10 10 9 7 4 4 8 8 5 5 4 3 4 6 6 7 7 8 8 9 9 9
16 16 16 16 14 13 14 15 13 11 10 11 10 7 5 6 7 9 9 9 9 9 8 7 6 6 7 7 5 6 5 4 5 6 6 7 8 8 9 9 7 6
15 16 17 17 15 14 14 15 14 12 11 11 11 9 7 7 6 6 6 6 6 7 7 7 7 6 6 6 6 6 6 6 6 6 7 7 8 9 9 9 10 10
14 15 16 15 15 14 13 14 13 11 9 9 11 11 9 8 7 6 5 4 3 3 4 6 5 4 5 6 7 6 6 6 6 7 8 8 9 10 10 11 12 14
11 12 14 15 14 15 14 13 12 10 9 10 11 11 10 10 8 7 6 5 3 2 3 3 4 5 5 6 6 6 6 6 6 7 8 10 11 12 13 12 11 13
14 13 13 14 13 14 13 12 12 11 10 10 10 10 10 10 10 8 7 6 4 3 3 4 5 6 6 7 6 6 6 6 6 7 9 11 12 12 14 14 13 15
16 16 16 15 13 11 10 10 10 10 9 9 10 10 9 10 10 10 10 8 6 5 4 5 5 5 5 6 7 7 8 8 7 8 9 11 11 12 14 14 14 15
16 16 15 15 14 13 11 9 8 7 8 9 11 11 9 8 9 10 10 8 7 5 4 3 3 4 4 5 6 6 7 8 8 8 9 10 10 12 13 14 15 15
15 15 14 14 14 13 12 12 9 7 6 8 11 11 9 7 7 9 9 7 5 5 5 3 1 3 4 4 4 4 5 5 5 7 9 10 10 11 12 13 14 14

ECMWFNIL_925_spd_084.txt.gz
Wind_Speed
21 21 20 20 19 18 17 15 15 15 13 12 13 13 13 13 14 13 12 12 11 10 9 9 9 8 8 8 7 8 7 8 8 6 7 7 6 7 8 8 8 7
20 20 18 19 19 17 16 15 15 15 13 12 12 14 14 13 13 14 13 12 11 10 10 10 10 10 10 8 8 9 8 9 9 8 9 8 7 8 9 8 8 7
20 18 17 19 19 17 15 15 15 15 12 11 12 14 14 13 13 13 12 11 11 10 9 10 11 10 10 8 9 10 9 10 11 10 10 9 7 8 9 8 8 8
20 19 19 20 20 18 16 15 15 14 11 11 13 14 14 13 13 13 12 11 11 10 10 10 10 10 10 9 9 10 10 11 11 10 10 10 8 9 9 9 9 9
21 20 20 20 20 18 17 16 14 12 11 13 14 14 14 13 13 12 11 11 10 10 10 10 9 10 10 8 9 10 10 10 9 9 10 10 9 9 9 10 9 9
21 20 19 20 20 20 19 16 13 11 12 14 14 13 13 12 12 12 11 11 10 10 10 9 9 10 8 8 10 9 8 9 8 8 9 9 9 8 8 10 10 9
21 20 19 20 20 21 20 17 15 14 13 13 13 13 13 12 12 12 11 11 11 10 10 10 9 9 8 8 9 7 7 9 7 6 9 10 9 9 9 9 9 9
21 21 21 21 21 21 20 18 18 17 15 13 13 12 12 12 12 12 11 10 11 10 10 10 9 9 9 8 8 7 8 7 6 7 11 11 9 10 10 9 9 9
20 20 22 22 22 21 20 19 19 18 17 15 13 13 13 12 12 12 10 10 10 10 10 10 10 10 9 8 8 9 8 6 6 10 12 10 9 10 10 10 10 11
20 19 22 23 22 20 19 18 17 17 15 14 14 14 13 13 13 11 10 9 10 10 10 10 11 10 8 8 9 8 7 7 8 10 10 8 9 10 10 11 12 11
20 20 22 22 19 18 19 17 16 16 14 14 14 14 13 13 12 10 9 9 9 10 10 10 11 10 9 9 9 8 8 8 9 9 8 7 9 11 10 11 11 12
22 22 23 20 17 17 18 17 16 15 14 13 14 14 13 13 12 10 10 9 9 10 10 10 10 10 10 10 9 8 8 9 9 8 7 8 10 10 10 9 9 10
23 23 22 19 17 17 18 16 16 15 14 13 13 13 13 12 11 10 10 9 10 10 10 10 10 10 10 10 10 9 8 9 9 7 8 8 8 8 9 8 8 9
20 22 20 17 18 18 17 16 15 14 14 14 13 13 12 11 12 11 9 9 10 10 11 10 10 10 10 10 10 10 8 9 8 7 8 7 5 7 8 6 7 8
18 19 18 17 18 17 15 16 14 12 14 14 12 12 11 11 12 11 10 10 10 11 12 10 9 11 10 8 10 11 9 9 8 7 7 6 4 7 6 4 6 7
19 18 17 17 17 16 14 16 13 10 13 13 11 12 11 10 12 11 10 10 10 12 13 10 9 10 8 7 9 10 10 9 7 6 7 5 3 5 5 3 5 8
19 19 19 18 17 16 15 15 12 10 12 12 11 11 10 9 11 11 9 9 11 13 13 11 8 7 7 7 9 9 10 9 6 5 5 4 3 3 3 3 3 3
17 18 19 19 18 17 16 15 13 12 12 12 11 10 9 8 9 11 9 7 10 12 11 9 5 4 4 6 7 9 9 8 6 4 3 3 4 4 6 7 7 4
16 16 16 17 18 17 17 16 15 14 14 14 13 11 10 8 8 10 8 5 9 12 10 6 4 3 2 4 4 5 6 5 4 5 4 3 2 2 3 6 7 6
16 17 17 17 17 16 16 16 14 14 15 15 13 13 13 11 11 12 10 8 10 14 12 9 7 5 4 3 3 2 2 2 2 3 5 6 3 2 3 3 4 5
16 17 17 18 18 16 15 14 11 10 12 13 11 11 12 12 11 11 11 13 14 14 13 11 9 7 5 3 2 1 1 0 1 2 3 4 5 4 5 4 4 6
15 15 16 17 18 16 16 16 14 12 11 12 11 9 9 10 10 9 9 11 12 11 11 10 8 6 5 3 2 1 0 1 1 1 2 3 4 4 6 7 6 5
14 14 14 14 15 15 15 15 14 12 11 11 11 10 9 9 10 9 8 8 8 7 6 6 5 4 3 2 1 1 1 1 1 1 3 4 4 4 4 5 4 1
16 15 13 13 14 14 14 14 13 12 11 10 10 11 10 10 11 11 9 8 9 8 6 5 4 3 1 1 2 3 3 3 2 2 4 5 5 5 5 6 6 5
19 18 17 16 15 14 14 14 13 12 11 10 11 11 11 11 12 12 11 10 9 9 7 5 4 3 1 2 4 4 4 4 3 3 5 6 5 5 5 5 7 9
19 18 18 18 17 15 13 11 11 12 12 12 11 12 13 12 10 10 11 11 9 7 5 4 3 2 2 2 3 4 3 3 2 2 3 4 5 6 7 7 8 9

ECMWFNIL_925_spd_087.txt.gz
Wind_Speed
14 18 23 25 23 24 24 21 19 19 19 18 17 18 18 18 18 17 17 17 17 15 13 15 16 16 15 15 14 14 13 13 12 11 11 12 13 13 13 11 10 12
12 14 19 23 22 21 20 19 18 18 18 18 18 19 20 19 18 18 18 18 18 16 14 15 16 16 16 15 14 14 13 12 13 12 12 12 12 12 13 12 11 12
15 14 17 21 22 21 20 19 19 19 18 19 19 20 21 20 19 19 19 18 18 16 14 14 15 15 15 14 13 14 14 13 12 12 12 12 11 13 13 12 12 12
21 20 19 21 22 22 21 21 21 19 19 20 20 20 21 21 20 18 18 18 17 16 16 16 16 15 15 15 14 15 15 13 12 12 11 10 11 13 13 12 12 12
21 20 20 20 21 21 21 22 21 19 20 23 22 21 21 21 20 19 19 18 17 18 17 16 16 14 15 16 16 16 15 13 12 12 11 10 11 13 13 13 13 12
19 18 19 19 20 21 22 22 20 19 23 26 24 22 22 21 19 20 20 18 18 18 15 15 16 15 15 18 17 15 14 13 14 13 12 11 11 12 14 13 12 12
19 18 19 20 21 22 22 20 19 22 25 26 24 22 21 20 18 18 17 17 18 16 14 16 17 14 16 18 15 13 12 13 15 15 13 12 12 12 14 12 12 13
21 20 20 22 23 23 22 20 21 24 24 24 24 22 21 19 17 16 16 18 17 14 15 16 15 14 17 16 13 13 13 11 12 15 15 14 13 13 14 13 13 14
23 22 22 24 25 24 22 21 22 23 22 22 23 21 19 19 17 15 16 17 16 15 15 14 13 15 15 13 13 13 11 9 12 16 16 14 13 13 14 14 13 14
23 22 23 25 26 25 23 22 21 21 21 20 21 19 18 18 16 15 16 17 17 16 15 14 15 15 13 13 14 12 12 14 17 17 15 13 14 14 14 13 13 14
23 23 24 26 27 25 24 23 22 21 19 18 20 18 17 18 16 15 17 17 17 16 15 15 15 13 13 15 13 11 14 17 16 14 12 13 15 15 12 12 13 15
22 23 24 26 26 23 23 24 22 20 18 18 18 17 18 18 16 15 17 17 16 16 16 16 14 12 14 14 11 11 14 13 12 12 12 14 16 14 11 11 14 13
22 23 24 23 22 21 23 24 22 20 19 17 17 18 20 19 16 16 18 17 17 17 16 16 14 13 14 13 12 12 12 11 13 14 14 16 16 13 11 13 14 13
20 21 21 21 22 23 24 24 21 19 19 18 17 19 19 17 16 17 17 17 19 18 16 16 16 16 15 13 12 13 12 12 14 14 14 16 16 13 14 16 15 13
17 16 19 21 23 24 23 22 21 19 19 19 18 19 17 16 17 16 15 18 21 19 17 17 18 17 17 15 13 13 14 14 14 13 14 18 19 18 18 18 16 14
14 13 17 20 23 24 21 20 21 20 19 18 18 18 17 16 17 14 14 20 23 20 19 20 19 17 16 17 16 15 15 15 15 15 15 16 18 18 17 16 15 13
12 14 18 20 22 23 19 18 21 22 20 19 19 17 16 17 16 12 15 22 24 22 22 21 20 19 18 18 18 17 16 17 16 14 13 12 12 13 12 11 10 9
13 15 19 20 22 21 18 18 21 22 20 19 17 14 15 18 15 12 19 24 24 23 23 21 19 19 19 19 19 18 17 16 15 13 11 10 9 9 8 7 6 5
15 15 18 21 22 21 19 20 21 20 19 18 15 14 16 18 15 17 24 26 24 23 23 21 19 17 17 17 18 17 16 14 13 12 10 9 8 6 6 4 3 2
17 17 20 22 22 22 22 23 23 22 21 19 18 18 18 18 18 22 25 24 23 22 21 20 19 16 15 15 15 15 14 14 12 10 9 9 8 7 6 4 4 3
14 17 20 21 22 23 23 22 23 23 23 21 22 22 21 21 22 23 23 22 21 21 20 20 18 16 14 13 13 13 12 12 11 9 8 8 7 6 5 4 3 3
13 15 17 17 18 21 19 18 17 18 18 18 19 21 21 22 23 22 21 21 20 20 20 20 18 15 13 13 13 12 11 10 9 8 8 7 6 5 5 4 3 1
12 14 15 13 14 16 16 14 12 12 12 11 12 15 15 17 19 20 19 18 18 18 18 18 16 13 11 11 11 11 11 10 10 10 10 9 7 7 7 6 5 4
11 14 15 15 14 14 15 13 11 11 12 11 11 12 13 14 15 17 16 16 16 15 15 14 13 11 8 8 9 8 8 8 8 8 8 9 9 9 8 8 8 5
15 14 16 17 17 17 16 15 14 14 15 14 14 14 14 14 15 16 17 17 15 15 13 13 13 12 9 8 8 8 7 7 7 7 8 9 11 10 8 6 5 4
25 21 17 16 16 17 17 17 17 16 17 16 16 15 15 14 14 15 17 17 16 15 13 12 12 13 11 10 9 9 8 8 8 9 10 10 11 9 7 6 6 6

ECMWFNIL_925_spd_090.txt.gz
Wind_Speed
23 23 25 24 25 23 21 22 24 25 24 23 23 21 19 18 17 17 17 17 17 17 18 17 15 15 15 14 15 15 15 16 16 16 16 17 16 16 17 17 15 15
24 24 25 25 26 26 23 23 23 24 23 21 20 19 18 18 18 19 20 19 18 17 17 17 16 16 15 14 16 15 15 16 16 16 17 17 17 17 16 17 15 14
22 25 26 26 28 26 24 24 23 22 21 20 20 19 20 22 21 21 21 19 17 15 17 18 18 17 16 15 16 15 15 15 15 15 16 16 17 17 17 15 14 14
23 26 28 28 27 25 24 23 22 21 21 21 22 22 23 23 21 20 19 19 18 16 18 20 20 19 17 16 16 15 14 14 14 14 15 16 16 17 17 15 13 13
25 26 26 26 26 24 24 23 21 21 23 23 24 25 24 23 21 20 19 20 19 17 18 20 20 19 17 16 15 15 14 14 14 14 15 16 16 16 16 15 14 13
26 25 25 26 25 24 24 24 22 23 24 25 26 25 24 23 23 22 22 20 18 17 18 20 20 19 17 16 17 16 15 15 14 14 14 15 15 15 16 15 15 13
26 25 26 26 25 25 25 25 24 24 24 26 27 26 25 24 24 23 20 19 18 18 19 20 20 20 19 18 18 17 16 15 15 14 13 14 15 16 15 15 15 14
26 25 26 26 26 27 26 25 25 24 23 24 24 25 25 24 23 21 19 19 19 17 18 18 18 20 21 21 19 17 16 15 15 14 13 13 15 16 15 15 15 14
26 25 26 26 26 27 27 25 24 24 24 24 23 22 23 23 22 21 20 20 19 16 17 17 18 21 22 21 18 17 17 16 15 14 13 13 15 15 14 14 14 14
26 26 26 27 27 26 27 25 23 25 26 26 25 23 22 21 20 20 21 21 19 17 17 18 20 22 21 18 17 17 17 16 16 15 14 13 14 15 13 12 14 15
21 25 26 27 27 26 26 25 24 26 27 26 26 25 22 20 19 19 21 20 18 17 17 19 21 21 18 16 16 15 15 16 17 18 15 14 14 14 13 12 13 14
15 21 25 28 28 27 27 26 26 27 28 27 26 25 23 20 20 20 20 19 18 17 17 18 19 19 17 15 15 15 16 17 20 20 17 15 16 15 13 13 13 13
15 18 24 28 28 28 27 26 27 27 28 26 24 24 24 22 21 21 21 20 19 18 17 16 17 18 16 16 17 18 18 19 19 19 18 18 17 15 14 14 14 14
16 18 22 26 28 28 27 27 26 25 25 24 22 24 24 21 20 21 22 22 20 19 18 17 17 17 16 17 18 18 17 17 18 20 21 20 18 16 16 15 14 13
12 17 20 21 22 24 26 27 26 23 23 22 21 24 22 18 19 21 23 23 22 21 20 17 18 18 16 17 18 18 18 19 21 23 22 21 20 19 18 16 14 12
10 14 17 15 16 20 23 24 24 23 22 20 22 23 20 18 21 23 23 23 23 22 21 19 19 18 16 17 19 20 21 23 24 24 23 22 22 21 19 16 14 12
10 13 17 16 17 20 21 22 23 23 22 22 23 22 19 19 21 21 21 23 23 22 21 20 20 19 17 19 20 21 22 24 25 25 24 24 23 21 19 17 14 12
12 17 21 20 20 20 19 19 22 23 23 23 23 21 18 18 19 21 23 23 23 22 21 21 20 19 19 20 20 21 22 23 23 23 23 22 21 19 17 15 13 11
15 21 22 19 19 20 18 18 22 23 23 23 21 20 19 19 22 26 28 26 25 24 23 22 22 22 22 21 21 21 21 21 20 19 18 18 16 15 14 12 11 10
19 22 22 19 19 20 19 20 22 23 22 21 19 19 21 24 27 30 30 29 28 26 25 25 24 24 23 23 22 21 20 20 19 17 15 14 13 12 11 11 10 9
21 24 24 22 21 20 21 21 20 22 22 20 20 22 25 27 29 30 30 30 29 28 27 25 24 23 21 22 22 22 21 20 19 17 15 13 12 11 10 10 9 7
20 23 25 24 23 22 23 22 20 21 24 25 25 27 29 29 30 30 29 29 28 27 26 24 22 21 20 19 20 21 21 20 17 16 14 12 11 10 9 8 7 6
15 18 22 25 26 24 24 24 24 24 26 29 30 30 31 31 30 29 27 27 26 25 25 24 21 19 17 17 16 17 18 15 13 14 14 12 11 10 9 8 7 6
11 12 15 20 24 24 22 22 23 24 24 27 30 29 29 29 29 28 27 25 24 23 23 23 21 18 15 15 14 15 17 16 15 17 17 15 13 11 9 8 8 6
12 11 12 13 15 18 19 19 19 19 19 21 25 26 26 26 26 26 24 22 21 21 21 20 19 17 15 14 15 16 18 19 19 20 20 18 15 14 12 9 8 6
15 14 14 13 12 13 15 15 16 17 17 18 22 24 24 23 22 22 21 19 17 17 17 17 17 16 14 13 14 15 16 17 18 19 20 19 16 15 13 11 9 8

ECMWFNIL_925_spd_093.txt.gz
Wind_Speed
22 23 22 23 24 26 27 28 28 27 26 24 23 23 22 20 20 19 18 18 19 19 18 18 18 17 16 15 16 16 16 16 15 14 13 14 15 15 15 14 13 13
22 23 24 24 25 26 27 29 29 29 27 25 24 23 22 21 20 19 19 19 19 20 19 19 19 17 15 15 16 15 15 15 15 14 13 14 15 15 15 15 13 11
25 26 27 27 27 27 28 29 29 28 27 25 24 24 23 21 20 19 19 20 20 20 20 20 19 17 15 15 15 15 14 14 15 15 14 14 14 14 14 14 13 10
26 26 28 28 28 28 28 29 29 28 27 25 24 23 22 21 20 20 20 20 20 19 20 20 18 16 15 15 15 14 14 14 15 15 15 14 14 14 13 12 12 10
23 24 26 27 29 29 29 30 30 29 27 25 24 22 21 21 21 21 21 20 20 19 19 19 17 16 15 15 15 15 15 15 15 15 14 14 13 13 12 11 10 10
21 23 24 26 28 29 30 31 30 26 23 21 21 20 20 22 22 22 22 21 19 18 18 19 17 16 16 15 15 15 15 15 15 14 13 13 13 12 11 10 10 10
23 22 22 24 26 27 29 29 26 23 20 20 21 21 20 20 22 23 23 20 17 15 17 19 19 18 16 16 15 14 14 13 13 13 12 12 12 12 12 11 11 10
19 17 18 21 23 25 25 23 22 22 22 22 23 24 24 21 20 21 21 20 18 16 16 18 20 19 17 16 15 14 14 13 12 12 11 12 12 12 12 11 11 10
10 9 13 17 19 21 19 17 19 21 22 24 26 27 27 23 19 19 20 21 19 17 18 19 20 19 16 15 15 15 14 13 12 11 10 11 11 11 11 11 11 10
9 10 13 16 15 13 12 15 18 20 22 26 28 27 26 23 21 20 20 20 19 18 19 20 19 18 16 16 16 14 13 13 11 10 10 10 11 11 11 11 11 10
10 12 16 17 13 9 11 16 19 20 23 26 27 26 26 25 23 21 19 18 18 17 19 19 19 19 18 18 16 14 12 12 10 9 9 10 11 11 11 10 10 10
12 16 17 16 13 11 14 19 20 20 22 24 26 26 25 25 24 21 19 18 17 16 17 18 18 19 19 18 16 14 13 12 10 9 10 10 11 11 10 9 9 9
12 17 16 12 12 12 15 18 21 23 24 24 25 24 23 24 23 21 20 19 16 15 16 17 18 19 20 18 16 15 14 14 12 11 11 10 11 11 10 8 8 9
12 13 13 13 14 14 15 19 23 25 25 24 23 23 23 23 22 21 21 19 17 16 16 18 19 19 18 17 16 16 16 15 15 14 13 12 11 11 10 9 9 10
10 11 13 15 15 16 18 22 25 25 24 24 24 24 24 22 20 20 21 20 18 16 16 18 19 17 16 15 16 16 16 17 18 17 15 13 12 12 12 12 12 13
9 12 16 17 16 17 18 19 21 23 24 24 24 25 24 21 19 20 21 20 18 17 16 17 18 17 15 15 16 16 17 18 19 18 16 14 14 16 16 16 16 15
9 12 16 19 19 18 15 15 16 18 21 21 22 24 24 22 21 21 21 20 18 18 17 17 17 16 15 15 15 16 17 19 19 19 18 17 17 19 18 17 17 16
10 12 15 19 21 19 16 17 17 15 18 21 22 23 23 21 21 22 22 20 19 19 18 17 17 16 14 14 15 14 16 19 21 21 20 20 19 19 18 17 17 16
9 14 15 17 20 20 19 21 19 15 17 22 23 21 21 20 21 22 22 21 20 19 19 18 18 16 15 16 16 16 18 20 22 22 21 21 20 19 17 16 15 14
7 12 15 16 18 19 19 20 18 13 16 22 22 21 20 21 22 22 22 21 20 19 19 18 18 18 19 20 20 20 20 21 22 22 22 21 19 17 15 14 13 12
6 9 13 15 15 15 16 17 15 13 18 22 21 20 21 21 22 22 21 20 20 19 19 19 21 22 23 23 23 23 23 23 23 23 21 20 18 16 14 13 12 11
9 10 12 14 14 14 13 13 13 15 21 23 21 21 21 21 22 22 22 22 21 21 22 23 24 26 25 25 24 24 24 24 24 23 21 20 18 15 14 13 12 11
11 12 13 14 15 15 15 14 14 15 20 23 24 24 23 23 24 23 24 25 25 25 26 27 27 27 26 26 26 26 26 25 24 23 22 19 17 16 14 13 12 10
12 13 15 16 16 16 16 17 17 16 16 19 23 26 26 25 25 25 24 25 26 26 26 27 27 25 25 24 25 26 26 23 20 19 19 17 16 16 14 13 12 10
12 13 14 16 17 18 19 19 19 19 19 18 20 24 27 25 25 26 24 23 24 24 22 22 23 23 22 20 20 21 21 18 14 14 16 16 15 15 14 13 12 11
11 11 11 12 13 17 21 22 21 22 22 21 20 22 26 25 24 26 25 23 22 21 19 18 18 18 17 15 14 14 14 14 14 15 17 17 16 15 15 15 13 12

ECMWFNIL_925_spd_096.txt.gz
Wind_Speed
26 25 23 21 20 21 20 21 21 23 24 24 24 24 24 22 20 19 19 18 18 18 17 17 17 16 16 15 14 14 15 15 15 15 15 15 15 15 14 13 12 13
23 22 19 18 18 20 20 20 21 22 23 24 24 24 23 22 20 19 18 18 18 18 17 18 18 17 16 16 15 15 14 14 15 15 15 15 15 16 14 12 11 11
22 21 19 18 18 19 20 21 22 22 23 23 23 23 23 22 20 19 19 18 17 18 18 18 18 16 16 15 14 14 13 13 14 15 15 14 14 15 14 12 12 11
21 20 19 20 21 20 20 21 22 22 21 20 19 19 20 20 20 19 19 18 17 17 18 18 16 15 15 14 13 13 12 12 12 13 13 12 12 13 13 12 12 11
16 17 19 21 22 22 22 20 19 17 16 17 18 18 19 19 19 19 19 17 17 17 17 17 16 15 15 14 13 13 12 12 12 12 12 12 11 11 12 11 11 11
12 13 17 19 21 22 18 13 13 14 16 19 19 18 19 18 18 18 18 17 16 16 16 16 16 15 15 14 13 13 13 12 12 12 12 12 11 12 11 11 11 12
10 12 14 17 19 16 8 9 14 17 17 18 17 17 18 18 18 18 17 16 16 16 15 15 16 16 15 15 14 13 13 12 12 12 12 12 11 12 12 11 11 12
13 14 13 12 13 8 4 11 19 18 16 18 17 17 18 17 18 17 16 16 16 15 15 16 17 17 16 15 14 14 13 13 12 13 13 12 12 12 12 12 11 11
11 11 9 7 8 7 8 14 19 18 18 19 17 17 18 17 16 16 16 16 16 15 16 17 18 17 16 15 13 13 13 12 12 13 13 13 13 13 12 12 12 11
7 7 6 6 9 11 11 13 16 17 18 18 17 17 17 17 15 16 18 19 17 15 14 16 18 18 15 14 12 11 12 12 12 13 13 13 12 12 12 12 12 11
6 6 7 10 12 13 13 13 14 16 16 17 17 16 17 17 17 18 20 20 18 15 14 15 17 18 16 13 12 11 11 11 12 11 11 11 11 12 12 12 11 10
6 7 9 13 15 14 14 14 15 15 15 16 16 16 17 17 18 19 20 19 18 16 15 15 16 17 16 14 13 13 12 11 11 10 9 10 11 11 11 10 10 9
7 8 11 13 15 14 14 14 15 16 16 16 16 16 18 19 19 19 18 17 17 16 16 16 17 17 16 15 14 14 13 12 11 10 10 11 12 12 11 10 9 9
7 8 10 11 13 14 15 16 16 17 18 18 18 18 19 20 19 18 16 16 16 15 15 16 17 18 17 16 15 14 13 12 11 11 11 12 13 13 12 10 10 10
7 9 9 10 12 14 16 18 18 18 19 18 18 20 20 20 19 17 15 16 15 14 14 15 17 17 17 17 16 15 14 14 12 11 11 12 13 13 12 12 12 12
6 8 10 10 12 15 17 19 19 18 19 18 18 20 21 20 19 17 15 16 16 14 14 16 16 17 17 16 16 15 15 15 14 12 11 12 13 14 13 13 14 13
7 8 10 11 12 15 16 18 19 19 19 20 20 20 22 21 19 17 16 16 16 14 14 15 16 16 16 15 15 16 16 16 16 14 13 12 13 15 15 16 16 16
8 8 10 11 12 14 14 15 17 19 20 22 21 20 21 20 18 17 18 17 16 15 15 16 16 16 15 13 13 14 15 17 18 16 15 15 16 17 18 18 18 18
6 6 8 11 11 11 11 11 13 16 18 20 19 18 17 17 18 19 19 18 17 16 15 16 16 15 13 12 12 13 15 18 19 18 17 18 19 19 20 19 19 18
6 3 4 9 10 9 10 10 10 12 14 14 15 15 15 16 19 20 19 17 17 16 16 16 15 14 12 12 13 14 16 19 20 20 20 20 20 20 19 18 18 17
9 4 0 4 7 8 9 10 8 8 10 11 13 15 15 17 20 20 18 17 16 17 17 16 15 14 13 13 14 15 18 20 22 23 23 22 21 20 18 17 16 16
13 7 4 3 4 6 8 9 8 7 8 10 12 13 15 17 18 18 18 18 17 17 17 16 16 15 15 16 16 18 20 23 24 25 24 23 21 19 17 16 15 14
16 12 9 7 6 7 8 8 8 7 7 10 12 13 15 16 16 17 17 17 17 17 16 16 17 17 17 18 19 20 23 25 26 26 25 24 22 20 18 17 16 14
17 16 14 11 9 10 11 10 10 10 10 12 14 15 16 17 16 16 16 16 17 18 18 18 19 19 19 21 22 23 24 26 27 26 25 24 22 21 20 18 17 15
17 18 17 14 12 11 13 13 14 15 15 15 16 17 18 19 18 17 18 17 17 18 18 20 21 20 19 20 21 23 24 26 27 26 25 24 22 21 20 18 17 15
17 17 17 16 14 13 14 16 17 18 17 16 17 18 20 22 21 20 20 19 17 17 17 17 18 19 19 19 18 19 20 21 22 20 20 22 21 18 19 19 17 16

ECMWFNIL_925_spd_099.txt.gz
Wind_Speed
12 13 16 17 19 20 20 18 16 16 15 13 12 12 15 17 15 14 14 15 17 18 17 15 13 12 14 14 12 11 10 11 12 11 11 13 14 13 13 14 13 13
8 11 13 14 16 18 18 16 15 15 15 14 12 12 14 14 13 16 17 17 18 18 16 15 13 13 13 13 13 12 11 11 12 12 12 13 13 12 12 12 12 11
10 11 11 12 12 13 14 15 15 14 15 16 15 15 17 17 17 18 18 17 16 15 15 15 14 14 13 13 14 14 12 12 12 12 13 14 13 12 12 12 11 10
11 11 10 9 8 8 9 13 14 13 16 19 19 18 18 20 21 20 18 16 15 14 15 15 15 14 12 11 13 13 13 12 11 11 12 12 12 12 12 12 11 10
12 12 10 7 6 6 7 11 14 15 18 22 20 19 21 22 21 21 21 18 15 15 15 15 15 15 14 13 12 11 11 11 10 11 11 11 12 11 11 11 11 12
14 13 9 7 8 8 8 12 15 18 21 23 21 19 21 22 21 22 23 20 17 14 13 14 15 17 16 15 13 12 11 10 10 12 12 12 12 11 11 12 12 12
14 12 7 6 8 9 7 10 15 19 21 21 20 19 20 21 21 23 23 20 17 15 13 13 14 16 16 15 14 14 13 11 11 12 12 12 12 11 12 12 11 11
10 10 7 7 9 9 7 9 15 19 21 21 20 21 23 23 22 23 22 20 19 18 16 15 13 14 15 15 15 14 14 13 12 13 12 12 12 11 12 13 11 11
7 9 10 10 10 9 7 10 15 17 18 18 17 19 21 22 21 22 21 20 18 17 17 17 15 13 14 15 16 16 15 14 13 13 13 13 12 11 13 13 12 12
6 7 8 9 8 7 8 11 12 12 14 15 15 16 18 19 20 20 20 19 18 17 18 18 16 15 14 15 16 16 15 14 13 13 13 12 12 12 13 14 13 13
6 5 5 7 8 8 8 10 9 10 12 13 14 16 17 19 19 19 18 19 19 19 20 20 18 17 15 15 15 14 13 13 13 13 13 13 12 13 14 14 14 14
8 6 6 7 9 10 10 10 8 8 11 12 14 15 16 18 18 17 18 20 21 21 21 21 20 18 17 15 14 12 11 12 12 13 14 14 13 14 14 14 14 14
10 8 8 7 8 9 10 10 8 8 10 11 13 14 15 17 17 16 17 19 20 21 19 20 20 19 18 15 13 12 12 12 12 13 13 14 14 14 14 14 14 14
14 10 8 8 7 7 8 8 7 7 9 10 12 14 15 18 18 17 17 16 16 16 16 17 19 19 18 15 13 13 13 13 13 13 13 14 15 15 15 15 14 14
16 12 8 8 8 7 6 6 6 7 9 10 12 15 17 20 21 19 19 18 16 15 15 14 16 18 17 15 15 15 14 13 13 12 13 14 15 15 15 14 14 14
15 13 9 6 7 8 7 6 7 8 10 11 13 17 19 21 21 19 19 19 17 16 16 15 15 16 16 15 16 16 15 14 14 13 13 14 15 15 15 15 15 15
15 13 9 5 5 8 8 7 7 8 10 10 12 17 19 19 20 19 18 17 16 15 15 15 15 15 15 16 16 16 15 15 14 14 15 15 15 15 16 16 16 15
16 14 10 5 5 6 6 7 7 5 5 7 9 13 17 18 19 18 17 15 14 13 13 14 15 15 15 17 16 15 15 14 14 15 16 16 16 16 17 17 16 16
17 14 11 7 4 3 2 3 4 2 3 6 8 9 12 15 15 15 14 13 13 13 12 13 15 15 16 15 15 15 15 15 16 16 17 17 17 17 18 18 19 20
17 15 13 11 6 3 2 1 1 1 3 5 6 7 9 11 11 11 12 13 13 13 13 14 15 16 15 14 13 13 15 17 19 19 18 19 19 19 19 21 22 22
19 15 13 12 8 5 5 4 2 2 4 6 6 6 7 9 11 12 12 13 14 14 14 15 16 16 14 12 12 13 15 19 21 20 20 20 21 21 21 22 22 22
20 16 13 11 9 7 7 7 6 5 7 7 6 7 7 8 10 11 12 13 14 14 14 15 15 15 13 12 12 13 16 20 22 22 22 23 22 22 22 22 21 21
21 18 14 11 10 8 8 9 9 8 9 9 8 9 9 9 9 10 11 13 13 13 13 14 14 14 13 13 13 15 18 21 23 24 24 24 22 21 21 21 21 20
21 20 16 13 11 10 9 10 10 10 10 9 9 11 13 11 10 10 11 12 12 12 13 13 14 13 13 13 14 15 19 23 26 26 24 23 22 22 21 21 20 20
21 20 18 15 12 11 11 10 11 12 12 10 11 14 15 14 13 12 13 13 13 13 13 14 15 14 14 15 16 18 21 24 26 25 23 22 22 22 21 21 20 20
21 20 19 17 13 11 11 11 11 13 14 14 14 14 15 16 15 16 17 17 16 15 15 16 16 15 13 13 15 18 21 25 27 26 25 25 24 23 23 22 20 20

ECMWFNIL_925_spd_102.txt.gz
Wind_Speed
10 11 13 14 14 12 10 12 14 13 14 15 13 12 13 15 17 19 19 20 21 19 17 17 19 20 20 21 21 19 18 17 17 17 17 18 16 14 13 12 11 11
10 11 12 13 14 12 12 15 18 16 15 17 15 12 12 14 17 18 18 19 20 18 18 18 20 20 19 21 21 19 18 18 19 19 18 17 15 13 12 12 12 11
11 11 11 12 13 12 14 18 19 18 17 17 16 14 13 14 15 16 17 19 19 17 16 15 15 15 16 18 18 18 17 17 19 19 19 17 14 12 12 12 13 13
12 13 13 12 12 12 15 17 18 18 16 16 17 16 14 13 14 15 17 18 18 16 14 12 11 11 12 12 13 15 15 14 16 16 16 16 14 13 12 13 13 13
13 14 14 13 12 14 16 17 17 17 16 16 18 17 15 14 14 16 17 17 16 14 11 11 10 9 10 10 11 13 12 12 13 13 13 14 14 13 12 13 13 12
14 13 14 14 13 15 16 16 16 16 17 18 17 15 16 17 15 15 17 17 16 15 13 12 11 10 10 10 11 11 12 11 11 12 13 14 13 12 12 12 13 12
13 11 11 12 13 14 15 15 15 15 17 17 15 14 16 18 16 15 17 18 17 17 16 15 14 14 13 12 11 11 11 12 12 12 13 14 14 12 11 11 12 12
12 9 9 11 12 14 15 15 14 15 16 15 14 15 16 16 16 16 17 19 18 17 17 17 16 16 15 13 11 12 12 12 12 13 13 12 13 13 12 11 11 12
11 9 9 10 12 13 13 12 13 13 15 15 14 16 16 16 16 16 17 19 19 17 17 18 18 16 15 14 13 13 14 13 14 15 14 12 12 13 13 13 13 13
9 9 9 10 11 12 11 11 12 12 14 15 15 16 15 15 16 17 18 19 19 18 18 19 19 16 14 15 15 14 14 14 14 15 16 15 14 14 14 13 14 14
10 10 10 10 10 11 11 12 12 11 12 14 14 15 15 16 18 18 18 19 20 19 18 19 19 17 15 15 14 14 15 15 16 16 16 15 15 14 14 14 14 14
11 10 10 10 10 10 11 11 10 10 11 11 13 15 16 17 18 19 19 19 19 19 18 19 19 18 17 16 14 14 16 17 16 15 15 14 13 13 13 14 14 14
12 11 10 9 9 10 9 9 9 9 10 10 12 16 18 18 18 18 18 17 17 16 16 17 16 16 18 18 16 17 17 17 16 15 14 13 12 13 13 13 14 14
12 11 10 8 8 8 8 7 7 8 9 10 13 15 18 18 18 18 15 14 16 17 16 15 14 15 18 18 18 18 17 16 16 15 14 13 12 13 13 13 13 13
11 11 9 8 7 7 6 6 6 7 8 10 12 14 16 16 16 15 12 12 15 16 16 16 15 16 17 17 18 19 18 16 16 15 14 14 14 13 13 13 13 12
12 12 9 7 6 6 6 5 5 6 7 9 11 13 13 11 10 12 12 11 11 11 12 15 17 18 18 17 17 17 16 15 15 15 15 15 14 14 14 13 12 12
13 13 10 8 8 7 6 5 4 4 3 5 7 9 9 8 9 12 11 10 12 10 9 12 17 20 19 17 16 15 15 14 14 15 15 15 15 15 14 13 12 12
13 13 11 11 10 9 8 5 4 4 2 3 4 4 6 7 9 11 11 13 16 15 10 9 13 18 18 16 17 17 16 14 13 14 14 15 15 14 14 14 13 12
14 13 12 12 12 11 9 7 5 4 2 1 1 3 7 8 10 11 12 15 16 16 12 10 12 16 17 16 17 18 16 14 12 12 12 13 14 14 13 13 14 14
15 15 14 13 12 10 9 7 6 5 4 3 2 4 7 10 11 12 13 15 13 13 14 14 14 16 17 18 17 16 15 12 10 10 10 11 13 13 12 13 14 14
16 15 14 13 11 10 9 8 7 7 7 6 6 7 8 10 10 10 11 12 12 13 15 15 16 16 17 17 16 15 13 11 9 10 10 11 12 12 12 13 14 15
17 16 15 14 12 11 10 9 8 8 9 9 9 10 10 11 12 12 11 9 9 10 11 11 14 17 17 15 14 14 13 11 10 11 11 12 12 12 12 12 12 14
17 16 15 14 13 12 11 10 10 9 8 9 11 12 13 14 15 15 14 12 11 8 7 8 10 14 16 14 12 13 12 10 11 12 12 13 13 12 13 14 14 14
16 16 16 15 14 12 11 10 10 9 9 9 12 14 14 14 15 16 15 14 13 10 9 9 9 11 13 13 13 13 10 9 12 13 13 14 15 13 14 17 18 16
14 15 16 16 14 13 12 11 10 10 9 10 13 17 18 16 16 17 17 16 14 12 11 12 11 11 12 14 14 14 10 8 10 13 12 12 14 16 16 16 17 17
13 14 15 16 15 14 13 12 11 11 11 11 12 15 19 20 19 20 21 20 17 15 14 13 12 10 9 11 12 12 12 9 9 12 13 10 11 15 17 16 17 17

ECMWFNIL_925_spd_105.txt.gz
Wind_Speed
12 13 14 14 12 13 14 17 21 23 22 21 20 19 19 18 16 16 14 14 15 14 15 18 18 18 19 20 19 16 15 14 14 14 15 16 16 15 13 14 14 13
12 12 13 14 14 13 15 18 20 20 20 22 22 20 18 16 15 16 16 15 14 15 17 20 20 19 20 20 19 16 13 12 10 11 13 15 15 14 13 14 15 14
11 12 13 15 16 16 17 18 18 18 20 22 22 21 18 16 16 16 17 16 15 16 18 20 20 18 18 19 20 18 15 13 11 11 12 13 13 13 12 13 15 15
11 12 14 15 16 17 18 18 17 18 20 20 22 22 19 16 16 16 17 17 17 16 17 19 19 18 18 19 19 18 16 14 12 11 12 12 12 13 14 14 14 15
11 12 14 15 16 18 18 18 18 19 20 20 21 22 20 18 16 17 18 18 18 16 16 17 17 18 20 21 20 18 15 13 12 12 12 13 12 14 16 15 15 17
12 13 14 15 16 16 17 18 20 20 21 22 22 23 21 18 17 18 18 17 17 17 17 17 17 18 21 22 21 19 18 15 12 11 13 13 12 13 16 15 16 20
13 14 14 15 15 13 14 17 19 21 22 21 22 23 21 18 18 18 17 16 16 17 19 20 19 19 19 20 21 20 19 17 14 13 13 13 12 14 16 16 17 20
14 15 15 15 14 13 14 15 17 20 20 18 19 21 21 18 17 18 17 16 18 18 19 20 20 20 19 19 20 19 18 17 15 15 15 14 14 16 17 17 18 19
13 14 14 15 15 14 14 14 16 19 18 17 19 21 21 19 18 17 17 17 19 19 19 19 18 19 21 20 19 18 18 17 17 18 18 16 16 16 17 17 17 18
14 14 14 15 15 14 14 14 15 17 16 16 18 19 19 18 16 15 15 17 18 17 16 16 16 17 19 20 18 18 18 18 18 18 18 18 18 17 17 17 16 17
14 15 15 15 15 15 15 14 15 16 15 14 16 16 16 17 16 13 13 16 17 16 15 14 15 17 18 19 19 19 18 17 18 18 17 19 19 17 19 20 19 18
14 15 15 16 15 15 16 14 14 15 14 14 14 14 15 18 17 13 11 12 13 14 14 11 13 16 16 15 17 18 17 17 18 16 15 19 19 19 21 20 17 17
15 15 15 15 15 14 15 14 14 13 12 12 13 14 14 15 14 12 11 10 7 9 12 10 12 14 14 12 12 13 14 14 16 15 14 17 19 19 20 17 14 14
15 16 15 14 13 13 14 14 14 13 11 11 12 13 13 12 10 10 10 8 6 6 10 11 13 15 14 12 10 10 11 11 12 12 11 14 16 17 17 15 12 11
16 17 15 14 13 12 12 13 13 13 12 11 10 9 11 10 7 8 8 7 7 7 10 13 15 14 12 13 11 10 11 12 12 11 11 13 15 14 14 14 13 12
16 16 14 14 14 12 12 12 13 13 12 11 10 9 11 9 6 6 7 5 3 6 10 12 15 13 11 13 13 11 13 15 14 13 14 14 12 12 14 14 12 13
16 16 14 14 15 14 14 13 13 13 12 11 10 9 11 10 6 5 5 4 3 6 10 9 11 13 12 13 13 13 14 14 14 14 14 13 13 16 18 16 14 13
16 16 15 14 15 15 14 14 14 13 13 13 11 9 10 9 5 3 4 3 3 5 8 8 8 12 13 11 10 11 11 12 12 12 11 14 19 20 18 15 14 13
16 15 15 15 15 14 14 14 14 14 13 13 12 9 8 8 5 3 3 3 2 3 6 7 9 13 14 11 8 8 8 8 8 9 11 14 17 16 14 14 13 13
16 15 15 15 15 14 15 15 15 15 14 13 11 9 8 9 7 6 4 2 1 2 3 5 8 13 14 12 10 10 10 8 7 9 11 10 10 10 10 13 13 12
16 16 15 15 15 14 15 15 15 16 15 13 12 11 11 11 10 9 8 7 6 4 1 3 4 8 13 13 11 11 11 9 6 7 8 8 7 6 7 11 12 13
17 17 16 15 15 15 15 15 15 16 15 13 12 12 13 15 15 14 13 12 12 10 8 9 7 1 8 10 9 9 9 8 5 4 7 8 7 7 7 7 9 12
17 17 16 16 15 15 15 15 15 15 15 13 12 12 14 17 18 18 18 18 18 17 15 14 13 7 4 4 4 6 6 3 1 2 5 7 9 12 10 9 9 11
16 16 16 16 15 15 15 15 15 16 15 14 13 12 13 15 17 19 22 23 22 20 19 18 16 12 8 6 3 0 2 3 3 4 6 10 12 13 13 13 14 14
16 16 16 16 15 15 15 15 15 15 15 14 13 13 13 13 15 19 24 26 24 22 21 20 17 15 12 9 8 7 3 7 8 6 7 10 11 12 13 14 16 17
16 16 17 16 15 15 15 15 15 15 16 15 14 13 14 14 15 18 21 24 26 25 24 21 18 16 13 9 10 12 11 13 12 9 9 13 14 14 14 16 18 19

ECMWFNIL_925_spd_108.txt.gz
Wind_Speed
10 10 11 11 12 13 14 16 17 18 19 18 19 19 17 17 18 17 16 17 18 20 20 20 20 20 21 22 21 21 22 22 23 22 21 20 20 19 17 18 18 17
10 10 11 12 14 14 14 15 16 18 19 20 20 20 20 20 21 19 16 16 19 20 19 19 19 19 21 21 21 21 21 21 22 24 23 22 22 20 20 20 19 18
10 11 12 13 14 15 16 17 17 17 18 19 20 22 23 23 22 20 17 17 19 20 20 21 21 20 20 21 21 22 22 20 20 22 22 22 21 20 21 20 18 18
11 12 12 13 14 15 16 17 17 17 17 18 21 23 24 24 22 20 17 16 18 19 21 23 22 21 20 20 21 22 23 21 19 21 21 20 20 20 19 18 18 18
13 13 14 15 15 15 16 16 16 15 15 17 20 22 22 22 22 19 17 17 18 20 23 23 21 21 20 19 20 20 22 20 18 19 19 18 19 19 18 18 19 19
14 14 15 16 16 16 16 16 15 15 15 17 19 20 20 20 20 18 16 16 18 21 23 23 21 20 19 19 19 19 21 20 18 17 16 16 17 18 18 18 19 20
15 15 16 16 17 18 18 17 16 16 16 18 20 21 20 19 18 17 15 15 17 20 23 22 20 19 19 19 18 18 20 20 18 17 16 16 17 17 17 17 20 21
15 16 16 16 17 17 18 17 17 16 16 18 20 21 19 16 15 15 14 14 16 17 20 21 20 18 17 17 16 16 18 17 17 18 18 18 18 18 17 17 19 20
16 16 17 18 18 17 18 18 18 17 17 18 19 18 16 12 11 12 12 11 10 11 14 17 19 16 13 13 14 13 14 15 16 18 19 19 19 19 18 18 20 19
16 16 17 18 18 18 18 18 18 17 17 16 16 15 13 11 9 10 10 7 6 7 10 13 16 17 14 11 11 10 11 12 14 17 18 18 19 19 18 18 20 20
16 16 17 18 18 18 17 17 17 16 16 15 14 14 13 12 11 10 9 6 4 6 8 11 13 14 14 10 8 9 11 12 14 16 18 16 16 18 17 16 17 18
16 17 18 18 18 18 17 17 16 16 17 15 13 14 13 12 11 10 7 3 1 3 7 11 10 10 13 12 10 11 14 16 15 15 16 16 15 15 15 14 14 13
17 18 18 18 19 19 17 17 17 16 17 16 14 12 11 11 10 7 5 4 2 3 6 10 10 9 13 14 12 12 15 17 16 15 14 13 13 13 13 13 13 11
18 18 18 19 19 19 18 19 19 18 18 18 15 12 12 12 11 7 6 5 3 3 4 8 10 10 11 11 10 11 15 16 15 14 13 11 11 13 12 12 13 12
18 18 18 19 20 21 21 21 21 20 20 20 18 16 15 14 12 9 7 5 4 3 3 7 9 9 9 9 8 9 12 14 13 13 13 10 9 11 11 11 13 12
18 18 18 19 20 21 21 21 21 20 21 21 20 19 18 16 12 9 7 5 4 2 2 5 7 7 7 8 9 7 8 11 11 12 12 9 8 9 9 10 13 11
18 18 18 19 19 19 20 20 20 21 21 21 21 20 20 18 14 11 9 7 6 6 5 2 2 4 4 6 9 9 7 8 9 9 9 9 9 10 10 11 13 11
18 18 18 18 18 18 19 20 20 21 21 22 22 21 21 20 20 18 15 11 9 10 10 7 4 3 3 4 6 8 8 8 8 9 10 11 11 10 11 12 13 13
17 17 17 18 18 18 19 20 20 20 21 22 23 23 22 21 21 21 18 14 12 13 15 12 7 5 6 6 6 7 7 6 5 6 8 8 6 7 9 10 12 13
17 17 17 17 18 18 19 19 20 20 21 21 23 24 24 23 23 22 20 17 15 16 18 17 13 9 7 7 7 7 6 6 3 2 3 4 4 5 7 8 10 10
18 17 18 18 18 18 18 18 19 20 20 21 23 25 25 24 23 22 21 19 19 19 20 21 20 15 10 7 7 7 8 9 8 7 7 8 9 9 8 7 7 6
18 17 18 18 18 17 18 18 19 19 19 20 21 23 24 25 25 25 23 22 22 23 24 25 24 20 14 9 8 10 12 15 15 14 14 15 15 14 12 9 6 6
18 17 17 17 17 17 18 19 19 19 19 19 19 21 23 24 26 28 29 28 27 27 28 28 27 26 21 15 13 14 15 19 24 23 22 23 23 21 19 17 14 10
18 17 17 17 17 18 18 19 20 20 19 19 19 21 22 23 24 26 30 34 33 32 31 30 30 30 28 22 19 18 18 22 28 28 26 27 29 29 27 25 23 18
18 18 17 17 17 18 18 19 20 20 20 19 19 20 20 21 23 26 31 36 37 36 35 33 31 30 28 24 22 21 21 22 26 28 28 29 31 31 30 29 29 26
19 19 19 18 17 18 19 20 20 21 21 21 20 19 20 20 22 26 30 35 39 41 39 37 34 31 28 24 22 21 21 21 24 27 29 31 32 32 31 32 32 32

ECMWFNIL_925_spd_111.txt.gz
Wind_Speed
8 8 9 9 10 11 11 12 12 14 14 14 13 13 16 17 17 20 21 21 22 22 24 23 22 24 27 25 23 24 24 22 22 24 24 24 26 26 27 27 26 26
11 11 11 12 13 13 13 12 11 12 12 12 13 14 16 17 18 20 20 21 22 21 23 23 20 22 26 24 20 22 24 22 22 23 24 25 25 25 25 25 24 25
12 13 13 14 14 14 14 13 12 11 12 13 14 15 16 17 18 19 20 21 21 19 19 19 17 18 21 20 18 21 23 22 22 21 21 23 24 24 24 25 25 25
14 14 14 15 15 15 15 15 15 13 13 14 15 16 17 17 16 17 19 21 20 16 15 16 16 15 16 17 18 20 21 22 22 21 21 22 23 24 24 24 25 25
15 16 15 15 15 16 16 16 16 16 15 16 16 17 18 17 16 16 17 19 17 14 13 14 16 16 15 16 19 20 21 21 20 20 22 22 22 24 25 24 24 24
17 16 16 15 15 15 16 16 17 18 16 16 17 18 18 17 16 16 17 17 17 16 15 14 14 15 17 16 16 17 20 21 17 16 22 24 22 22 23 24 24 24
17 16 15 14 14 15 16 16 18 18 16 15 17 17 16 16 16 16 16 17 17 18 18 17 14 14 15 15 14 14 18 20 17 16 20 23 22 21 22 24 24 25
16 16 15 15 16 17 18 18 18 18 17 17 18 18 16 15 15 16 15 16 18 18 18 17 15 12 11 12 14 16 18 19 18 19 19 19 20 22 22 23 23 24
15 16 17 18 19 19 19 18 18 18 18 18 18 17 16 15 15 15 15 16 17 16 15 14 13 11 11 12 15 17 18 18 20 22 22 19 19 21 22 22 22 22
18 19 19 20 20 19 19 19 19 18 18 18 18 17 16 16 15 14 15 15 15 14 12 10 9 9 10 11 12 13 16 18 18 21 22 21 20 20 20 21 20 19
20 20 21 22 21 21 20 20 20 20 19 18 18 17 16 16 15 14 13 14 14 13 11 9 7 8 11 12 10 10 14 16 16 18 21 23 22 20 18 18 17 16
20 21 22 23 22 22 21 20 20 20 20 20 19 19 18 17 16 14 12 13 13 11 10 8 5 5 8 10 10 11 13 14 14 16 18 20 21 19 16 14 14 16
21 21 22 22 22 22 21 21 20 19 20 20 21 21 21 19 17 16 14 13 12 10 9 6 2 3 6 8 9 11 13 14 14 15 16 16 16 15 13 13 14 17
21 21 21 21 21 22 22 22 21 21 20 20 21 22 22 20 18 17 16 15 12 11 9 5 1 3 6 7 7 8 11 13 13 14 13 12 11 10 11 14 15 15
22 21 21 20 20 22 22 22 22 22 22 22 22 23 23 22 21 20 19 18 16 12 8 3 0 2 4 5 5 6 9 10 11 12 11 11 11 12 13 15 15 13
21 21 20 20 21 22 21 21 22 23 23 24 23 23 24 24 23 23 22 21 18 15 11 6 1 3 4 6 5 4 5 7 7 8 10 10 10 12 14 14 13 13
20 20 20 21 22 22 21 20 21 23 24 24 23 23 24 24 24 23 23 23 20 17 15 11 6 1 2 5 5 2 3 5 5 5 8 7 7 8 11 11 11 11
21 20 20 21 22 21 20 20 21 24 25 25 24 24 24 24 24 22 22 23 22 19 16 13 9 6 5 5 4 5 6 5 6 7 7 8 6 6 8 9 8 7
21 21 20 21 21 20 20 21 23 25 26 26 26 26 27 27 25 23 23 23 23 21 17 14 11 9 8 8 8 9 10 11 13 12 10 10 9 7 7 7 6 5
20 21 21 21 20 21 21 22 23 25 26 26 27 28 30 30 29 27 26 25 24 23 19 15 14 13 12 12 13 14 14 15 17 17 16 14 12 10 8 7 5 4
20 20 20 21 21 21 22 23 23 24 25 26 27 29 29 30 30 30 29 29 28 26 24 20 18 20 19 17 17 17 16 17 18 19 20 20 18 16 13 11 9 8
19 19 20 20 21 22 22 22 23 24 25 25 27 29 30 31 32 33 32 33 32 31 30 26 21 23 25 23 20 19 19 20 22 24 25 26 24 22 19 16 14 12
20 19 20 21 22 22 22 22 22 23 24 25 27 29 31 32 33 34 35 35 34 34 33 29 25 26 28 27 23 22 24 27 29 31 33 33 33 31 29 27 23 17
20 20 20 21 22 22 23 23 23 23 22 23 26 28 30 30 32 35 38 38 36 35 34 32 30 29 30 30 27 26 28 31 34 36 38 38 38 38 36 36 34 28
20 20 21 22 22 22 22 22 23 23 22 23 24 25 26 28 32 36 39 39 38 37 36 34 33 31 30 31 32 31 31 32 33 36 39 38 39 40 40 39 38 36
20 21 21 22 23 23 23 23 23 23 24 25 25 25 26 28 30 34 38 39 40 42 41 39 36 34 31 31 32 32 32 33 33 34 37 38 38 39 40 40 40 38

ECMWFNIL_925_spd_114.txt.gz
Wind_Speed
4 3 4 5 6 7 9 10 11 11 10 10 10 10 11 13 15 16 18 19 20 21 21 22 23 25 27 28 26 26 25 25 26 24 22 24 24 24 23 23 24 24
5 4 4 5 6 8 9 10 11 10 10 10 10 11 12 14 16 18 19 20 20 21 21 21 22 24 26 27 26 25 24 24 26 25 21 22 23 23 24 23 24 24
6 5 5 6 7 9 10 10 10 11 12 12 12 13 14 15 17 18 19 20 20 21 21 21 22 22 23 24 23 24 24 24 25 25 23 22 22 23 24 24 23 23
6 6 5 7 8 10 10 10 11 12 13 13 13 14 15 16 17 17 18 18 19 20 21 21 21 20 20 21 21 22 24 23 24 25 24 23 23 23 23 23 23 22
6 6 6 7 9 9 10 10 11 12 13 13 13 14 15 16 16 16 17 17 17 18 19 19 19 18 19 20 20 22 23 24 24 24 23 24 24 23 23 23 23 22
6 7 7 7 8 9 9 10 11 12 13 13 14 14 14 14 15 15 16 16 16 17 17 17 17 16 17 17 18 20 22 23 23 22 22 24 24 23 23 23 23 22
8 9 9 10 10 10 10 10 10 11 12 13 13 13 13 13 14 15 15 16 16 16 16 16 16 15 15 15 16 18 19 20 21 22 23 24 23 22 23 24 24 23
11 11 11 12 12 13 13 11 11 11 12 13 13 13 13 13 14 15 16 15 14 15 15 14 14 14 13 14 15 17 19 20 21 23 23 23 22 22 23 23 23 23
13 13 13 13 13 14 13 12 12 12 13 13 14 14 14 13 14 15 15 14 13 14 15 14 13 13 12 12 14 15 17 20 22 24 24 22 22 23 23 21 20 20
15 15 14 14 14 14 14 13 13 12 12 13 14 16 15 14 14 14 13 13 13 14 13 12 12 12 12 12 13 14 16 19 22 23 23 22 22 21 19 18 18 18
16 16 16 16 16 15 15 14 13 12 13 13 15 16 16 15 16 15 15 14 14 12 10 10 12 11 11 11 12 12 13 18 20 20 21 19 18 17 16 15 17 17
17 17 17 17 17 16 15 14 13 13 14 15 15 15 15 16 16 15 15 15 14 12 10 10 12 11 9 10 10 9 10 14 17 17 16 13 11 14 16 15 17 17
17 17 17 17 17 17 16 15 15 15 16 16 15 15 15 16 16 15 15 15 14 13 11 9 9 9 8 7 7 7 8 9 9 10 10 9 11 15 17 16 16 16
17 16 17 17 17 17 16 16 16 16 16 15 14 14 15 16 16 15 14 14 13 13 11 8 6 7 7 5 5 5 7 6 4 5 7 8 11 14 15 16 15 15
17 17 18 18 18 17 17 17 17 17 16 15 14 14 14 14 14 15 15 14 14 13 13 10 7 7 6 4 4 4 5 5 4 5 6 7 8 10 10 12 12 13
17 17 17 17 18 18 19 19 19 19 19 19 18 17 16 15 15 15 15 15 16 17 16 14 11 10 7 5 4 5 4 3 3 4 4 5 7 8 7 9 10 11
17 17 17 17 18 19 20 21 21 21 22 22 22 21 20 18 17 17 16 16 18 19 19 17 15 14 12 8 7 7 4 3 4 3 1 4 6 6 5 7 8 8
17 17 18 19 19 19 20 21 21 22 23 23 24 24 23 21 20 20 19 20 21 22 22 19 16 17 17 15 13 12 11 10 11 10 7 3 1 2 2 3 5 6
18 18 19 20 19 19 20 21 22 23 22 23 24 25 26 26 25 24 24 24 26 27 26 22 20 21 20 17 15 14 12 13 14 13 12 10 7 4 3 3 2 2
18 19 19 19 19 19 21 22 23 23 22 22 24 26 28 29 29 29 29 29 30 31 29 26 25 25 22 19 18 17 16 16 17 16 15 14 12 10 7 7 6 4
19 20 20 19 19 20 22 22 23 24 23 24 25 26 27 28 30 32 33 33 33 33 32 30 29 28 25 22 21 20 21 22 22 21 20 18 17 14 11 10 11 11
19 20 20 20 20 21 22 22 23 23 24 24 26 28 29 30 32 33 34 34 34 33 33 32 30 28 28 27 24 23 24 26 26 26 26 25 23 21 18 15 13 15
19 20 20 20 21 22 22 21 21 22 22 24 27 30 31 32 33 35 35 35 35 33 32 32 30 28 29 30 29 28 28 30 31 31 33 33 31 29 27 22 18 17
20 20 21 21 22 23 22 21 21 21 22 24 27 30 31 31 33 37 38 38 37 35 33 32 30 27 27 30 31 31 32 33 34 36 37 37 36 35 34 31 25 21
21 21 21 22 22 23 22 22 21 21 22 25 28 30 31 32 35 38 39 39 39 39 37 36 34 29 26 27 29 31 32 32 34 37 38 37 37 38 38 37 33 30
22 22 22 22 23 23 23 22 22 22 23 26 27 29 31 34 35 37 38 38 39 41 40 39 38 36 32 30 30 31 33 34 36 37 35 36 38 39 39 40 38 36

ECMWFNIL_925_spd_117.txt.gz
Wind_Speed
2 2 3 4 5 6 7 7 8 8 8 8 9 10 11 13 15 16 18 19 20 21 21 20 20 20 21 21 22 24 25 26 27 27 26 26 26 26 27 29 29 28
2 3 4 6 7 8 8 8 9 9 10 10 11 11 12 14 15 16 18 19 20 21 20 19 18 18 21 22 22 23 24 25 26 26 25 26 25 25 26 26 28 28
4 5 6 7 8 9 10 10 10 10 10 11 11 11 12 14 15 16 17 17 18 19 18 17 17 17 20 22 22 22 23 24 25 24 23 24 25 25 25 26 27 27
6 6 6 7 8 9 10 9 9 10 10 11 11 11 12 14 15 15 16 16 17 17 17 17 17 17 18 19 19 20 23 24 23 22 21 23 24 24 25 25 24 24
6 7 7 7 8 8 7 8 9 11 12 12 12 13 13 13 14 14 15 16 16 16 16 16 17 16 17 18 18 19 22 23 22 20 20 22 22 22 24 24 23 22
5 5 5 5 5 6 6 8 9 11 12 13 13 13 13 13 14 15 16 17 18 17 17 16 17 16 16 17 17 17 19 20 19 18 19 21 21 21 22 23 23 22
2 3 4 4 5 6 7 8 10 11 12 12 13 14 15 15 16 16 16 18 18 18 17 17 17 16 16 16 15 15 16 17 18 17 17 18 19 19 21 22 23 21
4 5 5 6 6 7 9 10 10 12 12 13 13 14 16 17 18 18 17 17 17 18 18 17 16 14 14 15 14 14 14 14 15 17 17 17 17 18 20 21 21 20
5 6 6 7 9 10 11 12 11 11 12 12 13 14 16 17 17 17 16 16 16 17 16 14 13 13 13 13 14 13 13 13 13 15 17 17 16 16 18 19 19 20
8 9 9 10 11 11 11 11 11 10 11 12 13 14 15 15 15 15 15 14 14 15 15 13 12 13 13 12 12 12 12 12 11 12 15 16 17 15 14 17 18 18
9 10 12 12 11 11 11 10 11 11 11 12 13 13 13 13 14 15 15 16 15 15 14 13 11 12 13 12 11 11 10 10 9 10 12 13 15 14 13 15 17 16
10 11 12 12 11 11 10 10 11 11 11 11 12 12 12 13 15 16 16 16 17 15 14 12 11 11 12 12 10 10 10 9 8 8 9 9 9 11 11 12 14 15
11 11 10 10 10 10 10 10 11 11 11 11 11 12 13 14 15 16 16 16 16 16 14 13 11 11 11 10 9 9 9 8 8 7 7 6 6 7 8 8 11 12
11 11 11 10 10 11 12 12 13 13 13 14 13 14 15 16 16 17 16 16 15 15 15 13 12 11 10 8 9 9 8 8 8 8 8 8 7 7 7 7 8 9
10 10 12 13 13 14 14 15 16 16 16 16 16 16 16 17 17 17 17 17 16 15 14 13 13 13 11 9 9 9 8 8 8 9 9 10 9 8 8 7 7 7
9 10 12 13 14 15 15 16 17 17 18 19 19 18 18 18 17 18 19 20 19 17 16 14 15 15 13 10 8 7 6 6 8 9 9 9 10 10 10 8 6 6
9 11 12 13 14 15 15 16 17 18 20 21 22 22 21 20 20 22 23 23 22 21 20 19 19 18 15 11 9 8 7 8 10 11 10 10 11 12 13 11 9 7
10 12 13 13 14 15 16 16 18 20 22 23 25 26 25 24 25 25 25 25 25 25 24 23 22 20 17 15 13 12 11 12 14 15 15 15 14 14 13 12 12 10
11 13 14 14 15 16 17 18 20 21 22 23 26 27 27 28 29 28 28 28 28 28 27 25 23 21 19 18 16 15 13 15 17 17 18 17 17 16 15 14 13 12
13 14 15 15 16 17 19 20 21 22 22 23 25 27 29 30 30 30 30 29 29 28 28 27 25 22 21 20 19 18 17 18 20 21 21 21 20 19 19 18 17 15
14 15 15 16 17 18 19 20 21 22 22 23 26 28 29 30 30 30 31 31 30 29 29 29 26 23 22 23 22 22 23 24 24 25 26 27 26 23 23 23 21 19
15 15 16 16 16 18 19 20 21 21 21 23 26 28 30 31 32 32 32 32 31 30 30 30 28 24 23 25 26 27 29 30 31 31 32 33 32 29 27 25 24 22
15 15 16 16 17 18 20 20 20 21 22 23 26 29 31 32 33 34 35 34 34 33 32 32 30 26 24 25 27 29 31 33 34 35 35 36 36 35 32 29 27 24
16 16 17 17 18 18 19 19 20 21 22 24 27 29 30 30 33 36 37 36 36 35 35 35 33 30 28 29 30 32 34 34 34 36 36 36 37 37 36 34 32 29
17 17 17 18 18 18 18 19 20 22 23 25 28 29 30 31 34 37 37 36 36 36 36 36 35 33 32 33 34 36 37 36 37 38 37 36 37 38 38 38 37 35
18 17 18 19 19 18 19 20 21 23 24 26 28 29 31 33 34 36 36 35 36 37 37 36 35 34 33 33 34 36 36 38 39 38 35 36 39 39 39 39 39 39

ECMWFNIL_925_spd_120.txt.gz
Wind_Speed
4 4 5 6 7 8 9 10 11 11 11 11 12 14 15 16 17 18 19 19 19 19 19 19 19 18 18 17 17 17 19 22 22 21 21 22 22 23 24 25 24 23
4 5 5 6 7 8 9 10 10 10 10 11 13 14 14 16 16 17 18 18 18 18 19 19 17 17 17 17 17 17 19 22 22 21 22 22 21 21 23 23 23 23
5 5 6 8 9 10 10 10 9 9 11 12 12 13 14 15 16 16 16 16 17 19 19 19 17 16 17 17 17 18 19 21 21 20 19 20 21 21 21 21 22 22
6 7 8 9 9 9 9 8 9 11 12 12 12 13 15 16 16 16 15 16 17 19 20 20 18 16 16 17 17 19 19 20 20 19 18 19 20 20 19 19 20 21
7 8 9 9 8 7 7 8 10 11 11 12 12 13 14 15 16 16 16 17 18 19 19 19 18 16 16 17 17 18 19 19 17 17 17 17 16 17 18 18 19 20
6 7 6 6 5 6 7 8 9 10 10 12 13 13 14 15 16 17 16 16 17 17 17 17 16 15 15 16 16 17 19 19 16 14 15 16 15 15 16 17 18 19
7 7 7 7 6 7 8 9 10 11 11 12 11 12 14 15 16 16 15 15 15 15 15 15 14 13 14 15 16 16 17 18 17 14 15 16 15 15 15 15 16 17
9 9 8 7 8 9 10 10 10 10 10 10 11 12 13 14 15 15 14 14 14 13 14 14 13 12 13 15 17 17 16 16 17 16 15 16 15 15 16 16 15 15
10 10 9 8 8 9 9 9 9 9 10 10 11 12 13 13 15 15 15 15 15 14 14 14 13 12 13 14 15 17 15 15 16 15 15 15 15 16 16 15 13 12
11 11 10 10 10 9 9 9 9 9 10 11 11 12 13 14 15 16 16 16 16 16 16 15 14 13 14 13 13 14 14 14 15 14 13 12 13 13 13 12 11 11
11 11 10 10 10 10 10 10 10 10 11 11 12 12 13 14 16 16 16 16 16 16 16 16 16 14 14 13 13 13 13 13 13 12 11 11 11 10 9 9 9 10
11 11 11 10 10 10 11 11 12 12 13 13 13 13 14 15 15 16 15 15 15 15 15 16 17 15 12 11 12 13 12 12 13 12 11 10 9 9 7 6 7 7
12 12 12 12 11 12 13 13 14 15 15 16 15 15 15 15 16 16 16 15 15 16 17 18 18 16 14 12 12 12 12 12 12 11 10 9 9 9 8 6 5 5
13 13 13 13 12 13 14 15 16 16 17 16 15 16 16 16 17 18 18 18 18 19 21 21 21 20 19 17 14 12 12 12 11 10 9 8 8 8 8 7 7 6
12 12 12 13 13 15 17 17 18 18 18 17 17 17 18 18 18 20 21 21 21 22 23 23 23 23 22 19 16 14 14 13 12 11 11 10 10 10 9 9 9 8
11 12 12 14 16 18 19 19 20 20 19 19 20 20 20 19 21 23 25 25 25 25 25 24 24 24 21 18 17 16 16 16 16 15 14 13 13 12 12 12 12 11
13 13 14 16 17 19 20 20 21 21 21 21 22 22 21 22 24 25 26 27 28 27 26 26 26 24 20 19 18 18 18 18 19 19 18 17 17 15 15 15 16 16
14 15 16 18 18 19 20 20 21 22 23 23 24 25 25 25 26 26 26 27 28 27 27 28 27 24 22 21 20 20 20 21 22 23 23 23 22 21 20 19 19 19
15 15 17 18 18 19 19 20 21 22 23 24 25 26 27 28 29 29 29 29 29 28 28 28 28 25 24 23 23 23 24 26 27 28 28 28 27 26 25 23 23 22
14 14 16 17 18 18 19 21 22 23 23 24 25 27 29 30 30 30 31 31 30 29 29 28 27 26 25 26 26 27 28 29 31 31 31 31 29 28 28 27 27 26
13 13 14 16 17 19 20 21 22 23 23 24 25 27 28 30 30 31 31 31 31 31 30 30 28 26 26 27 28 29 31 32 33 34 35 35 34 32 30 30 30 30
13 13 15 16 17 19 21 21 22 23 23 23 24 26 28 30 31 32 32 33 32 32 32 32 30 28 28 29 30 31 32 33 34 36 38 38 38 36 34 32 31 30
13 14 16 16 17 19 21 21 21 22 22 22 24 26 28 30 30 31 33 33 33 33 33 32 31 30 30 31 32 33 33 31 31 34 38 39 39 39 38 36 33 31
14 15 16 17 18 20 20 20 21 22 22 22 24 26 27 27 29 31 33 33 33 33 32 32 30 29 30 32 33 34 34 32 30 33 36 37 38 39 40 39 37 34
14 15 16 17 19 20 21 21 22 22 22 23 24 26 27 27 29 32 33 33 33 33 33 33 32 29 29 30 31 33 34 34 34 37 37 35 36 39 40 40 40 38
14 15 17 18 19 20 21 22 22 23 24 24 25 26 28 29 30 31 32 32 32 33 34 34 33 32 30 30 30 31 32 34 36 35 33 33 37 39 39 39 39 39

ECMWFNIL_925_spd_123.txt.gz
Wind_Speed
8 6 5 5 5 5 5 6 7 8 8 8 9 9 9 10 12 13 13 12 12 12 10 9 9 9 9 10 11 12 12 13 13 14 15 17 19 19 18 18 19 18
7 6 5 5 5 5 5 6 7 7 8 8 9 9 11 12 14 14 13 13 13 12 12 11 11 10 11 11 12 13 13 13 14 14 15 16 18 18 17 17 18 17
6 5 5 5 5 5 5 6 6 7 8 8 9 11 12 13 13 12 13 13 13 12 12 12 12 12 12 11 12 13 13 14 15 15 15 16 16 17 17 17 18 17
5 5 5 5 5 5 6 7 7 8 8 9 10 11 11 12 12 12 12 12 12 11 11 11 12 12 12 11 12 13 14 14 15 16 15 14 14 16 16 16 16 16
5 5 5 5 6 6 7 8 8 8 8 9 9 9 10 11 12 12 11 11 11 11 12 11 11 11 11 11 13 14 15 15 14 16 15 12 12 13 14 14 14 15
5 6 6 7 7 7 8 9 8 7 8 9 8 8 9 10 11 11 11 11 10 11 12 12 13 12 11 11 13 13 14 14 13 15 15 13 12 12 12 13 14 14
7 7 7 7 8 8 8 8 8 7 8 8 8 8 9 9 10 10 10 10 11 11 13 12 12 12 12 11 12 12 13 13 13 13 13 13 13 13 13 13 13 14
8 8 8 8 8 8 8 8 7 7 8 8 8 8 8 9 10 10 9 10 11 11 12 13 12 11 11 11 12 12 12 12 12 12 11 11 12 12 13 12 12 13
8 9 9 9 8 8 8 8 7 7 7 7 7 6 7 8 9 9 9 10 10 11 12 13 12 10 9 11 12 11 12 12 12 12 11 10 10 10 11 11 10 11
8 9 9 9 8 8 8 8 8 7 6 6 6 6 7 8 8 8 9 10 11 12 13 13 13 12 9 10 12 12 12 12 12 11 11 10 9 10 10 10 9 9
9 9 9 9 8 8 9 8 8 7 6 6 6 7 8 8 8 8 9 11 13 14 16 17 17 16 14 12 12 12 12 12 12 12 11 10 10 10 11 11 10 10
9 8 8 8 9 9 8 8 7 7 6 6 7 7 8 9 10 10 11 13 15 17 18 20 20 19 17 15 14 12 12 11 11 11 11 11 11 12 12 12 12 11
8 8 8 8 9 8 8 7 7 7 6 6 7 8 9 11 13 14 15 17 18 19 20 20 19 18 16 15 14 13 12 12 11 10 11 12 12 13 14 14 13 13
7 8 8 9 9 9 8 7 8 8 8 8 9 10 11 13 16 17 19 20 21 21 21 20 20 19 18 16 14 13 13 13 13 13 13 13 14 14 14 16 15 14
8 8 9 9 10 9 9 9 9 9 9 10 11 12 13 15 17 19 20 21 21 22 22 22 22 23 20 16 14 14 15 15 16 16 16 16 17 17 16 16 17 16
9 9 9 10 10 10 9 9 10 11 13 13 13 14 15 17 19 21 21 20 20 22 23 24 25 23 19 16 15 16 17 18 19 19 19 19 18 19 19 19 19 18
9 8 9 9 10 11 10 11 13 17 20 20 19 19 20 20 20 21 21 19 19 20 22 25 26 22 19 18 17 18 20 21 22 22 22 22 20 19 19 19 20 19
10 9 9 9 11 12 12 16 20 23 24 24 23 22 22 20 18 18 18 18 18 20 22 24 25 23 22 21 20 21 22 23 24 24 24 24 22 20 20 19 20 20
10 9 10 10 11 12 15 20 24 24 25 26 24 20 19 18 16 16 17 16 18 20 22 24 25 25 25 24 23 24 25 24 23 24 24 24 23 22 22 22 22 23
11 10 10 10 12 16 20 22 23 24 25 25 23 19 16 17 17 17 17 17 17 19 21 25 26 25 26 26 26 27 27 23 21 21 22 23 23 22 22 23 24 23
11 11 10 11 15 20 21 21 23 25 26 26 23 18 16 18 18 18 18 17 17 18 22 26 25 24 26 28 27 28 26 22 19 20 21 22 23 23 23 22 21 21
12 11 11 13 18 21 21 21 24 24 25 27 26 23 22 21 18 20 23 22 20 21 21 22 23 24 26 28 28 28 28 26 22 20 22 23 23 25 26 25 24 25
11 11 11 14 18 19 18 20 22 23 23 25 27 28 28 25 21 23 27 28 27 26 22 20 22 24 25 27 28 29 32 32 27 23 22 24 25 26 30 33 33 32
11 11 11 13 14 13 15 18 21 24 24 26 28 28 27 26 26 27 29 30 30 30 26 24 24 23 23 26 28 29 31 32 30 30 27 25 27 31 33 35 36 34
12 11 12 14 14 14 18 21 23 24 25 27 29 28 26 26 27 27 28 29 30 30 30 28 27 24 23 24 25 28 29 26 26 29 28 24 26 30 33 35 35 34
13 12 12 15 18 20 22 24 24 25 26 27 28 28 27 27 27 28 28 29 29 30 30 30 29 27 24 24 24 27 29 27 24 23 23 22 24 25 27 32 34 34